GFSGL_850_spd_000.txt.gz
Wind_Speed
4 3 7 7 7 10 11 13 12 8 7 7 5 6 9 13 14 14 13 15 16 16 16 16 16 14 13 6 8 8 12 10 8 11 13 11 11 11 11 14 12 11 10
2 3 5 2 7 8 6 8 7 8 8 7 8 9 9 13 14 15 15 16 18 17 17 15 14 13 11 9 7 5 7 7 9 10 8 6 12 14 13 10 12 12 11
1 2 0 5 3 5 3 2 4 3 3 4 7 8 8 8 11 12 16 20 20 20 19 15 12 10 7 5 5 6 9 8 6 8 11 10 10 14 14 12 11 11 13
3 2 2 1 2 1 3 0 3 3 4 6 10 10 10 8 8 8 11 13 14 15 15 14 14 7 2 6 3 1 5 7 7 5 9 10 5 8 11 11 12 8 10
2 3 2 2 2 2 1 2 4 4 4 8 7 8 8 7 8 6 6 7 10 12 14 12 11 9 6 5 9 8 7 8 9 10 12 12 11 10 10 10 6 10 10
7 5 6 5 3 5 3 4 7 7 7 8 6 6 7 4 4 4 4 6 6 8 9 8 7 8 12 8 8 8 9 9 10 10 12 10 11 13 12 11 9 11 10
9 8 11 7 5 6 7 7 9 10 10 11 11 9 7 7 7 5 5 4 5 3 2 3 5 5 4 9 14 12 10 9 8 8 13 14 14 13 11 13 12 12 11
10 10 14 9 8 6 10 10 10 8 8 9 9 8 7 8 7 7 6 4 10 11 11 9 8 6 9 8 8 6 6 4 4 4 5 5 4 6 7 7 6 7 4
10 14 14 14 15 14 12 12 10 9 7 5 5 7 10 11 11 9 11 10 8 10 9 6 9 9 8 6 3 2 3 2 1 1 1 1 2 3 3 4 7 6 5
14 15 19 20 18 15 13 11 9 9 8 7 5 7 10 13 15 14 8 7 9 9 9 10 11 9 8 4 2 2 4 4 3 3 3 8 11 11 11 9 9 9 6
14 20 23 20 16 14 12 11 10 9 9 4 4 6 10 14 15 15 14 8 8 10 10 10 9 8 7 6 3 3 5 4 7 9 9 10 10 10 10 11 8 8 8
17 21 21 17 14 12 9 9 8 8 6 5 5 8 10 11 13 15 13 9 8 9 10 8 5 4 1 3 4 3 2 5 4 8 11 7 4 5 9 13 9 7 6
17 19 19 18 14 11 10 9 7 4 7 10 10 8 8 5 4 6 5 5 4 4 4 3 4 4 3 3 6 6 3 1 1 5 6 5 8 12 9 7 6 10 9
19 21 22 21 20 17 16 15 14 15 14 15 12 11 10 9 8 8 5 4 3 4 8 11 11 11 11 9 6 4 6 5 4 6 3 4 5 7 7 9 5 5 4
21 21 21 19 18 20 21 20 17 18 15 13 12 12 10 9 9 9 9 10 11 12 14 13 11 9 9 9 11 12 11 6 4 6 7 6 4 6 7 9 4 6 5
24 24 24 24 23 22 22 23 21 19 17 16 15 12 11 10 11 12 11 13 14 13 12 10 8 6 5 5 4 6 6 6 6 2 2 5 5 6 9 4 6 6 5
22 21 20 19 19 20 19 20 22 20 18 17 14 12 12 12 14 16 18 17 14 12 7 7 7 7 8 8 5 4 4 7 6 4 4 5 7 7 7 7 7 7 6
22 21 19 20 19 13 12 14 14 12 13 18 18 18 14 14 16 15 13 12 10 9 5 5 5 4 4 4 4 4 5 4 4 4 5 6 7 8 7 7 6 7 6
16 11 12 12 12 12 11 9 7 5 3 7 10 15 15 17 16 14 12 11 6 5 5 4 3 2 3 4 5 5 7 5 8 5 6 6 7 7 6 7 7 8 7
10 14 10 9 10 8 7 6 5 5 5 5 8 4 6 4 7 9 8 5 5 4 3 3 6 2 5 6 4 4 4 5 5 5 6 7 7 6 7 7 7 7 7
7 8 5 3 8 5 2 2 3 3 6 3 2 4 6 5 4 3 2 4 3 3 3 2 2 6 4 4 5 5 5 5 4 5 7 7 8 7 7 8 7 7 8
4 1 8 6 4 2 2 3 0 3 0 1 2 8 12 7 1 1 2 2 3 3 3 3 2 3 5 6 5 5 5 6 5 4 6 8 7 7 9 7 7 8 8
1 2 4 8 6 1 5 5 1 2 4 4 4 1 3 1 1 0 2 1 2 2 3 4 5 4 4 6 7 7 8 7 7 8 11 17 3 9 10 8 7 8 9
5 4 3 8 4 4 5 4 3 5 4 4 4 4 2 2 2 3 0 2 1 2 2 4 4 5 6 6 5 7 7 8 10 15 20 15 2 6 7 7 8 8 8
12 4 4 8 5 4 9 6 7 4 4 5 5 5 5 4 4 3 2 2 1 1 2 3 5 7 5 6 4 9 12 14 14 14 11 8 2 5 9 8 8 8 8
8 7 7 8 6 6 8 6 7 6 7 7 7 7 7 7 6 6 5 4 2 2 4 4 4 6 3 6 12 10 8 8 8 8 8 4 3 5 7 8 7 9 9

GFSGL_850_spd_003.txt.gz
Wind_Speed
1 3 8 7 6 8 8 11 12 10 9 8 6 4 2 7 11 12 12 13 13 13 14 17 17 18 14 14 9 19 9 6 6 8 8 12 13 13 6 7 10 13 12
4 2 6 8 8 10 6 10 9 9 10 10 7 6 7 8 12 13 13 13 14 13 14 16 18 22 18 10 5 5 7 8 7 8 11 12 12 9 7 11 14 14 12
4 3 2 4 8 8 7 7 8 7 7 6 8 7 7 8 9 8 8 14 16 18 17 16 17 17 15 9 9 7 6 3 4 5 8 8 7 10 13 13 11 15 13
3 1 2 1 3 4 5 4 6 7 8 8 10 10 10 8 6 7 11 17 19 18 17 15 13 9 8 12 11 8 7 7 4 2 7 8 6 13 16 13 13 11 13
5 2 4 1 4 1 3 5 6 7 9 11 10 11 11 9 8 6 4 4 7 10 12 12 12 11 7 8 11 12 9 4 1 3 6 10 13 9 9 9 10 12 11
6 5 6 3 7 3 8 9 9 9 9 7 6 4 5 5 5 4 3 2 2 3 6 7 7 9 9 7 8 9 9 6 5 8 8 10 13 16 15 12 9 13 11
10 8 8 9 9 7 12 12 10 10 9 8 7 6 4 5 6 4 4 5 5 6 5 6 8 8 9 9 6 11 11 11 11 11 11 15 15 13 10 12 12 13 13
10 10 13 11 16 15 13 12 11 9 8 9 8 5 5 7 7 6 6 2 4 4 4 3 4 4 5 4 2 4 3 2 3 5 6 8 7 6 7 8 12 11 11
11 12 18 19 22 19 16 15 13 9 6 5 5 6 7 8 6 5 3 2 1 4 4 4 4 4 3 3 2 4 5 6 6 5 4 3 2 3 5 5 6 6 9
12 15 22 23 23 20 16 16 14 9 4 1 5 7 10 12 11 8 5 3 5 6 8 9 9 7 5 4 3 5 5 7 5 3 0 2 4 6 6 8 7 7 8
6 13 22 26 24 20 19 16 10 6 2 2 5 9 12 14 14 10 9 7 8 11 11 11 9 7 6 4 2 1 2 2 2 3 3 1 4 8 9 9 8 7 10
14 20 24 22 18 21 17 12 8 4 3 6 7 9 11 12 13 14 8 4 6 9 10 8 6 4 2 3 5 2 2 1 3 5 4 2 4 8 11 13 10 9 5
17 21 20 22 24 22 17 11 10 8 7 9 9 10 9 9 9 9 6 4 8 8 6 4 3 5 4 3 3 4 4 3 3 2 3 3 4 6 7 7 5 7 2
14 17 19 22 21 19 17 17 15 14 14 14 14 14 14 14 13 12 10 9 8 8 10 14 16 14 13 14 13 11 7 6 2 3 4 3 4 6 7 8 6 3 2
20 20 20 21 21 21 21 20 17 17 14 13 13 12 11 11 12 12 13 15 15 15 14 14 12 11 11 11 11 10 10 10 5 7 6 4 4 5 6 8 1 4 4
23 22 22 21 20 20 20 24 22 20 17 14 13 11 12 11 12 14 17 17 16 14 12 10 7 3 2 4 5 6 7 10 6 3 4 6 6 6 7 4 5 4 4
26 25 25 24 23 23 23 23 25 22 17 15 13 13 14 15 17 18 18 16 11 8 8 11 11 10 7 3 0 3 5 6 2 1 4 5 7 7 6 6 6 7 7
24 24 23 25 23 22 21 20 19 20 20 21 18 16 16 18 19 18 16 14 12 5 3 2 2 2 0 3 5 6 7 2 6 4 4 5 6 7 5 6 7 10 11
21 17 13 13 16 14 14 13 14 11 13 16 18 19 17 15 15 14 12 10 8 4 4 4 4 4 4 7 6 3 4 4 6 4 5 8 7 7 5 8 6 8 7
18 12 13 14 11 9 10 9 4 3 10 10 10 12 10 10 10 10 8 5 4 3 3 5 5 5 5 4 6 3 4 3 2 2 8 8 6 5 7 7 6 5 6
11 9 11 9 11 8 5 5 4 6 7 5 2 1 6 8 12 9 3 1 4 5 4 5 4 2 2 5 10 2 2 4 6 8 12 9 5 3 6 8 9 3 6
5 7 13 13 7 3 4 6 4 5 4 1 3 10 13 8 8 3 2 2 1 2 3 4 4 1 5 5 5 5 1 6 8 9 10 11 6 3 6 7 3 5 6
2 4 12 11 8 3 2 3 6 9 6 2 4 9 9 5 3 3 2 3 2 2 2 5 1 3 3 4 6 4 8 11 14 14 14 15 5 4 4 4 4 7 4
3 6 7 10 8 7 7 3 8 5 9 5 6 6 7 3 3 5 5 6 3 2 3 3 5 8 10 12 11 8 8 11 13 16 17 11 3 7 1 3 6 8 6
3 2 6 5 8 7 6 5 9 10 11 9 7 7 6 6 6 7 5 4 2 2 9 6 6 9 9 10 9 7 9 11 10 9 7 6 1 6 2 6 9 3 1
3 7 5 2 4 11 11 7 10 13 6 4 9 9 7 7 6 9 10 8 7 5 9 7 9 7 6 6 13 14 10 7 6 7 7 2 4 3 5 10 5 2 5

GFSGL_850_spd_009.txt.gz
Wind_Speed
5 4 4 3 7 7 8 10 11 11 9 8 5 1 2 5 6 8 12 11 12 13 15 18 20 20 20 20 20 21 20 16 11 10 13 13 11 14 15 13 10 7 9
3 3 4 5 7 8 7 10 10 9 8 8 9 7 7 5 4 6 8 9 11 12 13 15 17 18 22 19 17 19 17 17 14 14 12 12 13 14 6 7 13 12 10
4 3 2 3 5 7 6 9 9 7 8 8 8 10 10 11 9 6 3 3 4 7 9 10 11 12 15 15 14 13 12 14 16 16 11 9 7 6 3 2 4 6 7
2 4 3 3 3 5 5 5 6 7 9 9 10 10 10 10 9 8 5 2 3 5 6 6 8 8 9 9 14 13 11 10 6 1 4 5 6 6 7 6 8 8 10
3 4 4 6 2 3 3 2 3 6 7 10 10 10 10 10 11 10 9 5 4 8 11 13 13 13 12 10 9 9 7 6 6 7 8 9 10 10 9 10 10 10 9
10 6 3 5 5 4 3 2 3 4 4 5 6 8 7 7 9 7 7 4 2 1 0 1 2 3 5 6 7 5 7 9 11 11 10 10 12 15 15 16 15 13 10
14 14 12 10 8 6 3 4 3 3 3 3 4 6 6 7 7 6 5 3 3 5 4 4 2 1 1 3 2 2 3 5 7 7 9 8 9 10 10 10 10 10 11
14 17 17 16 13 9 8 7 6 5 3 2 2 3 4 7 9 9 8 6 4 4 6 6 7 8 9 8 6 5 5 3 2 0 5 7 6 6 4 2 4 10 13
12 17 20 21 18 13 12 11 10 7 4 3 2 2 3 6 8 7 6 6 5 7 8 9 8 7 10 10 6 6 5 6 6 6 4 7 9 8 4 4 2 2 3
12 17 22 24 19 15 15 15 14 10 6 4 3 4 6 6 6 4 3 2 1 3 6 7 9 8 8 6 3 4 3 4 4 4 4 2 1 2 2 2 3 5 6
4 13 21 26 24 18 17 16 14 11 7 5 3 3 7 7 6 6 4 2 1 3 5 8 9 8 5 3 2 3 4 2 3 3 3 2 4 6 6 7 7 6 7
4 9 17 27 27 25 22 21 18 13 7 5 4 6 8 8 7 6 6 5 5 3 5 6 4 3 1 1 2 3 3 3 3 3 4 5 7 9 10 11 10 8 7
4 7 14 21 21 21 25 25 21 15 9 6 7 8 9 8 7 8 6 5 8 4 5 4 4 4 3 2 4 4 2 2 2 3 4 6 8 10 10 8 8 7 5
1 6 10 14 18 17 14 15 13 10 7 8 9 10 10 9 8 8 8 8 7 6 7 8 9 9 8 8 8 8 7 7 7 7 8 7 8 9 11 10 7 6 4
5 7 7 9 12 12 11 11 9 10 8 7 10 9 10 13 13 12 12 11 10 9 9 8 8 6 5 6 9 11 11 7 5 6 6 6 8 8 9 7 6 7 7
8 10 11 12 11 10 10 11 12 11 11 11 11 8 11 12 15 14 12 10 9 8 6 5 4 6 6 6 7 9 9 7 5 5 7 8 9 10 9 7 4 5 6
12 14 15 15 15 14 12 8 9 11 10 10 11 12 11 13 14 13 11 10 10 7 4 7 6 5 4 4 6 7 7 5 3 4 5 7 10 11 8 4 4 5 6
20 21 21 21 19 18 17 14 12 9 9 11 12 13 14 14 12 11 10 9 8 7 7 6 5 3 4 5 5 4 3 6 6 5 7 10 14 10 6 4 5 5 3
22 21 20 18 17 16 16 16 16 15 12 9 12 14 14 11 9 7 6 3 2 3 3 3 4 5 5 6 6 1 1 1 3 6 8 11 14 8 6 4 4 5 5
18 16 13 11 10 9 9 10 9 10 9 8 8 11 12 10 7 6 4 2 3 4 3 2 2 2 2 5 7 3 3 3 3 5 7 12 12 12 7 5 7 7 5
13 11 7 5 3 2 1 2 3 3 4 4 7 10 10 8 6 3 1 3 6 7 7 8 7 5 5 5 6 7 7 4 3 5 9 12 14 12 6 6 8 5 2
11 9 6 4 6 4 4 5 7 6 3 2 6 10 10 8 6 4 4 5 7 6 7 8 8 7 8 6 8 11 11 9 7 8 11 12 13 12 5 6 6 2 0
11 12 12 10 10 10 7 5 7 8 7 5 3 7 10 6 5 4 6 6 7 7 7 4 4 3 5 7 11 13 13 11 9 10 12 13 11 8 5 5 5 4 4
13 14 17 18 16 16 13 9 9 9 9 9 7 4 5 5 3 4 5 6 7 8 8 7 4 5 7 12 11 6 6 6 8 10 10 9 7 6 5 5 6 8 8
9 9 12 13 16 17 17 15 13 11 12 12 13 12 12 11 10 9 8 7 8 7 9 9 10 9 8 8 2 5 5 5 6 7 7 8 8 7 6 6 9 8 3
12 14 12 11 12 17 19 18 19 18 18 17 16 16 16 16 15 14 13 11 11 10 8 9 9 12 11 11 8 4 5 7 5 5 7 7 6 7 6 5 5 5 6

GFSGL_850_spd_012.txt.gz
Wind_Speed
6 2 1 3 5 5 6 9 10 9 7 5 3 1 3 5 6 8 10 12 13 15 17 19 20 20 22 22 22 23 24 19 18 17 11 10 9 6 8 10 7 7 9
7 4 3 1 3 5 6 8 9 8 6 8 8 7 6 4 4 4 6 8 9 10 12 14 16 18 17 21 19 19 20 19 16 13 12 9 6 4 4 6 7 8 7
8 6 4 3 2 5 6 7 7 8 9 9 8 9 11 10 7 5 3 2 3 4 6 7 9 11 14 15 15 12 13 12 11 13 14 11 7 4 3 3 2 2 4
10 6 4 0 2 3 5 6 6 8 9 11 10 10 10 10 9 8 6 4 2 1 2 3 3 5 6 5 7 9 9 8 6 3 2 3 2 3 7 8 8 8 8
10 8 6 4 1 4 4 4 4 6 7 9 9 9 10 11 14 13 11 10 7 3 2 5 6 7 6 4 4 7 5 3 3 4 2 5 5 6 7 10 10 11 10
15 11 11 9 4 2 4 2 2 3 5 6 7 8 7 9 10 8 7 6 5 6 6 6 5 4 3 2 3 3 4 5 4 4 4 5 6 9 10 11 13 13 10
16 16 15 12 7 4 2 2 2 2 2 4 5 6 6 7 9 8 5 5 5 7 7 7 5 4 4 5 5 3 3 3 2 3 4 5 6 5 5 6 10 7 7
10 17 19 16 10 8 5 5 4 2 1 2 3 3 4 7 9 9 8 7 6 7 9 11 11 12 13 12 10 9 10 9 11 10 9 4 5 4 2 4 4 2 2
11 12 17 19 14 12 8 8 8 5 3 1 0 2 5 7 8 6 7 7 7 8 10 11 10 10 13 11 8 9 9 11 11 10 10 9 9 9 9 9 6 4 3
9 11 14 15 17 14 10 11 11 9 6 4 2 3 5 4 5 4 3 4 3 5 6 7 9 8 9 9 7 7 7 8 8 8 8 7 6 6 4 4 4 3 2
4 6 11 16 19 18 13 14 14 12 9 5 3 3 5 5 4 4 3 1 2 6 6 8 8 6 4 4 5 5 6 7 6 5 6 6 7 7 8 8 7 7 6
1 1 7 13 18 20 17 17 16 13 10 7 4 5 6 4 5 5 4 4 6 4 7 7 4 1 2 3 4 4 4 4 4 4 5 6 8 9 10 10 10 9 8
1 2 1 6 11 16 18 20 18 16 13 8 7 7 5 4 4 8 9 8 8 4 4 3 3 3 4 6 8 7 6 5 5 4 7 8 11 12 12 10 9 9 8
3 3 0 3 5 10 11 12 9 8 10 8 6 6 6 6 7 7 7 7 6 5 6 6 7 7 7 7 7 7 8 8 8 9 9 10 11 11 11 10 9 9 7
6 7 6 4 4 6 8 9 9 9 7 5 7 7 6 8 8 10 10 9 8 8 7 6 5 5 6 8 9 10 10 8 6 7 8 9 9 10 9 8 7 7 7
9 11 10 9 9 8 7 7 8 8 8 9 9 6 9 10 12 13 11 8 8 7 4 4 5 7 7 7 8 8 7 6 5 7 8 9 10 10 9 6 5 7 8
11 13 13 13 13 12 10 8 6 9 10 9 8 10 9 11 11 10 9 7 8 6 6 9 7 6 5 5 6 6 6 5 5 5 6 10 12 9 6 4 5 6 5
18 19 18 18 17 15 13 12 10 8 6 7 9 9 11 11 10 9 8 7 8 7 7 6 4 4 5 5 5 5 6 8 6 5 7 11 11 8 6 4 5 5 5
21 22 20 20 20 18 16 16 15 13 9 6 9 11 11 10 8 8 6 4 4 4 4 4 4 4 5 6 6 3 3 2 1 4 6 10 10 10 4 3 4 5 4
19 18 16 15 14 13 12 12 11 11 8 6 7 9 9 8 7 5 4 1 2 3 3 3 3 3 3 5 5 4 2 2 2 3 5 8 10 9 6 3 5 5 1
13 11 8 6 5 4 4 3 3 3 4 4 5 8 7 5 4 4 1 1 2 3 3 4 4 4 4 4 3 4 4 1 3 4 7 8 9 9 6 2 4 2 2
8 4 1 2 4 4 5 6 6 5 3 2 3 6 7 6 6 5 3 3 4 5 6 6 5 4 5 5 5 5 6 5 4 6 8 10 11 11 5 2 2 1 2
6 5 5 7 10 11 10 9 9 10 8 7 6 6 8 7 7 5 2 3 5 6 6 5 4 3 2 4 7 9 11 10 9 9 9 11 11 8 4 4 3 4 5
9 9 11 14 16 17 16 14 10 6 7 9 9 6 5 5 6 5 4 3 5 6 7 5 7 6 5 6 9 9 7 6 7 8 9 9 9 7 5 5 5 6 6
11 12 10 13 16 17 16 16 14 11 10 10 9 10 9 9 8 8 9 9 8 8 7 6 8 9 8 6 7 5 4 4 5 6 6 7 8 8 7 7 6 8 7
7 11 15 15 16 16 16 18 16 15 17 17 17 15 14 14 14 14 14 15 14 12 11 9 7 10 11 12 10 9 8 6 5 4 5 7 7 8 8 7 6 6 6

GFSGL_850_spd_015.txt.gz
Wind_Speed
5 2 3 4 6 7 8 11 11 9 10 10 8 5 4 4 5 7 8 9 11 12 14 16 18 19 20 21 21 24 24 24 22 21 19 19 15 13 10 11 11 10 9
5 3 1 3 7 8 8 9 8 8 8 8 9 9 6 2 1 2 3 5 6 8 10 12 14 16 19 20 20 22 23 19 20 22 18 10 7 11 8 7 7 8 7
5 2 1 3 5 6 6 7 6 8 8 8 9 9 10 8 6 4 3 2 2 3 4 6 7 9 11 11 14 15 12 9 11 10 13 11 9 11 7 5 4 1 4
8 5 3 1 3 3 3 4 4 6 8 9 10 10 9 9 10 9 7 6 4 2 0 0 1 2 2 3 1 3 5 6 7 3 3 3 2 2 4 6 7 7 5
10 9 7 6 6 3 1 1 2 4 5 7 7 8 9 10 13 11 10 9 8 6 4 2 1 1 1 2 1 2 4 3 5 5 2 1 2 2 5 5 8 8 8
15 13 12 12 10 7 3 3 4 3 4 6 6 7 7 9 9 7 7 6 6 6 7 7 6 5 4 3 3 2 1 0 1 0 1 2 2 4 7 8 8 7 5
19 18 19 17 15 11 7 6 6 4 3 4 4 5 5 8 9 6 6 6 6 7 7 5 4 6 7 8 7 6 6 5 4 2 3 2 2 3 3 4 3 3 2
16 20 22 21 20 15 11 10 8 6 4 3 3 3 4 7 10 9 9 7 6 8 11 12 13 14 14 13 11 11 12 13 13 11 11 11 8 7 6 7 5 3 3
15 15 19 22 19 18 14 13 11 9 6 6 5 5 5 5 7 8 8 7 8 10 11 11 11 11 12 11 9 9 10 13 12 11 10 10 9 8 7 8 5 4 4
12 13 13 17 18 20 17 16 13 11 8 5 5 6 6 4 6 5 5 6 4 6 8 8 8 7 8 7 6 7 7 9 9 9 9 9 8 8 6 5 5 3 2
3 4 6 13 18 21 19 17 15 12 10 8 6 8 8 7 5 5 3 3 3 5 6 7 7 5 3 3 5 5 6 7 7 6 7 7 8 8 9 8 7 7 6
0 0 2 9 14 19 20 16 16 14 12 10 9 8 7 6 5 4 5 5 6 5 6 6 3 2 2 2 3 5 6 6 7 7 8 9 10 10 10 10 9 8 7
3 3 3 2 7 12 18 17 20 18 16 14 11 10 8 5 4 5 8 8 8 4 5 4 4 4 6 6 8 7 6 6 7 8 8 9 10 10 10 9 10 10 8
4 4 3 4 5 6 10 10 9 7 6 8 9 9 7 7 8 9 9 7 7 6 6 8 8 6 6 7 7 7 8 9 9 8 8 9 9 9 8 7 7 7 6
7 7 8 7 6 5 7 8 8 9 8 7 7 6 7 8 10 9 8 8 7 8 8 7 6 6 7 7 8 8 8 7 7 7 7 8 8 7 7 6 7 6 5
10 12 12 13 11 11 8 8 7 7 8 9 8 7 9 10 12 12 11 9 8 7 5 4 5 5 6 6 5 5 5 5 6 7 7 8 7 6 5 5 6 6 6
14 15 15 14 14 13 12 10 8 10 10 9 10 9 9 11 11 10 10 8 6 4 5 6 5 4 3 3 3 4 4 6 6 6 7 7 6 5 5 4 5 4 4
18 19 18 18 17 16 14 12 10 8 6 7 9 10 10 9 9 9 8 7 6 6 5 5 4 2 2 3 4 4 5 6 5 5 5 6 6 4 3 3 3 3 3
22 22 22 22 21 19 18 16 14 10 7 6 8 8 9 8 8 7 7 5 5 4 4 3 2 2 2 2 2 3 5 4 3 2 2 3 4 3 2 1 2 3 1
22 21 20 19 19 17 15 13 13 12 8 5 6 6 7 7 6 6 5 4 3 3 3 3 3 3 2 0 1 2 2 4 4 3 2 1 2 2 1 0 1 1 1
17 15 13 12 10 9 8 7 6 6 6 4 3 5 7 6 5 5 5 5 5 5 6 6 6 7 5 3 3 3 2 3 5 5 5 4 3 3 3 2 1 1 2
9 8 6 4 4 4 5 5 5 3 3 2 1 3 6 7 7 6 6 7 6 7 7 7 8 8 8 7 6 5 5 5 6 7 8 7 5 5 3 3 3 3 4
4 0 3 5 7 8 10 9 9 7 6 6 6 6 6 8 9 10 9 8 8 9 8 8 7 7 8 7 8 8 8 9 9 10 9 8 7 6 5 5 5 5 5
6 6 7 9 11 14 15 15 12 10 8 7 8 8 7 9 11 11 10 9 8 8 9 8 8 9 9 7 6 7 8 9 10 10 11 9 9 9 7 7 7 7 6
8 10 10 10 13 15 17 18 15 14 13 11 10 11 12 12 12 11 12 13 13 12 10 9 9 11 12 12 10 7 8 6 7 9 10 9 9 10 9 8 8 7 8
3 6 9 10 12 13 15 15 13 13 13 14 16 18 19 20 19 18 17 17 17 18 16 15 12 12 12 13 14 13 11 10 9 7 8 9 9 9 10 10 9 7 7

GFSGL_850_spd_018.txt.gz
Wind_Speed
4 2 1 3 5 7 6 7 9 9 10 11 11 9 5 3 4 2 3 4 4 6 6 10 12 13 12 13 14 13 16 18 19 18 18 18 20 22 22 17 16 16 14
5 3 2 3 4 5 6 7 8 9 9 9 11 12 9 6 5 4 3 1 1 2 4 7 9 12 13 14 16 17 17 17 19 16 16 16 17 13 13 14 11 8 8
5 4 3 2 2 3 4 6 6 8 8 8 9 10 10 10 8 6 5 3 2 1 1 2 4 6 8 10 10 12 16 13 8 7 10 12 16 10 10 5 3 3 7
7 5 3 2 0 2 4 5 4 6 6 8 9 9 9 10 10 9 7 6 4 2 2 1 2 3 6 2 2 3 3 6 6 3 3 6 4 4 3 4 5 5 5
9 6 4 4 3 3 4 3 2 2 4 5 6 7 8 9 10 10 9 9 8 6 5 3 2 2 2 2 1 2 5 4 6 6 3 3 4 2 2 3 5 6 5
8 7 7 7 7 7 5 3 1 1 1 2 4 6 7 7 8 7 6 5 6 6 6 7 6 6 5 4 4 3 2 2 3 3 3 2 1 2 2 3 3 2 2
6 8 10 11 11 13 9 6 4 4 2 1 2 4 5 7 8 6 5 5 5 5 5 6 7 8 8 8 7 7 6 5 5 3 2 3 1 3 2 2 2 2 1
11 15 12 16 15 20 13 10 9 8 6 5 3 3 4 5 7 8 7 6 5 6 9 10 10 11 12 12 10 9 10 11 10 9 9 9 8 8 6 5 5 4 3
12 13 15 20 19 21 17 16 12 11 7 6 4 4 4 4 6 7 8 7 7 8 9 10 8 8 8 9 8 8 8 10 10 9 9 9 7 7 7 4 4 5 2
12 14 16 14 21 19 20 18 14 12 10 9 7 7 4 4 5 5 8 6 7 7 7 7 6 6 6 5 6 7 9 8 8 8 8 7 7 6 5 5 6 2 1
9 10 10 9 16 18 21 19 16 15 13 11 10 7 5 5 3 3 5 6 6 8 9 6 6 4 3 2 3 4 5 6 7 7 7 7 8 9 8 6 6 5 3
6 6 6 8 12 14 19 21 18 17 15 12 12 12 10 9 7 6 6 5 6 4 5 5 4 4 3 3 2 5 8 11 4 4 4 5 6 6 7 8 7 6 5
2 1 2 4 5 10 14 18 16 18 18 16 14 12 10 7 6 6 7 7 6 5 5 4 5 5 5 4 5 6 9 4 4 4 4 5 5 5 7 7 7 11 8
3 3 3 2 3 5 7 8 10 10 9 8 10 10 9 8 8 9 9 8 7 6 6 6 6 5 5 6 7 5 5 5 5 4 4 5 5 4 5 4 4 3 2
6 5 6 6 5 4 5 7 7 8 8 8 9 8 8 9 10 9 8 7 6 5 5 4 4 3 3 4 4 4 4 4 4 4 4 3 3 3 3 3 3 3 2
9 9 9 8 8 7 6 6 7 7 8 8 7 6 7 7 9 9 8 7 7 7 4 2 2 2 3 2 3 2 2 4 3 3 3 3 2 2 2 2 2 2 2
11 12 11 11 11 10 10 8 6 7 6 6 7 6 7 8 10 8 7 6 5 5 1 3 3 3 2 1 1 2 3 4 4 2 2 2 2 2 3 1 2 2 2
13 15 11 10 9 8 7 7 6 5 5 5 6 8 9 8 8 8 7 5 2 3 4 3 3 3 2 2 2 2 3 3 3 2 1 2 2 1 0 0 1 0 1
14 13 13 12 11 11 9 8 6 5 5 5 5 6 7 7 8 8 10 5 4 3 3 3 4 3 3 3 4 4 5 5 5 3 2 1 1 1 2 2 3 1 3
17 19 15 13 12 10 9 8 7 5 4 4 4 5 6 7 6 6 5 4 4 4 4 5 6 5 5 5 5 5 5 7 7 5 5 3 3 2 3 4 4 3 3
13 12 13 10 8 7 6 6 5 5 3 2 4 7 11 7 6 6 6 6 5 6 7 8 8 9 8 8 6 6 7 8 9 8 8 6 5 3 5 5 6 5 4
9 7 7 5 3 3 1 2 2 2 1 1 2 5 6 7 6 7 7 7 8 8 7 8 8 9 10 10 10 9 9 9 9 9 9 8 8 7 7 7 7 6 6
6 4 2 0 2 4 5 5 6 6 4 4 4 5 6 8 9 9 9 9 9 9 9 8 9 10 10 11 11 11 11 11 12 11 11 10 10 9 9 8 9 8 8
3 3 3 4 6 7 8 9 10 11 9 8 7 7 8 10 11 12 11 11 12 11 10 9 10 10 11 12 11 11 11 12 12 12 13 12 11 12 11 10 10 10 10
6 4 5 6 7 9 10 11 11 11 12 11 11 11 12 13 13 13 13 14 14 13 13 12 11 10 12 14 14 13 16 18 14 12 11 12 12 13 13 12 12 12 12
1 2 4 7 8 9 11 10 10 8 9 10 12 12 14 15 17 19 18 18 18 17 17 16 16 15 14 14 16 17 22 21 15 14 12 12 13 12 13 14 14 14 13

GFSGL_850_spd_021.txt.gz
Wind_Speed
8 5 4 3 5 4 6 7 7 9 12 12 13 12 8 6 7 5 2 2 2 3 3 5 7 9 11 9 11 13 14 14 16 17 13 10 11 16 20 21 20 18 15
9 6 4 4 2 3 5 6 8 10 10 11 12 12 11 9 6 6 6 6 5 4 3 1 3 4 8 10 13 13 12 11 11 10 10 12 10 7 10 7 3 3 4
9 6 4 3 1 2 4 6 7 8 10 12 12 12 11 11 11 10 9 7 6 5 3 2 1 3 6 9 9 10 10 11 11 8 6 6 7 10 8 0 3 6 6
7 6 4 3 1 3 5 6 5 6 7 8 10 12 12 11 10 11 10 9 7 4 4 4 4 3 4 3 1 1 3 4 3 1 5 4 4 7 2 3 4 4 5
6 6 6 5 3 2 3 4 2 3 6 7 7 10 10 8 9 9 9 10 10 10 9 8 6 5 5 5 3 3 5 6 7 7 5 5 6 4 2 2 3 4 4
7 8 7 9 7 9 1 2 3 2 5 5 6 5 6 7 7 7 8 8 7 8 8 8 8 7 7 7 5 4 3 4 3 2 2 1 2 2 2 2 2 1 1
9 8 8 10 9 12 5 3 6 3 3 3 4 5 5 5 5 6 7 8 7 7 8 9 9 11 12 11 9 7 6 5 3 2 2 2 1 1 2 1 1 1 0
7 8 9 13 12 14 10 9 10 5 4 1 1 2 3 3 5 7 9 8 9 11 11 9 9 10 12 10 8 8 8 7 8 8 7 6 6 7 7 6 5 3 3
4 6 7 11 14 15 11 14 12 9 5 3 2 1 1 1 3 7 10 6 7 7 6 9 7 8 8 10 6 6 6 7 8 7 7 7 6 6 5 4 3 0 2
6 8 9 8 9 11 11 14 13 10 8 6 5 7 4 2 2 5 9 2 5 5 5 4 4 5 5 7 6 5 7 7 6 8 8 8 6 5 5 6 4 2 2
7 8 8 7 5 9 10 15 13 11 11 11 8 5 5 3 4 4 9 4 4 5 3 1 3 2 2 2 1 4 4 6 10 7 6 6 6 7 7 4 4 3 3
5 6 7 6 3 7 11 14 15 14 15 10 7 8 9 6 5 4 7 6 10 5 2 2 1 1 3 2 2 3 8 9 4 1 2 3 3 4 5 6 4 3 6
3 3 3 4 2 4 7 10 13 16 14 12 10 9 7 6 7 6 7 7 6 3 2 1 2 4 8 5 4 6 7 4 0 1 1 2 2 3 6 9 8 8 11
0 1 2 3 2 0 3 5 7 10 10 8 8 8 8 7 5 4 4 4 4 2 2 1 3 5 4 3 7 4 2 3 3 1 1 1 2 2 2 1 2 2 2
3 3 2 2 2 2 2 2 3 5 6 6 7 7 6 6 6 6 5 3 3 4 5 8 6 1 1 1 1 1 2 2 1 1 1 1 1 1 1 2 2 2 2
6 6 5 5 5 5 5 3 2 2 3 4 5 5 5 5 5 5 5 5 6 6 3 1 4 3 2 2 2 2 2 1 1 0 1 1 1 1 1 2 2 1 2
8 8 8 8 7 8 8 7 5 4 4 3 3 3 3 4 5 6 6 5 4 6 2 4 4 4 3 3 3 4 4 4 4 1 2 1 1 2 2 2 2 2 3
9 12 7 6 5 5 4 4 4 5 5 3 3 3 5 6 6 6 5 4 1 2 1 5 5 5 4 4 4 4 4 3 3 3 3 2 2 3 3 3 3 3 4
10 8 8 8 7 7 6 5 4 3 3 2 2 1 3 4 5 5 5 4 3 5 5 5 5 5 5 6 6 5 6 5 7 6 4 4 4 4 5 5 6 6 6
11 14 11 9 8 7 6 6 5 4 3 0 0 2 3 3 3 4 6 4 5 6 6 7 7 7 7 8 7 6 6 7 7 8 6 7 7 6 6 7 6 7 6
11 8 10 7 6 5 5 4 4 4 3 2 1 6 8 5 6 6 6 7 7 7 8 9 9 10 9 9 9 8 7 8 10 9 9 10 9 9 8 8 8 8 8
8 6 5 4 3 3 2 2 3 3 3 3 3 7 7 9 5 7 7 9 9 9 10 10 9 10 11 11 10 11 10 10 10 10 11 12 12 11 10 10 10 10 10
6 5 3 2 1 5 3 3 5 6 6 5 5 6 6 4 7 8 9 11 11 11 12 12 12 11 11 12 12 13 12 12 11 12 13 13 13 13 13 12 11 12 12
5 4 3 4 3 5 7 9 8 10 11 10 9 8 8 9 10 11 12 12 13 13 14 13 12 11 11 12 12 13 13 13 13 13 14 16 15 15 15 16 14 14 15
4 4 5 5 4 6 7 7 9 10 10 10 11 10 10 11 13 14 15 15 15 16 17 16 15 15 15 14 15 14 17 17 18 19 20 13 15 16 17 16 15 15 16
2 2 2 3 6 6 8 10 8 8 8 8 9 10 12 14 15 17 16 17 19 21 19 19 20 19 20 18 18 18 22 23 21 20 19 15 17 17 17 17 17 18 17

GFSGL_850_spd_024.txt.gz
Wind_Speed
9 7 5 4 1 3 4 9 7 10 11 12 14 15 13 10 10 7 4 4 2 2 2 2 3 4 7 9 11 12 14 13 14 13 12 15 13 10 11 8 11 10 5
10 6 6 5 2 3 3 5 6 10 10 12 13 14 16 15 12 10 8 6 5 5 5 3 2 0 4 6 9 10 8 8 8 9 7 10 11 8 6 6 6 4 7
9 7 6 5 2 3 2 4 7 8 9 12 14 14 14 12 12 12 10 9 8 7 6 3 2 1 2 5 5 6 7 7 8 8 8 7 5 3 5 2 4 6 7
10 7 5 4 3 4 2 1 4 6 7 9 12 11 10 10 13 13 12 12 11 9 8 6 6 6 6 6 5 3 0 1 1 1 3 4 4 7 2 4 4 3 4
9 8 7 6 8 7 2 3 1 3 7 9 9 7 7 9 11 11 12 12 12 12 12 11 11 10 10 9 7 7 7 7 7 6 6 6 5 2 1 3 2 1 2
7 5 5 8 10 8 5 4 1 4 6 6 7 5 8 10 9 9 10 11 10 11 11 12 13 13 11 9 7 6 5 5 3 3 5 2 2 1 1 1 1 1 2
6 7 6 9 11 8 8 7 5 2 4 3 4 4 7 8 8 9 12 10 10 11 12 11 9 12 10 10 8 7 6 5 3 1 3 3 2 3 3 3 4 2 3
8 12 11 10 7 9 9 9 9 5 2 2 1 3 5 7 8 9 11 9 8 6 7 6 7 7 7 8 9 9 9 9 10 9 7 7 6 9 9 10 10 7 8
8 13 13 19 15 9 14 12 10 7 4 3 2 2 4 5 7 9 7 3 3 2 3 4 6 6 8 6 7 6 7 9 9 9 8 8 7 6 4 6 7 5 4
13 12 8 6 5 8 12 13 8 7 6 7 7 3 1 3 6 7 5 3 8 6 2 1 3 4 5 5 5 5 5 6 8 12 13 12 8 1 5 6 6 5 5
8 5 5 3 2 7 8 10 8 7 7 9 7 5 5 4 4 7 7 5 6 6 4 2 2 1 1 2 1 1 4 10 11 9 10 11 7 11 6 3 6 5 5
3 2 3 2 1 6 8 9 10 10 9 9 8 7 5 5 5 6 8 5 9 9 7 2 1 2 1 1 1 4 8 7 6 5 1 1 0 6 9 10 8 4 3
1 2 2 3 2 4 8 8 8 11 11 9 8 6 6 5 6 6 5 7 9 10 5 2 1 2 3 5 6 6 6 5 3 1 1 2 5 7 7 9 10 10 8
1 2 3 3 4 5 3 2 5 8 10 8 8 7 6 5 4 4 4 2 3 2 1 3 5 7 10 8 6 5 3 3 3 3 1 1 3 3 2 2 4 8 7
3 4 4 5 6 5 5 4 2 1 3 4 4 4 4 3 2 2 1 2 3 5 6 7 7 7 6 5 4 3 4 3 1 0 0 1 2 3 4 3 2 1 2
8 7 7 7 9 9 8 7 5 3 2 2 2 3 2 2 3 2 2 2 4 5 3 5 4 3 2 2 3 4 6 1 3 1 2 2 2 5 2 1 2 2 1
8 11 11 9 10 12 13 13 12 7 5 3 1 2 3 3 3 3 4 4 3 3 4 5 3 2 3 4 4 4 6 7 7 3 4 3 4 4 1 1 3 2 4
11 11 7 5 5 6 7 7 10 11 9 6 3 2 2 2 2 3 3 5 6 5 4 5 2 3 4 5 4 5 7 10 5 5 5 5 4 4 3 5 6 6 6
11 8 9 9 8 8 7 6 5 4 3 8 9 6 5 2 1 1 2 2 1 4 4 5 6 6 6 6 8 10 12 10 9 8 8 4 5 6 6 7 7 10 10
11 11 11 10 9 7 7 6 5 5 4 4 4 1 9 7 4 5 2 3 4 5 5 5 8 10 10 12 14 13 8 10 8 8 8 6 8 9 7 7 7 9 9
10 8 11 7 6 6 5 5 4 4 3 3 2 3 9 9 6 10 6 7 4 6 7 7 8 9 10 12 14 12 8 8 10 11 11 10 11 11 11 9 9 10 10
7 6 4 6 4 3 2 1 0 1 2 2 5 6 8 11 4 3 5 7 8 8 9 12 9 9 10 11 13 13 10 12 10 10 12 12 13 12 13 12 12 13 13
4 5 3 3 1 3 5 5 7 3 4 6 5 7 10 6 4 4 6 8 8 9 11 14 15 15 12 10 13 16 16 14 13 13 11 11 12 13 15 16 16 15 15
4 3 2 1 4 4 6 8 6 8 8 9 9 6 5 5 8 8 9 11 13 13 14 17 16 13 13 15 15 13 16 16 14 14 17 19 19 20 19 17 19 21 19
0 2 5 4 2 4 5 7 11 8 9 6 8 9 13 12 12 14 14 12 13 12 14 14 12 18 20 19 19 18 18 20 20 19 20 23 26 24 20 22 21 17 17
3 3 5 1 3 4 6 9 9 7 7 7 10 8 11 9 10 12 10 5 7 10 13 16 21 19 16 21 19 22 24 23 25 22 19 20 22 22 20 20 20 21 22

GFSGL_850_spd_027.txt.gz
Wind_Speed
5 8 7 4 2 4 6 10 7 6 10 13 14 14 14 11 11 10 8 8 5 5 4 5 4 1 4 9 11 10 11 8 8 5 8 6 3 0 1 1 2 4 4
7 5 8 5 0 4 6 7 7 11 11 13 11 13 13 14 13 12 12 10 9 9 9 6 5 1 3 4 7 8 8 9 7 8 7 6 2 2 1 0 2 2 2
11 7 8 4 1 7 4 8 6 7 8 11 11 12 14 13 15 15 13 11 11 11 10 7 7 6 3 1 2 3 4 6 6 7 9 7 5 6 6 7 5 3 3
9 11 9 5 3 7 5 4 3 5 6 9 10 12 11 12 14 15 14 14 13 12 11 9 8 7 7 6 5 4 4 2 1 3 6 8 8 9 5 3 4 5 5
10 8 6 7 5 7 6 4 3 2 7 5 6 9 9 10 13 12 11 11 11 11 11 10 10 10 10 9 8 8 8 7 7 8 9 10 9 5 3 1 2 3 4
12 8 8 8 8 8 8 4 1 3 4 1 5 5 6 8 9 9 10 10 10 12 11 10 11 11 10 9 7 5 5 5 5 4 7 3 3 1 1 2 3 1 1
14 12 10 11 8 8 9 5 2 2 4 2 2 4 5 7 7 8 8 8 9 9 8 9 8 12 11 10 9 9 7 6 5 5 6 4 3 3 4 4 5 3 4
13 14 14 13 10 11 9 10 6 4 4 2 3 4 4 5 5 4 7 9 6 5 4 5 5 7 9 11 9 8 9 9 10 8 7 8 7 8 9 10 9 7 7
14 13 12 13 13 10 7 10 8 4 4 4 2 5 5 6 6 4 3 6 4 2 4 5 4 4 7 9 7 6 7 10 11 10 8 7 4 2 2 4 1 3 2
10 7 8 6 5 10 8 10 6 5 4 8 6 3 5 6 7 4 2 2 5 5 3 3 3 2 3 4 6 8 6 12 13 13 12 7 8 9 3 2 1 3 7
8 6 3 2 4 8 8 8 8 5 7 8 8 6 6 6 7 6 6 2 4 4 6 4 1 0 1 2 2 2 5 7 5 4 5 2 5 10 8 2 5 2 2
5 2 1 1 3 8 8 9 10 10 11 8 9 7 6 6 6 7 6 4 6 7 7 7 2 2 1 1 1 5 5 3 2 6 6 1 8 10 6 11 11 8 6
2 2 3 3 5 8 8 9 10 10 15 9 6 5 2 4 6 6 6 7 9 9 6 1 2 4 4 5 6 5 3 1 1 5 1 3 6 5 4 6 7 7 6
3 4 5 5 6 8 8 8 9 12 10 8 6 6 5 4 3 3 3 3 2 1 1 3 6 8 8 7 5 4 3 1 1 2 2 3 3 4 5 3 5 4 6
7 8 8 8 8 8 9 7 5 4 5 5 4 3 3 3 3 3 2 1 2 5 7 8 7 5 3 1 3 6 6 2 2 3 3 2 1 3 4 5 5 4 4
11 11 11 11 12 12 11 9 7 5 3 1 2 3 3 2 2 2 1 3 6 7 5 3 2 3 4 3 3 3 5 4 7 8 7 6 6 5 6 3 2 3 2
11 14 16 16 17 17 17 17 15 13 9 5 3 1 0 1 2 2 3 3 4 4 5 5 4 3 3 4 5 6 7 5 6 10 9 6 6 6 2 2 4 5 6
15 12 11 10 11 12 11 11 11 14 16 14 9 10 6 3 2 2 3 7 10 8 4 4 2 6 8 9 9 9 8 9 11 7 8 9 9 6 7 5 6 8 10
11 11 11 9 8 10 12 10 7 10 10 12 11 15 15 7 5 4 2 5 3 4 3 3 3 11 11 12 11 13 15 16 16 11 9 9 6 5 9 8 7 10 9
13 9 14 14 13 11 7 7 6 6 6 7 9 11 15 8 8 10 9 6 1 2 6 6 7 7 9 10 12 14 13 14 8 6 7 8 9 7 11 10 9 10 8
15 16 10 7 11 6 3 2 4 3 0 5 6 7 8 12 3 3 7 6 1 1 5 9 11 13 13 11 11 14 13 12 10 11 8 11 8 10 12 11 13 12 11
17 13 10 7 9 6 1 1 2 5 6 7 5 4 4 7 9 3 2 3 5 6 13 14 15 14 13 15 17 12 12 16 13 10 9 13 14 13 15 13 13 12 14
5 7 7 8 6 2 5 7 3 3 2 7 2 4 5 4 6 6 4 4 8 10 11 13 16 16 16 15 11 12 16 15 16 16 15 16 12 11 12 13 14 16 16
6 11 10 7 3 1 3 4 4 5 6 5 8 5 4 4 4 3 3 7 11 12 16 12 12 14 13 13 16 17 18 17 17 18 17 18 18 20 21 22 23 24 20
5 8 6 7 7 5 5 5 8 6 4 4 5 6 7 5 7 10 11 10 5 5 8 11 9 10 15 16 18 18 19 20 19 21 22 23 22 20 21 21 22 22 24
5 5 8 9 8 7 6 6 6 8 10 8 2 3 4 3 3 2 3 3 4 3 6 8 11 13 16 19 23 25 26 23 26 26 27 27 29 26 26 26 24 21 22

GFSGL_850_spd_030.txt.gz
Wind_Speed
6 9 7 5 5 4 6 6 5 9 11 10 10 10 9 8 8 7 7 7 5 5 5 4 4 3 4 6 8 10 7 10 10 7 8 7 6 4 4 4 4 5 5
7 9 9 4 2 4 5 7 8 10 10 10 10 11 10 8 8 8 9 8 8 8 8 4 2 2 2 3 5 9 8 7 10 12 12 11 7 6 5 6 6 6 4
13 10 10 6 1 3 3 7 9 8 8 9 10 10 11 11 11 11 10 10 10 10 9 8 8 6 3 1 3 5 7 7 8 11 15 12 10 9 9 8 5 3 3
16 13 11 5 4 2 1 4 6 6 5 7 9 9 10 11 12 12 12 12 11 11 11 10 9 7 7 6 5 5 4 4 6 9 12 10 11 11 8 5 4 3 2
15 15 8 10 10 9 3 2 2 3 3 4 6 6 7 7 11 10 10 10 10 11 11 10 10 10 10 9 8 8 8 7 6 10 10 11 12 10 6 5 5 4 3
17 13 12 12 12 9 3 2 1 1 1 1 3 3 4 6 9 10 10 9 10 10 10 12 12 11 11 9 8 7 7 7 6 8 9 8 8 6 5 6 6 4 3
15 16 15 13 12 11 4 2 2 2 3 2 1 2 1 3 7 9 10 9 9 9 10 11 11 12 11 11 10 8 7 6 5 6 6 6 6 5 4 8 6 4 2
19 15 17 16 16 13 7 7 6 4 5 3 3 4 3 2 4 6 7 8 6 5 6 6 8 9 10 11 10 9 9 9 9 8 5 5 4 4 6 6 7 7 8
16 15 14 15 16 15 12 10 11 8 5 3 3 6 6 4 2 2 4 7 6 3 4 4 4 5 6 8 8 7 7 9 10 8 7 7 5 1 3 5 4 5 5
16 13 9 9 10 13 12 8 13 6 6 5 4 4 7 7 5 3 2 3 6 6 5 2 1 2 3 4 5 6 4 8 9 6 7 6 7 11 4 4 4 5 8
11 8 8 6 6 8 12 12 13 5 7 6 7 5 7 8 8 6 6 3 2 3 6 5 2 2 2 2 2 2 3 4 4 2 1 2 6 12 8 1 5 3 6
9 7 6 6 6 11 11 13 10 8 8 9 8 9 8 8 9 8 7 4 3 3 5 7 2 2 0 1 2 2 4 3 4 4 3 2 6 7 4 7 8 6 3
8 7 7 7 8 11 12 11 10 8 10 14 9 6 7 8 8 9 9 7 6 7 7 2 2 2 3 4 2 0 3 3 1 3 2 2 5 5 4 2 1 2 3
8 8 8 7 8 10 10 11 10 13 14 10 8 7 6 5 6 6 5 5 4 3 3 4 7 7 6 5 7 8 5 2 1 1 1 3 3 3 4 5 3 3 2
9 9 9 9 9 11 11 10 10 10 9 8 8 6 5 5 5 5 4 4 4 6 7 7 5 3 0 0 2 3 4 5 6 7 8 7 6 5 5 6 6 4 2
12 13 12 12 12 10 8 7 7 6 5 5 4 3 3 4 5 4 3 4 7 9 7 3 2 1 2 1 2 2 4 6 6 8 11 12 11 10 10 8 6 7 5
15 18 18 18 17 16 17 16 12 8 6 5 4 2 1 1 2 2 4 5 8 6 5 3 4 1 4 8 12 11 9 8 10 12 13 10 11 10 9 7 6 7 9
19 18 17 17 15 14 14 15 14 16 16 17 13 9 5 4 3 3 4 7 8 7 4 5 2 2 8 10 11 9 10 12 15 13 11 11 11 12 8 8 9 8 7
14 14 15 13 13 11 11 12 13 13 13 15 18 17 11 9 6 5 5 11 6 5 3 2 1 3 6 10 10 10 10 12 14 11 10 10 12 9 10 8 11 9 8
15 13 12 14 11 9 9 8 8 9 10 10 11 13 12 7 9 11 10 7 5 3 1 3 6 6 9 12 11 9 10 12 14 11 9 9 8 7 9 11 12 12 12
11 14 15 11 8 7 4 2 2 2 1 3 3 4 6 7 4 4 4 5 4 4 3 4 9 10 10 12 13 15 15 11 14 13 13 10 10 10 11 12 13 13 13
20 14 15 15 10 4 5 2 5 10 10 8 5 2 2 3 4 0 1 2 5 5 8 8 10 12 13 11 13 14 12 12 14 14 14 12 14 14 14 15 15 15 16
16 12 14 14 11 5 3 2 5 1 1 1 3 6 6 3 1 1 2 5 8 9 10 5 9 8 8 9 9 12 13 14 13 13 15 17 18 16 18 18 18 19 21
15 15 15 14 11 7 6 5 4 1 2 4 2 5 4 5 8 8 8 8 11 10 9 10 12 14 15 15 16 17 19 20 19 17 19 20 20 22 22 21 21 21 23
15 19 17 13 10 8 7 8 9 6 2 1 8 6 3 3 3 6 6 6 8 11 14 15 14 15 17 18 21 19 19 21 23 27 29 26 28 28 26 25 25 24 23
9 8 7 9 11 11 11 10 4 2 2 6 5 3 4 5 4 4 5 6 8 9 10 12 13 14 16 17 19 21 23 24 24 25 26 28 28 26 30 31 31 32 31

GFSGL_850_spd_033.txt.gz
Wind_Speed
8 6 7 5 4 4 6 4 5 7 9 10 11 10 9 8 8 7 7 6 5 4 5 5 3 3 2 5 8 10 8 12 14 12 12 9 8 7 7 8 10 9 7
9 8 9 5 3 4 5 6 6 8 9 10 11 11 11 10 9 8 8 9 8 8 8 5 3 3 3 3 4 7 7 8 11 14 12 8 8 8 7 8 8 7 6
10 9 9 5 2 1 4 6 6 7 8 10 10 12 12 11 12 12 10 10 10 9 8 7 7 6 4 2 3 4 5 7 9 11 13 10 10 9 7 9 6 3 2
13 9 8 7 8 3 1 3 3 5 6 7 8 10 11 10 11 11 11 11 10 10 10 10 10 9 8 8 7 5 3 1 4 7 9 11 10 9 8 6 4 2 2
15 9 8 12 11 7 3 1 2 3 3 5 6 7 8 8 10 10 10 11 12 12 12 12 11 12 11 11 9 10 9 6 4 6 7 9 10 9 7 5 4 4 3
11 8 10 15 15 11 4 1 1 2 3 4 5 5 5 6 10 11 11 11 11 11 11 12 11 11 11 10 9 9 9 9 7 6 4 4 4 5 5 6 5 3 6
14 9 10 17 18 14 6 5 2 3 4 3 3 2 2 4 7 9 10 10 10 10 11 12 11 12 12 11 10 8 7 6 6 6 3 2 3 4 5 6 6 4 5
11 14 16 19 20 17 11 7 8 6 4 5 4 2 2 1 4 7 9 10 8 8 8 9 10 11 11 11 9 7 6 6 6 5 3 4 2 3 4 4 5 5 5
10 15 16 17 19 18 12 9 12 9 4 4 3 4 5 2 1 3 6 9 7 6 6 6 6 7 8 9 8 7 5 5 7 6 6 7 6 4 3 2 2 3 5
16 19 21 21 19 17 12 13 12 14 8 4 3 4 5 5 3 1 2 5 6 7 7 5 4 4 3 5 6 5 3 4 5 5 5 5 7 11 7 6 7 7 9
24 24 19 15 13 14 14 15 13 12 8 5 4 3 6 7 7 5 3 1 2 3 5 7 5 5 5 5 3 3 2 2 3 4 4 5 9 13 10 5 6 7 7
22 18 12 10 9 10 14 15 14 5 5 8 7 5 7 8 8 8 4 5 5 3 4 6 5 4 2 2 3 3 3 5 6 6 4 3 7 7 7 5 5 4 1
16 11 8 11 12 12 13 13 13 9 8 10 11 6 5 7 9 8 7 7 8 4 5 2 0 1 2 3 3 4 6 5 1 2 1 2 4 4 5 4 4 3 3
9 10 10 11 11 13 14 12 11 9 9 10 9 8 7 7 7 7 7 8 6 3 3 2 4 5 3 3 4 6 7 4 3 3 4 6 6 5 4 6 7 6 7
7 9 9 9 10 11 11 12 11 11 10 9 8 7 6 6 5 5 4 4 3 4 6 6 4 1 3 3 4 4 4 4 5 6 6 8 9 9 8 7 7 7 7
8 8 8 8 9 9 8 9 9 8 7 7 6 5 4 4 5 5 4 4 5 7 6 4 1 2 6 6 6 7 8 7 6 7 9 12 11 9 9 8 10 9 7
10 11 12 12 11 9 9 7 5 7 6 5 6 6 5 4 4 5 4 5 7 7 4 3 3 3 6 7 9 8 7 7 9 11 11 10 8 8 10 10 9 8 9
15 15 16 17 16 14 12 12 14 15 13 10 6 4 4 4 4 4 4 6 6 6 3 3 0 3 5 6 9 9 7 9 12 12 9 9 9 12 12 8 8 8 9
17 16 15 15 14 12 13 15 16 18 18 17 16 13 10 6 4 4 7 10 6 3 2 1 2 5 5 7 8 8 8 10 12 13 9 7 9 13 10 9 9 10 10
16 15 14 14 13 12 12 15 15 14 12 11 12 12 10 8 8 8 8 7 5 2 1 1 3 5 6 7 9 11 11 10 10 10 12 10 8 11 10 10 11 12 11
17 16 16 14 12 9 9 8 7 6 6 4 4 5 5 5 4 4 4 4 3 3 4 5 5 6 8 9 9 10 10 9 10 11 11 11 10 12 12 14 15 14 14
15 18 17 14 13 10 8 5 3 3 5 5 6 7 5 3 4 5 5 5 6 9 12 13 12 11 10 10 10 13 13 12 12 12 12 12 13 14 15 15 16 16 17
18 16 13 14 12 9 11 9 7 3 3 4 6 10 11 8 6 6 8 8 9 10 11 12 13 13 14 15 15 16 17 18 19 20 21 19 18 19 20 21 20 19 19
20 17 17 18 14 11 10 11 8 6 5 5 5 9 10 12 13 14 13 12 12 14 14 15 16 17 18 19 19 19 20 22 22 21 22 24 26 27 25 24 24 24 23
17 16 17 16 17 13 12 10 9 10 8 6 6 9 12 10 10 11 11 10 11 12 13 14 15 15 16 19 21 21 23 23 22 23 25 27 27 28 29 30 32 30 28
15 18 19 17 14 13 11 8 11 10 6 4 4 8 11 9 8 8 7 8 8 10 11 13 15 17 19 20 21 23 24 26 28 29 29 30 30 31 31 29 29 31 29

GFSGL_850_spd_036.txt.gz
Wind_Speed
10 7 7 7 7 8 7 7 9 10 10 11 12 10 9 8 9 8 9 9 8 6 5 5 3 2 2 4 7 8 8 11 13 11 11 10 6 5 6 8 8 11 7
22 6 7 6 6 7 7 7 9 10 11 12 13 12 11 11 10 10 10 10 9 8 8 6 4 4 3 1 2 4 5 4 9 11 10 11 7 6 6 7 8 8 5
11 7 6 3 3 5 5 6 8 8 10 11 12 12 12 13 13 13 12 12 12 11 10 8 10 9 6 3 0 1 2 4 7 8 10 10 5 6 6 5 6 3 1
10 4 5 5 3 1 2 3 5 6 8 9 9 10 10 10 11 12 12 12 12 12 13 13 12 11 11 10 7 4 2 1 3 4 5 6 6 5 5 3 3 2 1
11 7 8 7 6 6 1 1 1 3 6 8 7 8 8 9 10 12 12 12 13 13 14 13 13 12 11 11 10 9 8 7 6 4 2 4 4 6 3 2 4 2 2
14 11 9 7 6 5 4 3 2 1 3 6 6 5 5 6 10 11 12 12 12 12 13 13 13 12 13 12 11 10 10 9 9 6 3 2 2 1 5 5 3 2 6
16 14 11 10 8 7 7 5 5 1 2 4 4 3 3 4 8 10 10 9 9 9 11 12 11 12 12 12 11 10 9 9 8 7 4 2 2 4 5 6 4 4 6
20 18 16 14 7 8 10 9 6 2 2 1 2 2 1 2 5 7 9 8 8 8 9 9 9 10 10 11 10 9 9 7 7 6 4 5 3 4 5 5 5 6 6
20 16 15 14 8 9 12 11 5 6 6 3 3 1 2 1 2 4 7 8 7 7 7 7 7 8 9 10 9 9 9 8 9 9 9 9 9 8 5 4 3 4 5
16 13 12 12 12 13 10 10 8 9 8 5 4 2 3 3 2 0 2 5 5 7 7 6 6 6 6 8 9 8 7 7 7 6 7 8 10 12 9 6 6 7 8
16 17 11 11 12 11 11 16 11 12 10 8 5 2 3 4 4 3 3 2 1 2 4 6 6 7 7 7 7 7 6 6 7 6 6 8 11 14 12 10 8 6 7
15 17 16 13 9 7 7 11 15 11 11 10 6 5 3 5 4 5 6 7 5 3 2 4 3 4 5 7 8 8 8 7 7 7 5 5 8 11 11 9 10 8 6
15 13 12 9 6 5 8 11 14 10 11 8 7 8 4 3 5 5 5 5 6 5 4 2 3 3 5 8 10 10 10 8 6 5 5 6 9 9 8 9 9 9 8
13 10 10 8 8 10 11 11 10 10 9 9 8 7 4 5 4 4 4 5 5 4 2 1 3 4 5 7 9 9 9 8 7 7 7 8 9 9 10 10 10 10 9
9 9 8 8 9 12 12 15 11 12 9 10 9 7 6 5 3 3 2 2 3 3 5 5 4 3 5 5 6 7 7 7 7 6 7 9 11 10 9 10 11 12 11
8 8 8 9 10 11 11 11 11 9 9 7 7 4 5 5 4 4 4 4 5 6 6 4 3 4 5 6 6 5 5 5 6 8 10 11 10 9 8 10 11 12 11
7 8 9 10 11 10 9 9 8 9 8 7 7 6 6 5 4 4 4 5 7 6 4 4 6 3 5 6 8 7 5 6 8 11 9 8 8 9 11 11 10 10 9
12 13 13 13 13 12 10 9 10 9 7 6 5 4 4 3 3 4 4 6 7 5 4 5 3 2 3 4 6 5 5 7 9 12 11 10 7 9 13 10 8 9 9
16 18 18 16 15 14 16 17 17 16 15 13 11 10 8 6 5 5 7 9 7 6 5 3 2 1 2 4 5 6 6 7 8 9 10 10 10 10 11 8 9 11 12
19 18 17 15 15 16 17 17 16 15 15 14 12 11 10 9 7 7 11 7 6 5 4 5 2 1 0 1 2 4 6 6 6 7 8 9 10 9 10 11 12 14 13
19 18 17 16 15 15 16 16 12 9 8 7 6 5 5 6 7 8 8 7 6 6 6 6 6 5 6 6 8 8 7 6 7 8 10 11 11 11 11 11 13 14 15
18 17 18 16 15 15 14 11 9 6 6 7 7 7 6 4 6 7 7 8 9 9 10 11 13 14 14 13 14 15 14 14 14 14 15 15 17 17 17 18 18 19 18
19 19 19 17 15 14 13 10 8 6 4 7 9 11 14 13 11 9 11 12 11 11 11 12 15 17 18 18 18 19 20 19 19 20 20 20 21 21 21 23 24 23 22
19 20 18 16 17 14 12 11 12 9 8 9 9 11 12 15 17 16 13 14 13 12 14 15 14 15 16 17 18 19 20 20 20 20 21 22 23 24 26 26 27 27 26
19 19 16 15 16 15 12 11 12 10 11 10 9 10 9 6 9 9 10 11 9 9 10 11 12 13 15 17 19 20 20 20 22 24 26 28 29 28 28 27 28 27 26
17 16 14 16 16 15 13 13 13 10 11 8 6 7 9 14 14 12 9 8 9 10 11 12 14 16 18 19 21 23 24 26 26 24 22 22 21 21 20 21 21 21 22

GFSGL_850_spd_039.txt.gz
Wind_Speed
13 10 10 9 9 10 11 10 11 11 11 11 11 10 9 9 10 10 9 9 8 7 6 6 4 2 0 2 3 4 6 8 10 9 10 7 7 2 3 5 6 7 6
17 12 10 8 8 9 10 10 12 11 11 13 12 11 11 12 12 12 11 11 9 9 9 7 5 5 4 3 1 2 4 4 6 8 9 10 7 1 3 5 5 5 3
19 11 11 7 5 6 7 9 10 10 11 11 11 11 11 12 12 13 12 12 12 12 11 10 10 9 8 6 2 1 1 2 3 4 7 10 4 5 4 3 4 2 1
15 10 10 9 6 4 4 6 8 9 9 9 9 10 10 11 12 13 13 14 14 14 14 13 12 12 12 11 9 6 4 2 2 3 6 8 5 5 2 2 1 1 1
15 8 8 8 7 3 4 5 6 7 7 8 8 8 9 9 10 11 12 12 13 13 14 14 13 13 12 12 11 11 10 10 7 5 4 4 1 0 0 1 3 1 3
17 10 8 9 8 6 6 6 6 6 5 5 6 6 6 7 8 10 11 11 12 12 13 14 13 13 14 13 13 13 12 11 9 6 4 5 5 4 5 5 2 2 5
20 13 11 8 7 6 6 6 7 6 3 3 3 3 4 5 7 8 8 9 9 10 11 12 12 12 12 13 13 12 10 9 8 7 5 5 4 4 6 6 4 4 5
18 13 11 8 9 8 8 7 8 5 4 2 2 2 2 3 5 7 7 8 8 8 8 9 9 10 10 11 10 10 10 9 10 9 9 8 5 5 5 5 5 6 5
14 9 8 9 12 13 10 8 10 6 5 2 3 3 3 3 3 4 6 6 7 7 7 7 6 7 8 10 9 9 9 10 10 10 9 9 10 9 6 3 4 3 4
10 11 16 14 16 13 11 11 12 7 6 4 3 3 3 3 3 2 2 4 5 6 6 6 6 6 6 7 8 7 7 7 6 6 7 8 10 12 10 8 5 4 6
12 13 16 15 14 12 12 13 15 12 10 6 7 4 3 3 3 4 4 3 2 2 3 4 5 5 6 7 8 7 5 3 3 4 4 6 9 11 11 10 9 8 4
18 13 12 16 13 12 13 17 17 12 12 10 7 5 2 2 2 4 6 6 5 1 0 1 2 6 8 9 8 8 6 5 4 2 2 4 6 7 8 10 10 8 6
10 9 9 11 9 7 9 15 17 16 9 12 7 6 5 4 4 5 5 6 5 3 2 2 4 7 7 7 8 9 9 8 6 5 4 5 7 8 8 9 10 11 8
9 9 9 11 7 9 11 12 16 13 12 9 8 7 7 5 4 5 5 5 4 4 4 4 7 6 5 5 7 7 7 6 6 6 5 6 8 8 7 9 7 8 8
9 11 12 11 10 12 13 14 12 10 9 8 9 7 7 6 5 4 4 5 5 5 6 8 7 4 3 3 5 5 6 5 5 6 6 7 8 8 8 8 8 8 9
10 10 10 12 13 13 13 15 16 11 12 9 11 8 7 5 6 6 6 7 8 9 9 7 7 5 3 4 4 5 5 6 7 8 8 7 7 7 7 9 10 9 9
9 10 12 13 14 13 12 11 12 11 9 7 6 6 8 7 7 7 7 7 9 9 8 7 7 4 3 3 4 5 4 6 8 8 9 8 6 7 9 10 8 8 9
9 11 12 13 14 14 14 14 13 11 10 9 8 7 8 7 7 7 7 8 9 9 9 8 6 4 2 1 2 2 3 5 6 7 7 8 8 8 8 9 7 8 9
12 13 15 15 15 14 14 14 13 12 11 10 9 9 8 7 7 8 9 10 8 8 9 8 6 4 2 0 1 2 3 4 6 6 7 7 7 7 8 8 9 11 12
15 17 18 16 15 17 18 18 17 17 16 15 13 11 10 9 8 10 12 10 10 9 9 9 7 5 4 3 3 3 5 6 7 7 7 8 9 9 9 10 11 12 12
20 20 18 16 17 19 19 18 17 15 13 12 10 9 8 8 7 10 11 9 9 8 9 9 8 8 8 8 9 10 10 9 10 11 12 11 13 13 13 14 15 15 15
19 20 19 18 18 20 19 17 15 13 11 9 9 8 7 6 7 8 8 9 10 10 11 11 12 14 16 17 16 16 16 17 18 18 18 18 17 17 15 15 17 18 19
20 20 19 20 20 21 19 16 14 11 8 9 12 13 12 13 13 13 14 14 12 13 13 14 14 15 18 19 20 19 19 19 20 21 20 21 21 16 18 16 18 20 22
21 21 22 21 22 21 18 15 12 9 7 9 9 10 11 14 19 18 16 14 14 15 15 14 12 10 11 13 14 16 18 18 18 19 21 21 22 22 21 19 18 18 19
19 20 22 21 19 18 17 13 10 11 10 10 10 10 11 11 10 10 15 16 16 13 11 10 10 12 14 15 17 19 19 19 21 22 23 22 21 19 18 16 14 15 14
20 20 22 16 17 18 18 16 14 14 10 7 11 13 11 11 13 14 15 16 11 10 10 11 13 15 17 19 21 22 23 22 20 17 15 15 15 15 15 14 14 12 11

GFSGL_850_spd_042.txt.gz
Wind_Speed
10 7 7 7 6 7 6 6 9 10 10 9 8 7 7 7 7 7 7 7 7 6 6 6 6 5 5 4 2 3 4 6 6 10 12 10 7 3 1 1 3 3 3
12 10 9 9 7 6 7 8 8 9 9 10 11 10 9 9 9 8 8 8 9 9 9 8 10 7 7 5 6 3 2 3 4 7 15 11 9 6 3 0 2 2 1
16 11 9 9 9 7 6 6 9 8 9 9 10 9 9 9 9 10 10 11 12 10 10 11 11 10 10 8 5 4 3 5 3 5 12 10 8 5 2 1 2 2 2
15 10 11 10 9 7 6 6 6 8 8 8 9 9 9 9 10 10 11 12 12 12 12 12 13 12 13 14 11 10 8 7 5 6 8 9 4 3 1 1 2 2 3
16 14 13 12 10 8 7 6 6 7 7 8 8 8 8 7 7 9 10 10 11 12 12 13 14 15 15 13 11 13 12 11 10 8 7 5 6 4 3 3 3 3 3
18 13 12 13 11 9 8 7 8 8 7 8 7 7 7 5 7 8 9 9 10 11 12 13 13 13 13 13 13 13 12 12 10 8 8 8 7 5 4 4 3 3 4
18 13 12 12 12 11 10 9 10 9 8 8 7 7 6 5 6 7 7 8 9 10 10 11 11 11 12 12 12 11 11 10 10 9 9 8 5 4 4 4 3 3 3
15 14 11 13 10 12 10 11 13 11 8 8 8 8 6 5 6 7 7 7 7 8 8 9 9 10 10 10 10 10 11 10 12 10 10 9 7 5 4 3 3 4 4
14 14 15 11 10 11 10 10 12 12 10 8 7 8 7 7 5 5 7 6 5 5 6 6 6 6 7 7 8 8 8 9 9 8 8 8 8 7 5 3 4 6 5
18 17 14 12 10 11 11 12 13 14 11 8 7 8 8 8 6 5 7 5 5 5 5 5 4 5 6 5 6 5 5 5 4 5 6 7 9 9 8 5 4 4 5
15 19 16 17 18 14 9 10 13 16 13 11 10 8 7 7 6 6 6 5 4 5 4 3 3 5 5 7 6 4 3 2 2 3 3 4 5 7 6 7 6 6 2
21 20 16 15 15 17 13 10 15 19 14 9 11 9 8 6 5 6 6 6 5 4 3 3 4 6 6 6 7 6 5 5 1 0 1 3 4 4 5 5 6 6 4
19 17 15 15 15 14 14 16 18 19 16 13 14 10 7 6 5 5 5 4 5 5 4 4 7 8 8 6 6 7 9 4 2 2 1 2 4 5 6 7 7 10 11
12 14 14 14 12 13 12 15 18 20 16 12 13 10 8 7 6 6 7 7 7 7 5 8 9 7 7 1 5 6 3 3 3 2 2 4 5 6 5 6 6 7 7
12 12 12 11 10 12 14 16 18 19 16 14 12 11 8 8 8 8 8 7 7 7 9 11 7 4 1 0 1 2 3 4 3 4 4 5 5 5 6 7 7 7 7
9 8 8 10 12 13 15 17 16 14 15 12 12 11 11 9 7 9 9 8 10 10 9 6 5 4 3 1 2 2 3 4 4 5 5 5 5 5 7 7 8 7 7
11 10 10 11 13 15 16 16 18 18 13 13 11 10 9 7 7 10 9 10 11 13 7 7 7 5 4 3 2 3 2 1 5 4 6 7 7 6 8 8 7 7 8
11 12 11 14 13 15 14 13 12 11 11 12 12 10 10 9 9 9 9 10 11 11 8 9 8 7 5 4 2 1 0 2 3 4 5 6 6 7 7 8 8 8 10
8 10 11 13 12 11 12 11 10 11 10 10 10 10 10 10 9 10 11 11 8 8 9 9 8 7 6 4 3 2 1 1 2 4 5 6 7 8 9 9 10 11 11
10 14 13 12 13 12 12 12 12 13 12 12 10 10 11 11 9 9 10 8 9 9 9 9 8 8 7 6 4 3 3 5 5 7 7 9 9 10 12 13 14 15 15
11 12 14 11 11 12 13 14 14 14 14 12 12 12 10 9 8 9 9 9 9 9 9 9 8 7 7 7 7 7 8 9 10 11 11 12 13 14 15 16 17 17 18
13 13 13 13 13 14 15 14 14 13 12 12 11 10 10 9 7 8 10 9 9 9 10 10 10 10 10 10 10 10 11 12 11 11 11 11 14 14 15 16 18 19 20
16 16 15 14 14 15 16 15 14 13 11 11 10 9 11 9 9 10 11 11 11 10 11 14 12 13 14 16 17 15 9 9 11 14 13 12 14 16 17 19 21 21 21
17 18 18 16 15 16 17 15 14 13 11 11 11 11 13 12 12 13 14 17 16 17 15 15 14 11 15 13 12 13 14 15 16 16 19 17 15 16 16 16 16 15 16
19 19 19 18 17 17 17 15 13 12 12 12 10 9 9 10 11 13 16 19 22 20 20 20 16 15 13 13 14 17 17 19 21 23 22 17 13 14 11 11 12 13 13
19 19 21 19 19 19 17 16 15 14 13 12 11 10 12 17 17 15 15 16 16 14 15 14 14 14 14 16 19 20 23 24 22 18 15 10 9 9 10 10 11 12 12

GFSGL_850_spd_045.txt.gz
Wind_Speed
17 17 10 8 8 7 5 4 4 4 5 6 6 6 8 8 9 12 12 9 9 8 9 9 11 9 8 7 5 4 5 7 10 14 13 14 10 7 5 2 1 1 2
18 13 10 9 8 7 6 3 3 4 5 5 6 7 8 9 9 10 10 9 8 9 10 9 11 8 8 8 6 7 5 6 6 10 16 15 10 9 5 2 1 1 1
17 11 11 9 8 7 6 4 3 4 5 4 6 7 7 8 10 10 10 10 11 11 13 12 12 12 14 12 10 9 6 6 4 7 15 12 9 6 4 3 1 2 2
14 14 12 11 9 7 6 5 4 4 3 4 5 6 7 7 8 8 9 9 10 11 11 13 13 12 13 13 14 11 7 5 6 8 10 10 7 5 2 2 2 3 3
14 12 11 11 10 8 8 6 4 4 3 3 4 4 5 4 4 7 8 8 9 10 11 13 14 14 12 10 10 12 11 10 10 9 8 6 6 4 4 3 3 3 3
17 11 10 12 11 11 9 7 6 5 3 3 3 3 3 2 4 6 8 7 8 9 10 10 11 11 12 12 12 12 11 10 9 8 9 6 5 3 3 3 2 2 3
16 14 11 14 13 13 10 10 9 10 7 5 4 3 2 2 3 5 7 6 7 8 8 8 7 10 10 10 11 9 9 11 13 10 8 6 4 3 1 2 2 0 0
16 14 11 12 14 14 13 11 12 12 9 7 6 6 4 4 3 6 7 5 5 7 7 6 7 9 9 9 8 10 10 9 10 8 6 5 3 2 4 3 5 4 2
20 15 12 14 14 14 14 12 13 14 11 9 8 9 6 5 4 5 7 3 4 4 4 4 4 5 6 7 6 7 7 8 8 7 7 7 7 6 3 4 5 6 7
15 15 15 15 14 15 13 11 14 14 14 10 10 11 10 7 6 6 8 4 4 3 2 2 2 2 3 4 6 4 4 5 3 7 9 11 11 13 10 3 5 4 4
16 16 16 13 14 14 12 12 15 18 18 17 12 12 11 8 9 8 9 8 4 3 4 4 1 2 2 3 2 3 4 1 4 3 3 4 5 6 6 8 5 6 3
18 15 15 14 12 17 16 16 19 20 21 18 13 11 10 11 9 9 10 9 10 9 7 5 5 4 4 3 4 4 5 7 2 1 1 2 3 4 5 6 5 10 4
21 22 19 20 19 17 15 19 21 23 22 18 13 12 10 9 10 9 10 10 9 8 7 7 7 6 3 3 6 7 8 4 0 0 1 2 4 6 7 6 8 11 12
13 17 19 19 18 19 19 20 21 22 23 21 17 16 12 9 9 10 11 11 10 9 9 9 9 7 4 5 3 6 2 1 2 1 2 3 4 5 5 6 6 6 6
14 13 14 15 16 17 18 18 19 23 20 16 16 14 12 12 11 12 10 10 10 11 9 11 10 5 5 3 1 1 1 2 2 2 2 3 3 4 4 5 6 6 6
10 11 11 10 13 13 15 17 18 22 18 19 18 16 17 15 17 12 12 12 13 12 12 9 8 7 5 4 3 2 1 2 2 2 3 3 3 3 5 5 6 6 6
9 8 8 11 13 14 16 19 20 20 18 18 18 17 17 15 14 11 13 13 15 15 13 10 9 7 6 5 4 3 3 2 2 1 2 3 4 5 6 5 6 6 7
10 13 10 10 11 12 16 16 15 17 18 19 17 18 15 14 13 12 15 15 16 18 13 11 10 9 8 7 5 4 4 2 2 2 3 3 4 5 6 7 7 6 9
11 9 12 11 11 12 12 14 13 11 11 10 16 18 15 15 14 14 15 15 11 11 10 11 10 10 9 8 7 6 5 4 3 4 4 4 5 7 8 9 10 11 11
15 12 12 11 12 13 13 13 15 16 15 14 11 12 15 15 14 14 16 16 11 12 11 12 11 10 10 9 7 6 6 7 5 6 7 8 9 9 12 13 13 14 14
13 14 14 13 16 14 15 16 16 16 15 14 12 14 14 14 11 11 12 12 11 12 12 11 11 11 10 10 9 9 9 9 9 10 10 9 11 14 15 15 16 17 18
15 13 13 15 14 15 15 15 15 15 15 14 14 15 12 15 11 11 11 11 11 11 11 11 11 10 10 10 11 10 10 12 13 13 12 12 14 15 16 17 17 18 18
16 17 13 16 14 14 15 15 15 16 16 15 15 13 16 12 11 11 11 11 11 11 11 11 11 11 11 11 14 12 12 12 11 10 11 12 14 17 17 18 18 18 18
16 22 15 16 14 14 16 17 16 16 15 15 14 17 16 14 12 13 13 11 12 12 15 14 13 13 14 14 11 9 12 17 16 10 14 15 15 16 16 16 15 15 15
16 24 21 22 21 17 15 18 20 18 15 12 13 17 14 11 12 13 14 14 13 15 19 18 15 13 18 16 12 18 17 16 18 20 22 20 14 13 12 12 13 13 13
18 21 22 21 22 20 25 17 15 11 10 16 16 16 12 10 11 16 19 20 18 16 15 13 14 14 16 17 19 20 18 21 23 24 20 15 10 10 11 12 12 12 13

GFSGL_850_spd_048.txt.gz
Wind_Speed
9 10 9 6 4 9 7 5 3 7 7 9 9 9 9 12 11 9 10 8 9 9 10 9 8 8 11 8 6 5 7 9 9 14 10 11 11 5 4 2 1 1 2
8 10 11 7 7 9 7 5 5 7 7 7 7 7 6 6 9 7 7 9 11 14 12 10 14 7 7 8 10 8 7 6 8 13 15 14 11 8 6 2 1 2 2
13 10 12 9 7 8 8 7 5 8 6 5 6 6 5 7 8 8 10 12 11 12 11 11 12 14 17 12 9 8 7 5 5 8 14 12 9 7 4 2 1 4 2
15 11 11 11 9 8 6 5 6 7 5 4 6 6 7 6 7 8 8 10 8 14 15 15 14 14 15 14 12 12 8 6 7 7 9 9 7 6 3 3 2 2 2
16 15 14 13 10 9 7 4 5 7 5 6 5 7 5 3 5 9 5 8 7 11 13 14 15 13 10 10 11 11 12 8 9 9 8 7 5 5 4 4 4 3 3
13 15 15 16 13 11 8 9 7 6 5 7 6 4 4 2 5 7 5 6 8 10 13 13 12 12 12 12 11 9 9 10 9 10 9 7 5 6 4 3 3 1 2
17 14 16 15 16 14 11 11 11 10 7 8 8 6 2 2 3 4 7 6 7 8 10 11 5 9 8 9 8 7 7 8 8 8 9 7 6 2 1 0 2 3 3
18 20 19 15 17 15 15 11 14 11 10 8 9 8 4 4 4 5 6 5 6 5 4 6 6 6 5 8 8 8 8 7 7 5 3 3 2 3 4 3 1 1 2
15 16 15 11 13 18 17 16 13 14 12 10 11 11 9 6 6 7 7 5 3 5 2 3 4 4 5 5 6 7 7 7 7 6 6 5 7 2 4 3 3 6 12
12 15 12 15 15 17 17 15 14 15 11 11 12 11 11 8 8 7 10 8 4 2 4 3 2 2 3 4 5 5 4 5 5 8 12 13 11 10 10 2 4 3 7
15 13 14 14 12 11 9 15 13 14 12 12 13 14 13 10 10 10 13 13 8 3 2 2 2 2 3 4 3 4 5 1 6 3 4 8 8 5 9 13 5 2 2
18 17 14 11 14 15 12 12 10 11 16 15 17 17 14 13 11 13 13 13 11 11 11 9 4 4 4 3 0 1 6 8 3 2 0 3 3 4 9 10 9 11 8
17 19 19 16 14 16 15 11 13 17 18 18 21 14 13 15 15 13 14 13 13 13 11 8 6 7 5 3 4 9 8 4 3 2 2 2 4 6 6 5 8 8 9
18 20 20 20 20 20 19 18 18 19 20 21 22 15 17 12 14 14 14 13 12 11 10 9 9 8 5 2 5 4 1 4 4 2 2 1 2 3 3 6 5 5 6
11 14 15 16 16 16 17 20 20 19 19 23 22 20 20 18 16 11 13 12 13 12 11 11 11 10 7 6 6 3 2 3 2 1 1 0 1 2 2 3 4 5 5
8 10 11 13 12 14 16 16 17 19 20 24 25 20 20 17 17 16 12 11 11 12 11 11 12 10 7 9 11 6 5 7 4 2 1 0 1 3 5 2 4 3 4
8 9 9 11 14 14 12 14 14 16 20 21 20 21 20 21 19 18 16 16 14 14 15 11 9 9 11 9 8 7 11 8 3 4 2 1 1 2 4 3 5 4 3
10 9 9 10 14 17 15 14 15 17 18 21 25 25 23 21 19 18 16 15 19 19 19 17 17 16 12 11 10 10 8 5 5 5 4 4 3 4 4 5 7 7 8
13 11 9 10 13 16 14 12 15 12 16 19 20 25 23 22 21 20 21 18 19 19 21 15 10 17 14 12 12 12 10 8 8 7 9 7 5 5 7 8 9 11 10
18 17 14 17 14 16 16 14 14 17 17 19 17 17 24 24 21 20 18 20 20 18 10 11 14 13 12 14 15 12 11 10 8 6 5 7 9 8 8 9 13 15 18
13 17 17 15 14 17 17 17 19 22 23 24 17 13 9 18 17 16 17 19 21 17 15 19 16 16 15 17 16 13 12 12 13 12 10 8 9 10 11 13 15 16 18
15 16 17 19 12 20 17 19 21 20 17 18 15 16 12 11 13 12 9 10 13 11 14 15 14 15 15 17 17 16 15 14 11 11 12 12 15 14 15 16 17 18 17
18 17 15 19 16 19 15 19 14 15 14 15 19 19 16 15 17 14 18 15 16 15 14 13 15 12 6 15 14 16 16 13 14 16 18 20 21 15 16 19 20 19 18
19 18 16 20 17 19 13 14 16 12 16 18 23 22 15 17 13 12 15 16 17 16 17 17 19 16 17 10 13 16 20 21 23 23 21 21 20 19 17 17 19 19 16
15 17 18 19 23 18 17 15 19 18 16 11 9 19 19 16 10 16 16 15 17 19 20 21 21 22 20 21 23 20 21 21 18 17 18 20 22 22 20 19 14 13 15
15 15 16 17 22 23 23 22 23 25 20 22 19 17 16 17 18 17 12 13 15 19 19 18 17 15 16 19 22 22 25 24 21 20 22 24 22 16 12 13 15 17 15

GFSGL_850_spd_051.txt.gz
Wind_Speed
7 11 12 6 8 9 5 3 5 8 11 11 11 9 10 9 7 8 9 8 8 9 8 6 8 10 8 7 7 8 12 12 13 16 14 12 9 7 5 4 3 2 3
8 13 11 8 7 8 4 5 7 9 9 9 9 7 7 9 7 9 10 10 9 10 12 13 12 10 9 8 8 8 8 9 9 16 17 15 12 6 4 2 3 3 4
12 14 12 8 7 7 5 6 7 7 6 7 7 6 8 10 7 8 11 13 13 12 13 14 13 13 12 9 8 8 7 8 9 11 17 15 12 9 7 3 3 5 3
14 11 12 9 7 8 6 6 6 5 5 6 7 8 6 7 8 7 6 10 12 14 14 14 13 13 12 12 11 8 8 9 12 10 12 12 9 9 7 5 4 4 2
16 13 12 10 10 10 8 7 8 6 4 6 8 7 3 3 6 8 6 8 11 13 13 13 13 11 9 10 11 12 9 10 12 12 12 11 10 8 6 6 6 5 2
17 13 18 15 14 12 12 11 10 9 8 8 6 3 1 5 8 5 7 8 10 11 10 10 10 11 9 8 8 10 12 9 10 10 10 9 8 7 5 5 5 3 2
20 12 20 17 16 14 15 15 13 11 11 11 8 6 3 6 8 6 6 7 7 7 6 7 6 9 9 7 7 7 8 8 8 8 8 8 7 5 3 4 3 2 2
17 12 15 14 13 14 17 17 15 15 12 13 11 8 4 6 7 7 6 6 6 7 8 5 4 5 7 7 7 8 8 7 7 5 3 3 2 5 6 4 3 3 1
17 20 20 16 20 14 20 17 16 17 14 14 14 10 7 7 8 9 8 6 3 4 6 6 5 4 6 7 6 7 8 8 8 7 7 9 5 2 3 5 7 4 2
14 19 15 14 11 14 12 14 15 19 17 15 17 12 9 9 10 11 10 9 5 4 5 5 5 4 3 4 5 3 5 7 12 12 11 9 8 9 9 2 6 5 7
7 8 7 13 11 1 9 18 12 6 14 15 12 13 10 9 11 12 14 12 8 6 6 6 5 5 6 6 4 2 1 8 10 6 5 1 3 3 8 12 2 3 1
9 11 9 7 8 8 5 1 5 11 13 14 17 14 13 12 13 14 15 13 13 12 8 5 4 6 6 6 5 5 5 8 5 5 6 8 8 4 7 4 6 6 6
8 12 15 15 15 11 9 10 14 15 19 20 21 15 16 16 14 14 16 16 14 14 13 10 9 9 8 6 5 11 10 4 2 8 11 7 2 2 2 5 2 2 2
11 14 16 18 17 17 17 15 16 16 16 22 18 19 21 16 12 15 16 15 16 16 15 13 11 10 9 6 11 10 6 7 5 7 6 3 0 1 1 2 4 3 4
5 6 9 12 13 12 12 13 15 18 18 22 20 21 22 21 14 11 10 14 15 14 14 14 13 12 11 11 11 9 6 5 7 4 4 4 4 3 3 3 1 2 1
3 5 7 8 9 10 11 12 12 13 15 16 18 25 24 21 18 15 11 9 11 14 15 14 14 14 16 14 14 12 10 8 7 6 5 6 5 2 3 3 1 1 1
14 8 8 11 13 12 13 14 11 11 13 15 16 22 25 20 18 18 18 14 11 13 14 14 14 17 15 11 14 19 17 10 5 10 8 4 5 4 4 2 4 6 9
20 22 17 9 12 16 16 16 14 13 13 14 16 18 21 19 21 21 19 18 18 20 19 17 19 18 14 12 16 15 15 12 5 11 9 9 8 6 7 5 6 8 11
20 19 17 15 11 15 18 19 16 13 13 14 18 19 21 23 21 20 21 23 21 21 22 22 23 18 13 21 17 15 13 13 10 11 12 13 11 11 5 7 8 9 11
19 17 16 14 13 13 17 15 15 16 15 17 17 18 19 20 23 27 26 24 24 24 22 22 22 20 18 22 18 19 17 15 13 13 13 10 13 12 11 12 15 15 18
17 15 14 15 16 17 17 19 18 18 18 18 18 16 12 14 19 26 24 23 22 21 21 21 22 16 26 23 20 20 20 19 17 17 17 14 16 17 16 14 14 14 16
18 19 15 15 17 18 15 15 20 24 25 25 24 21 12 11 7 11 11 12 16 21 23 18 19 24 29 21 17 22 23 18 17 17 13 18 19 18 18 18 19 21 21
22 22 19 16 18 19 19 15 18 17 14 13 16 18 15 17 12 14 9 6 9 16 16 11 16 17 20 19 17 20 22 19 22 21 20 18 20 22 23 23 23 23 25
24 24 24 20 22 19 19 18 16 13 12 9 9 17 19 17 14 16 16 12 23 19 18 18 20 21 19 14 17 20 25 28 28 28 24 22 25 22 21 23 24 25 25
21 23 24 23 21 21 17 22 21 18 16 16 10 16 17 15 14 18 18 19 14 7 26 28 26 25 24 22 24 26 28 28 28 27 24 22 20 21 23 26 26 24 20
17 19 22 23 20 22 18 20 20 18 16 21 25 21 18 19 22 27 22 17 19 15 15 16 17 18 20 23 25 24 22 22 24 24 22 22 23 24 26 24 19 18 20

GFSGL_850_spd_054.txt.gz
Wind_Speed
10 8 11 10 9 8 7 4 5 7 10 9 6 7 6 5 4 3 6 6 5 6 6 5 6 6 6 8 11 15 16 13 13 20 16 14 11 10 7 5 4 4 4
9 9 12 9 8 8 6 6 7 8 9 10 6 4 4 5 6 7 8 7 7 7 8 6 6 6 7 9 9 11 13 13 11 19 20 16 14 10 7 6 6 5 4
10 12 13 10 10 10 7 8 7 7 9 9 7 6 5 4 5 8 9 10 9 10 10 9 8 6 7 8 9 8 9 10 11 14 20 19 15 11 9 8 7 7 5
11 14 13 11 10 9 8 8 8 6 6 8 8 8 6 4 4 6 8 9 11 11 10 9 9 9 9 7 7 6 7 10 11 11 14 15 13 11 9 6 7 6 4
15 15 13 11 9 7 7 8 8 7 7 8 9 9 6 4 3 4 6 8 9 10 10 8 8 9 10 10 9 10 9 10 13 13 15 13 12 11 8 7 7 6 3
14 13 13 13 13 10 9 9 10 9 8 10 9 7 5 5 7 4 5 7 7 7 8 9 8 9 9 9 10 11 11 6 10 12 12 10 9 8 8 7 6 5 3
12 14 11 17 18 13 11 11 13 13 12 12 9 7 5 7 8 6 6 6 6 5 6 7 6 7 7 7 9 9 9 10 9 7 8 9 8 7 7 8 8 5 3
10 16 17 16 16 15 16 15 14 16 17 16 13 10 7 9 8 7 7 8 7 5 5 4 3 5 5 4 5 6 7 8 8 8 6 6 5 5 5 5 6 7 5
12 18 17 16 17 18 21 19 18 23 21 19 16 13 9 9 11 10 9 8 7 6 6 5 4 3 5 6 5 5 6 7 8 7 6 5 4 4 4 5 6 6 7
11 14 16 12 9 10 13 12 14 14 31 21 20 14 10 9 13 13 11 9 7 6 7 7 7 6 6 7 6 6 6 9 12 12 11 11 10 9 8 2 5 7 7
7 7 4 4 6 3 6 9 11 12 6 19 15 13 11 11 12 16 15 12 8 6 6 9 8 8 7 7 7 6 5 12 14 11 8 7 5 4 5 6 1 3 8
5 7 8 8 8 7 11 5 3 7 9 2 9 11 13 13 11 16 18 15 12 10 6 8 8 8 9 9 7 7 7 13 13 11 9 9 8 4 4 4 4 7 7
7 11 13 14 15 14 11 10 11 10 8 6 8 12 16 16 15 16 20 18 15 14 11 11 9 9 11 11 10 9 10 10 14 11 11 12 7 5 6 2 3 4 4
7 10 14 15 17 20 17 15 17 16 18 21 22 20 23 20 18 17 19 21 19 18 16 14 12 12 13 13 13 14 11 7 7 10 11 10 8 8 5 3 3 5 3
5 4 5 7 11 11 11 11 14 18 20 20 20 25 28 25 24 19 15 20 20 18 18 18 18 18 18 17 17 16 12 10 12 11 10 10 9 9 6 5 5 5 4
11 8 9 8 6 8 9 8 10 12 17 20 20 23 25 24 26 20 16 14 16 18 20 20 19 18 19 19 20 17 15 12 12 11 10 10 10 9 8 9 6 6 7
13 13 12 10 8 8 10 11 13 13 11 13 17 20 19 20 25 25 19 16 14 16 16 17 18 19 20 22 21 19 16 14 14 10 11 11 11 11 10 9 9 8 8
16 15 14 12 8 8 9 11 13 15 13 12 14 15 15 17 23 24 20 22 24 22 19 17 17 18 22 25 23 23 22 22 20 14 14 14 13 12 11 13 11 9 9
14 14 12 13 11 11 10 11 14 13 13 13 13 12 13 16 20 20 24 29 27 24 21 19 21 22 25 25 21 22 23 26 26 19 14 15 17 15 11 14 12 10 10
16 15 15 15 15 13 13 14 14 15 15 13 14 14 14 17 20 19 21 25 27 28 27 25 23 23 27 24 20 25 25 22 26 21 16 14 18 19 17 17 16 17 18
21 17 17 17 18 15 14 16 15 15 13 16 17 13 14 16 17 18 22 26 29 28 28 26 27 28 27 27 23 29 29 25 26 23 20 18 18 21 19 21 23 22 21
15 20 19 19 17 16 16 18 15 17 17 22 19 18 18 18 15 12 17 18 20 22 23 23 22 21 23 20 29 33 29 26 24 21 21 23 22 23 24 24 25 24 20
17 18 20 21 21 19 19 20 19 19 19 17 18 17 16 17 18 16 11 7 8 10 15 19 19 18 21 27 29 34 28 25 24 21 24 24 25 27 28 27 28 24 22
18 16 17 20 21 22 22 20 20 20 19 14 14 14 17 18 20 20 16 12 8 11 12 15 17 16 18 17 22 29 29 23 21 24 25 26 26 26 25 26 25 24 23
23 20 19 16 15 18 20 18 16 19 21 22 20 18 18 19 22 21 18 20 20 17 22 20 18 24 20 23 26 31 30 24 29 28 27 27 25 25 25 25 25 24 26
19 19 18 14 14 15 17 13 12 15 16 16 14 15 16 18 20 20 21 25 27 24 25 22 23 13 19 23 22 25 23 18 18 25 26 27 25 27 28 25 25 27 28

GFSGL_850_spd_057.txt.gz
Wind_Speed
6 6 7 8 7 7 6 3 3 5 8 6 4 7 5 3 1 0 2 4 4 5 5 3 4 5 6 10 12 15 18 13 13 17 14 11 8 7 6 5 4 4 4
6 7 8 8 8 8 7 5 5 6 7 6 6 5 4 2 0 3 3 4 4 4 6 5 4 4 6 8 11 18 15 13 12 16 18 15 12 10 7 6 5 5 5
7 9 11 10 8 9 8 8 8 7 7 6 6 4 4 2 2 3 4 4 5 4 4 5 4 4 5 7 9 14 15 14 13 14 19 18 15 11 9 8 7 6 5
8 11 13 12 9 9 8 8 8 7 8 9 7 6 5 3 3 2 4 4 5 5 6 6 6 6 7 7 8 9 10 12 12 14 18 19 16 14 10 9 9 9 6
9 13 13 12 10 10 10 9 10 9 7 9 9 8 5 3 3 2 3 4 4 5 6 7 7 8 8 8 7 6 7 11 14 14 16 17 16 14 12 9 10 8 6
9 12 13 14 13 12 11 11 10 10 9 9 10 8 6 3 5 3 3 4 4 5 5 6 7 8 8 8 8 10 9 6 12 17 16 14 14 12 11 10 10 10 8
5 11 12 13 16 16 14 13 12 12 14 12 11 10 7 5 7 6 5 5 5 4 5 6 6 8 8 8 9 10 10 10 8 7 10 11 10 9 10 11 11 9 7
9 9 15 18 17 14 15 16 19 21 16 18 18 13 10 8 10 8 7 8 7 7 5 5 4 6 8 7 7 8 9 10 10 10 9 9 9 8 9 9 10 10 9
9 10 14 15 15 13 17 18 20 24 23 21 19 17 14 10 12 11 10 10 9 9 8 6 5 4 5 6 5 6 7 7 8 8 8 8 8 9 9 8 9 11 11
7 9 11 14 8 5 3 6 8 12 15 17 21 20 16 13 13 14 13 11 11 10 9 9 8 7 6 5 5 6 6 7 8 9 8 8 8 7 6 6 7 11 11
11 12 10 6 5 6 2 7 9 10 10 10 20 17 20 18 15 16 16 14 12 10 10 10 10 9 8 8 7 6 5 9 12 12 10 9 8 5 2 1 5 9 9
10 10 9 8 7 9 7 5 4 3 7 7 6 9 10 17 17 16 18 17 15 14 10 9 12 11 11 10 10 10 8 12 13 13 12 10 8 5 2 2 4 6 8
10 12 11 10 9 11 11 10 10 10 5 4 6 5 3 11 19 18 18 20 20 18 14 11 12 12 13 14 13 12 13 14 17 17 15 13 11 9 8 5 5 7 7
9 10 9 10 13 15 17 18 18 17 18 20 19 19 18 17 16 21 23 23 23 20 19 17 17 16 14 15 15 14 14 14 14 17 16 14 15 13 11 8 5 8 8
6 3 3 7 9 9 10 9 10 14 19 22 20 22 23 25 24 25 21 24 22 23 22 22 22 22 19 18 17 16 16 15 13 13 15 16 15 14 13 12 10 10 10
8 8 7 7 7 8 9 8 6 7 10 18 24 25 22 19 20 24 25 23 20 24 26 26 24 23 22 21 21 20 20 18 17 17 16 15 16 17 14 15 13 11 11
11 10 9 9 7 8 8 8 10 10 11 10 14 18 23 23 24 19 25 26 22 23 28 25 24 23 23 23 25 24 23 19 16 17 16 15 15 16 16 15 16 13 14
9 11 10 9 11 10 9 7 8 11 12 12 12 15 17 18 19 19 20 28 28 27 27 27 23 21 22 24 27 28 26 23 22 20 18 17 17 16 19 17 17 16 16
7 9 8 8 11 14 12 12 12 11 11 11 12 12 13 14 14 15 19 26 30 29 30 28 25 24 21 22 26 30 29 27 25 25 24 22 22 21 20 19 18 19 15
9 10 13 13 12 16 15 15 14 15 16 15 15 11 12 14 15 13 17 18 22 29 33 32 25 28 24 24 25 30 31 30 30 31 32 29 25 25 24 20 19 22 19
12 14 18 17 16 15 16 16 16 16 17 16 18 15 15 17 16 15 15 16 17 20 24 30 33 32 29 26 26 30 32 31 31 31 29 32 28 27 26 26 24 25 24
19 17 17 19 19 19 19 18 18 18 17 18 19 17 15 18 19 18 16 14 16 19 22 25 29 29 26 29 31 34 35 32 32 29 31 34 31 27 27 27 30 30 29
15 15 16 16 18 21 22 21 21 20 18 17 16 17 15 16 17 16 18 16 16 15 15 18 22 24 26 26 25 28 34 32 32 31 31 32 32 31 32 31 30 35 29
21 19 20 18 15 15 16 18 19 19 18 15 15 16 17 17 19 18 19 20 18 16 18 17 11 18 18 21 23 27 32 31 27 27 26 30 35 31 31 30 32 31 28
16 13 14 19 16 13 15 14 13 13 15 16 16 16 16 17 17 19 18 20 21 23 21 18 19 22 25 21 16 16 19 27 30 32 32 31 36 36 34 30 29 28 27
5 7 7 6 7 9 9 8 7 9 11 12 14 16 17 15 15 17 15 13 17 20 23 25 25 21 25 24 22 21 25 28 33 33 31 25 20 18 22 24 27 29 27

GFSGL_850_spd_060.txt.gz
Wind_Speed
10 9 9 10 9 7 4 3 3 2 3 2 2 5 5 5 5 6 5 6 6 6 6 4 5 7 9 13 13 13 19 15 10 18 14 12 7 6 7 6 7 8 8
9 8 8 9 9 7 5 4 3 3 3 4 3 3 4 4 4 4 5 5 3 3 5 4 3 5 7 9 12 16 19 14 11 14 18 16 11 10 8 7 8 10 9
9 9 9 9 7 6 5 4 4 3 3 3 5 5 4 4 2 2 3 3 2 1 2 3 3 4 5 7 9 13 15 13 12 13 19 18 15 13 11 11 10 10 8
7 9 9 9 5 5 5 4 5 4 4 5 7 7 6 5 3 2 1 2 2 2 2 2 2 2 4 5 8 11 14 14 13 13 17 18 16 14 11 9 10 9 9
5 9 9 8 7 7 6 4 6 6 4 6 8 9 7 5 4 3 2 2 3 3 3 3 3 4 4 5 6 8 11 13 13 14 16 19 18 16 14 12 10 11 9
3 7 9 8 8 7 9 10 10 9 7 9 8 9 8 6 6 5 3 2 3 4 3 3 4 4 4 4 4 6 6 5 11 15 14 17 17 14 14 12 12 13 11
4 7 9 9 9 6 10 14 13 14 15 16 12 11 10 8 8 7 6 5 4 3 3 3 4 4 4 3 4 5 6 7 7 8 12 13 13 12 12 13 12 11 9
8 5 9 11 10 9 11 10 13 18 22 23 20 15 15 10 8 9 8 7 7 5 5 5 4 4 5 5 5 5 5 7 8 9 10 10 10 10 10 9 10 12 10
11 7 7 10 8 7 7 8 10 12 19 25 22 19 19 14 10 11 10 9 8 8 8 6 5 5 5 5 5 5 6 8 9 10 10 11 10 10 10 11 13 13 12
10 8 8 8 8 5 4 3 3 6 9 14 12 21 19 18 15 13 13 11 10 10 9 9 8 7 7 6 5 5 6 6 7 9 10 10 10 10 10 11 11 11 13
11 8 8 9 10 9 5 3 4 7 5 11 11 11 10 15 16 16 16 15 12 10 9 9 10 9 8 8 7 7 6 6 8 8 8 9 9 9 7 7 10 13 14
10 9 10 11 10 8 8 8 7 6 4 6 12 5 6 15 13 19 18 17 15 14 12 9 10 12 12 11 11 11 9 8 11 12 12 11 10 8 5 3 5 9 12
9 10 11 9 9 9 10 11 11 10 9 5 5 8 7 7 4 17 20 18 18 19 15 13 11 13 15 15 15 16 15 14 15 18 16 13 11 10 9 7 7 7 6
9 8 5 7 10 12 15 16 16 15 15 18 17 14 12 11 14 13 16 19 21 23 21 19 19 17 17 17 19 20 20 19 20 19 19 16 16 16 16 13 11 12 13
7 3 1 3 6 9 10 8 7 8 10 14 20 20 22 24 24 21 20 24 23 25 25 25 27 25 24 24 22 22 22 21 21 19 19 21 22 20 20 17 15 13 15
9 9 7 4 2 4 6 5 6 8 10 11 11 17 22 22 21 22 23 23 24 23 29 30 30 30 29 27 26 25 24 22 21 20 18 17 18 19 19 21 20 17 16
13 11 9 7 5 5 7 7 4 6 9 11 14 13 15 18 19 22 21 24 21 29 32 32 32 32 31 29 28 27 27 24 22 22 21 21 21 22 22 24 23 21 19
10 8 5 3 5 8 9 10 11 11 12 11 10 14 15 15 18 19 19 21 24 28 35 33 33 33 32 32 30 28 28 26 27 24 22 22 22 22 23 25 25 24 22
1 2 5 6 8 9 12 11 11 12 14 15 16 15 14 14 13 14 17 19 22 24 32 33 32 34 34 30 31 29 29 29 29 29 28 24 24 23 23 23 25 23 23
6 8 11 14 13 13 14 14 13 13 16 17 17 15 14 17 16 14 14 15 17 19 21 28 32 34 37 28 28 29 30 30 32 34 32 29 29 27 26 25 26 26 25
10 12 13 14 15 17 17 17 14 16 16 18 18 14 15 19 20 18 17 17 17 17 17 18 22 24 25 27 30 30 30 30 33 37 36 35 34 34 33 30 29 29 26
12 13 12 13 14 17 19 19 20 20 20 18 18 13 12 15 18 19 18 17 19 17 16 18 20 23 27 28 27 29 29 31 32 39 41 38 36 33 32 34 32 32 30
17 18 16 13 14 15 15 17 19 20 20 19 16 15 14 15 15 15 14 14 15 16 16 16 15 16 19 23 25 27 28 31 34 36 41 39 33 27 28 33 33 31 31
17 15 15 16 17 17 16 15 14 13 14 13 13 14 16 15 15 18 18 17 19 18 17 19 18 18 18 19 20 21 24 27 29 27 30 32 32 33 33 36 34 34 37
11 8 8 9 11 10 12 11 10 11 10 9 10 12 13 14 15 15 15 16 17 17 19 19 20 20 20 20 23 22 22 21 23 25 26 29 32 34 38 38 39 38 37
12 9 7 7 7 6 5 4 4 5 5 6 7 9 11 13 14 16 16 15 14 13 12 15 20 22 13 11 13 18 24 27 28 25 24 27 34 35 35 36 37 38 40

GFSGL_850_spd_066.txt.gz
Wind_Speed
8 6 6 7 8 8 7 5 4 3 3 4 5 6 5 4 4 5 4 5 5 6 7 8 8 10 9 10 14 14 15 12 12 18 17 14 12 10 9 10 9 7 9
9 6 6 7 8 8 7 5 4 4 4 4 3 4 5 5 4 4 3 4 3 4 5 6 6 6 8 8 12 13 13 13 15 15 20 18 15 13 12 11 11 8 9
10 7 6 8 8 9 8 6 6 5 4 4 5 5 6 5 4 3 3 3 3 3 3 3 5 6 8 6 9 13 14 14 16 16 20 22 19 17 17 16 15 13 11
9 7 8 9 9 8 8 7 6 6 6 7 7 6 6 6 5 5 4 4 4 4 4 4 4 4 7 7 8 10 15 14 16 15 19 23 21 20 18 16 14 13 11
11 9 9 10 10 8 8 7 7 8 7 8 8 7 7 7 6 6 5 4 3 3 3 2 3 4 6 7 8 10 11 15 15 16 19 23 23 22 22 19 18 16 16
12 10 11 11 11 10 9 8 7 8 9 11 10 10 9 7 13 8 4 4 4 4 4 3 3 3 3 5 7 10 11 14 15 17 18 22 24 22 22 20 17 18 17
12 11 11 11 11 10 9 9 8 9 11 12 14 15 14 12 13 8 7 5 5 5 4 3 2 3 2 3 4 6 9 14 15 14 17 19 22 20 23 21 19 18 15
12 10 11 14 12 10 11 10 9 11 14 15 16 18 20 17 16 12 10 7 6 6 5 5 5 5 5 4 4 5 6 7 9 9 11 12 14 15 17 16 15 16 13
10 9 9 12 13 12 12 12 12 12 13 15 15 18 20 15 22 16 13 9 8 7 7 8 6 6 6 6 6 6 5 6 7 10 14 15 14 14 15 16 16 18 17
9 8 8 11 12 12 11 13 13 10 9 11 10 11 10 9 17 18 15 12 10 8 9 10 10 9 8 8 7 7 6 7 6 7 9 12 14 15 16 17 15 16 15
14 7 8 10 11 12 13 14 13 9 9 7 9 10 10 10 15 14 17 16 10 9 9 9 10 11 11 11 11 9 9 11 11 8 7 8 10 13 16 18 16 16 17
15 12 10 15 12 14 14 14 14 11 10 9 9 11 10 9 11 13 14 18 17 15 12 11 11 10 12 13 14 14 14 13 10 10 11 11 11 13 14 15 17 19 17
18 15 12 17 17 18 17 16 14 12 9 8 11 9 10 7 9 14 14 11 15 18 19 18 17 14 13 15 16 16 16 15 12 12 12 11 11 12 13 17 15 17 19
18 13 6 13 15 13 10 9 7 8 12 14 13 10 9 9 9 9 12 12 13 16 17 21 22 20 19 18 19 19 20 20 16 14 14 13 13 14 15 14 13 15 12
17 15 15 22 17 14 11 9 7 9 8 6 9 10 14 16 17 16 17 20 19 18 16 18 22 24 24 26 24 22 22 23 23 23 19 17 18 18 18 17 17 15 16
19 13 17 14 9 9 9 4 5 7 5 6 7 7 7 10 12 14 16 18 17 18 21 22 24 23 21 22 22 22 22 25 25 24 22 22 21 21 21 22 23 22 21
14 12 12 9 11 11 7 6 5 6 4 5 5 5 3 5 7 8 10 13 13 14 19 20 20 22 23 27 29 29 27 27 28 30 27 27 25 22 24 25 24 25 24
14 15 10 10 8 7 7 5 4 5 6 6 8 7 8 9 7 8 10 9 9 9 11 13 15 16 18 23 23 27 32 33 35 34 29 32 23 21 22 24 24 25 24
12 11 9 7 6 7 5 4 5 7 7 7 6 8 7 8 8 9 10 10 8 8 8 9 10 12 12 13 16 19 24 27 26 26 30 33 30 31 26 27 26 27 28
5 5 6 7 8 7 7 8 9 11 11 11 8 6 5 7 8 8 9 10 7 8 9 9 11 11 10 10 9 9 11 14 18 23 24 23 26 33 33 31 29 32 32
7 8 10 8 9 9 10 11 12 14 14 13 10 7 9 5 5 6 7 7 6 7 7 11 12 9 11 13 12 12 11 12 14 15 17 20 27 32 35 41 36 31 36
9 9 9 8 9 8 8 9 11 12 12 12 9 5 3 2 3 4 5 6 6 6 6 7 7 6 6 7 9 13 13 12 14 14 16 16 18 26 29 30 33 40 33
8 9 8 9 8 9 8 8 10 10 6 2 2 2 2 2 2 3 4 5 6 6 7 7 7 6 6 7 8 9 11 10 10 12 16 18 21 21 24 30 35 42 44
2 1 4 6 5 4 6 6 3 1 2 2 4 6 5 5 5 5 5 6 6 7 8 8 8 9 9 8 9 11 13 15 17 17 17 17 17 18 21 24 29 31 34
8 8 7 5 6 8 7 7 7 5 7 8 7 7 6 8 7 8 9 9 9 9 11 10 10 12 14 14 15 15 15 16 17 19 20 21 22 25 24 23 25 27 30
14 13 14 14 12 11 12 13 12 12 11 12 12 12 10 10 11 11 9 9 11 12 12 14 13 14 17 14 16 15 15 16 14 14 14 16 16 17 18 20 24 25 24

GFSGL_850_spd_069.txt.gz
Wind_Speed
8 7 6 7 9 10 7 6 4 5 4 3 5 5 6 6 5 5 7 7 6 8 8 7 7 10 10 11 11 13 14 16 13 17 17 14 11 11 11 9 8 8 8
9 8 6 8 8 9 7 6 5 5 4 4 4 4 4 3 6 6 6 6 6 7 7 8 7 6 9 8 8 12 14 16 15 14 19 18 15 14 12 11 9 5 10
10 9 7 9 10 10 8 7 7 5 5 4 4 3 5 6 5 5 5 6 6 6 6 7 9 7 5 7 6 9 13 14 13 13 16 19 18 16 15 15 14 14 10
10 9 8 9 10 10 9 8 7 6 6 7 6 6 6 6 7 6 7 6 6 6 6 4 3 6 7 8 6 7 13 15 12 13 14 17 21 19 17 17 17 14 10
11 10 10 10 10 10 10 9 8 8 8 9 10 9 7 8 8 8 4 5 6 5 5 1 7 8 6 7 8 8 9 12 12 15 15 18 24 22 21 17 13 12 9
13 12 12 11 12 11 10 9 8 9 9 9 8 9 11 9 14 15 12 4 6 5 6 5 6 5 4 5 8 10 9 10 11 15 15 19 21 24 23 22 22 19 16
17 15 15 15 15 14 10 10 9 8 7 11 10 11 13 12 12 14 12 9 6 6 5 4 3 7 2 4 5 6 10 11 12 11 13 16 21 24 24 23 21 16 17
20 16 16 17 16 14 13 10 9 8 10 10 10 12 15 16 18 17 13 13 10 7 5 5 6 5 5 4 1 3 4 7 10 11 10 11 13 16 22 19 22 22 15
21 18 17 18 17 17 14 13 9 8 8 7 8 12 14 15 16 13 18 14 11 9 7 6 6 5 9 7 5 4 3 4 5 7 8 9 11 11 12 18 19 16 18
21 18 18 18 17 16 15 12 14 10 6 5 7 7 12 13 14 18 17 13 10 10 11 13 9 10 8 7 7 7 5 5 5 7 10 13 14 13 14 14 15 20 16
20 19 18 17 16 16 16 17 13 9 10 8 7 10 11 13 14 9 14 14 14 12 11 11 11 12 12 11 11 10 10 10 11 7 6 7 10 13 16 18 19 18 16
20 20 19 17 15 16 18 11 9 10 8 5 7 9 7 14 13 8 15 16 16 16 12 12 12 14 13 13 13 16 15 15 9 8 11 11 12 14 12 14 17 16 14
24 22 21 18 18 15 16 14 10 8 6 6 7 8 9 12 10 7 8 11 16 23 21 19 13 16 15 14 16 16 15 15 11 12 13 13 14 14 16 16 18 23 25
27 20 18 16 13 13 10 8 7 7 7 7 8 9 9 7 8 10 10 14 15 15 18 21 26 23 19 19 17 19 20 18 16 17 16 15 15 17 20 19 21 21 20
12 16 14 12 9 9 10 8 7 7 11 7 7 7 7 8 11 15 13 14 14 17 18 17 17 19 21 20 25 25 21 21 23 22 18 17 17 17 19 20 19 18 19
18 13 11 9 8 8 8 6 11 10 7 7 11 10 6 11 12 13 13 14 15 17 17 20 22 21 22 20 21 18 21 23 19 20 22 27 27 26 23 22 25 25 24
15 16 13 11 9 8 7 6 3 2 2 2 2 3 2 1 4 6 5 7 10 14 15 16 17 16 14 18 28 28 30 28 27 28 31 29 28 29 29 29 30 29 28
11 9 9 6 7 5 5 5 5 8 7 8 4 4 6 4 5 6 8 9 8 8 10 10 11 12 14 14 15 19 20 24 25 32 36 32 32 35 36 34 33 33 24
18 12 10 9 7 3 6 4 7 8 7 6 7 7 4 7 4 3 4 8 7 7 7 7 8 10 12 12 11 12 13 14 15 17 22 27 25 27 33 37 39 38 37
6 6 5 5 3 2 1 7 8 8 8 10 12 6 5 0 7 8 5 4 6 10 10 8 8 11 10 9 9 9 9 11 12 14 16 16 20 22 24 26 34 38 38
3 2 2 4 5 12 14 16 13 10 10 5 9 7 7 3 9 4 3 3 5 6 6 8 9 11 11 11 7 8 8 12 14 13 11 12 12 15 16 18 23 31 38
4 9 11 10 11 10 6 7 7 6 4 3 2 0 4 3 1 4 6 4 5 7 8 7 7 6 5 5 5 4 6 11 14 13 13 16 19 20 21 19 18 22 28
6 7 8 8 9 9 8 8 3 2 4 3 9 12 9 8 8 8 7 6 2 5 4 4 1 5 8 6 9 11 13 14 14 15 18 19 19 17 19 24 23 23 24
1 1 2 2 4 2 3 8 7 6 9 11 11 10 8 8 6 4 4 3 2 5 5 6 7 8 7 7 8 9 10 11 12 13 13 15 18 19 20 20 21 22 24
6 6 8 8 8 7 9 12 12 11 9 10 11 10 8 7 6 6 5 7 9 8 8 7 8 10 9 9 11 11 11 12 13 14 10 13 12 12 12 13 14 15 17
10 9 11 10 11 11 12 13 12 11 12 12 11 11 10 10 8 8 9 8 5 4 5 7 9 9 7 10 14 14 14 14 14 13 13 10 12 11 13 14 14 14 16

GFSGL_850_spd_072.txt.gz
Wind_Speed
15 12 10 9 8 10 9 10 11 11 5 6 4 7 7 4 5 5 6 6 6 6 9 10 13 12 11 14 16 15 15 19 14 12 17 13 11 11 9 6 7 6 7
15 13 9 10 12 13 9 9 6 8 5 5 5 4 7 4 4 4 5 4 4 7 8 10 11 11 11 10 11 13 14 16 22 18 16 18 14 13 11 9 6 7 7
16 14 12 10 11 15 12 11 9 8 5 3 3 5 3 4 6 5 6 6 6 6 6 9 10 9 11 9 9 7 11 18 17 14 16 19 18 16 14 13 12 11 8
16 15 17 13 12 16 16 15 16 12 8 6 6 7 7 5 5 7 7 6 5 5 7 7 5 9 9 9 7 5 12 15 15 11 15 18 19 18 17 17 16 15 7
21 16 19 15 12 14 15 16 13 10 10 11 10 9 8 7 10 8 9 3 5 4 6 5 8 11 11 8 5 5 10 12 10 11 15 18 19 20 21 19 17 13 11
22 16 21 18 16 15 18 17 14 13 13 12 10 8 10 11 13 10 12 9 6 6 6 6 7 8 4 4 5 6 5 7 9 11 15 17 18 18 19 18 18 16 15
24 19 22 21 22 21 20 17 15 14 12 10 10 9 9 12 9 11 12 11 10 6 5 4 4 7 7 5 2 5 8 9 7 6 9 11 14 16 20 22 22 23 20
25 22 27 24 23 22 22 20 16 14 12 9 11 11 10 11 6 8 12 13 12 10 7 5 6 5 3 5 3 1 3 8 9 9 10 11 11 13 17 20 21 22 20
32 30 28 28 28 25 24 21 19 17 13 11 10 9 11 8 5 5 5 10 11 9 8 8 10 7 8 7 6 7 6 4 4 6 8 9 11 9 11 18 18 22 25
36 31 31 30 28 27 25 22 20 16 13 9 7 8 8 5 7 7 5 9 11 11 10 8 9 11 9 5 8 5 5 7 6 5 7 8 9 9 10 11 16 23 23
34 32 33 30 28 26 23 22 19 16 10 11 10 7 6 5 8 7 3 7 12 11 8 9 8 7 10 9 8 10 8 7 8 10 9 5 8 14 15 14 16 17 18
32 36 36 33 28 23 21 20 18 14 19 14 7 4 4 6 8 7 3 6 11 13 12 11 10 9 9 8 10 12 13 12 11 8 9 12 12 11 9 10 14 19 20
24 66 29 28 23 18 18 15 14 18 13 7 4 3 1 6 9 4 3 3 9 12 14 15 14 12 11 13 13 13 14 16 15 16 15 16 17 15 14 12 12 12 17
23 34 10 6 12 16 16 14 17 9 9 11 10 7 5 4 5 6 4 3 8 9 12 14 17 21 23 22 20 17 16 16 17 18 19 17 17 16 20 20 20 22 24
11 24 10 19 17 17 13 10 13 15 15 10 9 8 8 8 7 8 8 9 11 11 10 13 13 14 14 15 16 19 20 20 20 21 22 21 19 20 22 24 26 28 26
12 15 16 17 16 13 16 19 18 13 11 10 12 8 6 7 8 8 7 7 9 10 12 13 13 16 20 21 19 20 17 19 18 20 23 20 24 28 24 22 22 24 28
8 7 8 10 13 14 16 12 6 9 8 7 6 5 3 3 3 4 4 4 5 7 8 5 7 7 7 10 13 18 21 22 22 22 24 24 28 30 28 29 34 30 28
12 10 10 12 14 13 14 12 10 8 9 10 10 10 9 10 5 5 5 5 5 8 7 5 7 5 5 6 8 10 12 16 18 20 21 21 22 28 29 27 27 32 35
12 13 17 15 20 12 11 9 5 5 9 9 13 9 8 8 9 7 5 6 6 10 8 2 5 8 7 7 6 6 8 9 10 11 12 13 15 16 18 21 26 27 27
11 4 5 6 13 10 8 11 12 4 6 9 5 8 10 6 2 4 6 4 1 5 9 8 7 8 9 7 8 8 9 11 12 12 13 13 13 13 15 15 17 20 22
12 11 12 2 1 8 6 4 6 1 6 2 9 13 12 10 8 10 9 7 6 5 4 9 5 6 7 6 3 2 4 6 7 11 15 15 15 17 19 18 19 18 17
4 6 10 6 8 13 7 3 3 9 5 10 11 9 12 16 11 10 7 6 10 8 6 6 8 9 7 4 3 4 6 9 10 11 11 13 14 18 19 20 20 21 24
3 3 2 5 8 7 5 4 2 12 15 14 13 14 13 13 11 11 8 5 4 1 4 4 4 6 5 6 8 9 10 11 12 13 13 14 15 16 16 16 18 20 19
5 4 1 5 3 4 9 11 10 12 20 19 18 17 14 12 9 6 6 6 4 5 5 7 9 10 9 8 9 11 11 12 12 12 9 8 11 14 14 15 15 15 15
7 5 6 7 8 8 12 16 19 18 15 13 13 11 10 10 9 9 11 7 7 8 9 6 4 4 3 8 13 12 12 12 12 12 11 9 10 12 13 13 15 16 16
12 10 12 12 11 11 14 12 11 13 14 12 11 12 10 13 11 11 9 9 9 9 10 7 6 7 11 12 13 14 14 14 13 13 14 13 11 16 17 18 16 19 19

GFSGL_850_spd_078.txt.gz
Wind_Speed
19 23 21 20 17 16 16 15 15 14 12 10 10 8 8 7 8 8 7 7 9 10 9 13 11 11 10 11 12 12 15 16 18 17 15 15 16 14 10 9 11 11 10
17 21 19 17 14 16 17 18 18 14 13 12 15 14 12 10 8 7 6 6 8 10 8 6 7 9 10 10 10 10 13 16 17 20 17 19 19 16 11 11 14 12 11
17 20 18 17 15 16 17 18 18 15 15 14 15 11 12 11 10 9 8 7 11 9 7 8 8 10 10 10 10 10 12 14 19 22 20 19 19 18 16 14 12 11 11
19 21 20 20 16 13 15 18 17 14 13 12 13 9 7 7 9 9 10 11 8 14 11 10 12 13 10 9 9 10 10 10 11 17 23 20 21 22 19 17 15 13 10
20 20 21 21 20 17 14 18 18 18 14 12 13 11 10 11 11 12 14 14 13 10 14 12 12 8 9 10 10 9 6 4 7 12 14 21 22 24 25 21 17 10 12
19 19 16 18 21 21 19 18 20 19 16 17 16 15 15 14 14 16 16 17 15 11 12 14 12 8 4 5 6 5 4 5 6 7 10 17 21 24 24 22 17 18 17
23 20 20 23 25 27 22 23 23 21 19 18 20 20 18 15 14 16 17 17 17 14 14 14 12 10 8 4 4 6 6 6 5 6 8 10 14 18 20 21 20 19 17
21 25 23 28 25 27 22 9 29 24 22 22 22 21 18 16 15 15 17 16 19 17 15 14 12 10 7 6 4 6 7 8 8 7 9 10 10 11 13 15 16 18 18
30 27 25 19 22 2 38 23 21 29 26 24 25 24 23 20 17 15 15 15 17 16 15 14 13 10 9 8 6 7 6 6 11 9 9 10 10 10 12 14 20 21 23
19 26 28 30 20 25 23 47 45 47 59 31 29 27 25 20 16 15 15 16 18 19 20 17 15 12 12 9 9 8 7 6 5 4 4 6 7 9 11 14 16 19 22
20 14 17 24 29 31 24 28 28 24 20 31 34 30 25 21 16 14 13 15 18 19 20 18 17 15 14 12 9 11 8 8 5 6 5 3 4 5 6 6 9 13 19
17 20 17 17 20 23 21 33 40 27 41 40 35 31 24 19 15 13 12 14 18 20 19 17 15 15 12 12 12 11 12 11 9 8 8 6 4 3 1 2 4 7 9
11 14 12 12 15 17 21 28 29 32 32 34 33 29 24 19 18 13 12 13 16 18 17 15 14 13 15 12 9 9 10 13 13 12 11 9 8 8 9 11 10 9 9
12 9 8 6 13 14 15 17 22 22 38 21 27 24 21 20 22 17 15 15 18 18 17 15 14 14 14 13 13 12 11 11 12 13 14 14 15 14 13 10 11 13 17
11 8 9 9 9 6 4 15 23 17 16 23 26 23 23 23 21 18 16 13 14 15 14 14 14 14 15 15 13 12 9 10 13 14 14 14 15 15 15 16 14 15 20
13 12 8 9 9 8 6 10 13 15 19 21 15 20 25 18 19 17 11 10 13 15 13 12 12 11 10 13 11 10 10 11 10 13 13 11 10 12 11 13 17 15 14
11 8 10 12 13 13 12 12 14 17 20 20 21 19 18 19 16 12 11 12 13 12 11 12 13 13 11 10 8 10 9 8 10 13 10 11 13 11 11 11 11 13 18
14 8 4 5 7 12 12 12 8 11 16 20 19 15 13 15 15 15 17 17 14 12 12 10 10 8 7 6 7 7 6 5 6 8 8 9 9 8 9 7 6 6 7
20 11 8 8 3 4 4 11 15 18 15 17 17 16 18 17 18 17 15 12 13 14 14 10 8 7 8 5 3 4 5 7 6 5 4 2 2 2 1 2 2 1 2
14 17 8 10 4 14 16 12 16 23 22 21 14 18 18 16 16 15 16 13 12 15 14 12 9 8 11 9 8 5 2 0 2 3 3 4 3 3 6 5 4 4 3
5 5 8 9 9 10 4 14 18 17 21 19 18 16 21 18 17 13 12 13 12 14 12 11 11 8 7 8 7 6 5 3 5 5 5 5 5 8 8 7 6 5 5
4 4 6 5 5 3 4 8 8 9 15 17 18 23 13 9 17 17 18 18 16 12 12 10 8 7 7 7 5 4 3 2 3 3 2 2 3 5 5 4 3 4 5
3 1 3 3 4 4 1 4 4 9 14 17 20 18 15 20 22 21 17 15 13 12 8 4 3 5 7 7 6 4 2 1 1 1 1 2 4 5 7 8 7 10 11
1 2 4 4 5 6 9 10 14 16 18 26 25 24 24 23 21 17 14 13 9 6 5 8 11 10 8 6 5 4 3 2 3 3 3 5 7 7 8 8 7 8 10
7 6 4 6 6 13 15 18 18 19 21 26 28 26 22 17 13 11 10 9 9 10 11 9 8 7 5 5 6 6 6 5 5 6 7 7 8 9 10 11 10 11 12
12 9 9 9 11 12 13 13 16 17 20 18 16 11 9 13 14 13 14 11 10 10 8 8 7 6 7 7 8 8 8 8 7 7 8 8 9 10 12 14 15 16 18

GFSGL_850_spd_081.txt.gz
Wind_Speed
16 17 20 18 17 15 14 15 15 15 13 11 10 8 7 8 7 9 9 11 13 13 14 14 13 10 11 12 13 15 15 17 19 21 17 14 16 15 14 10 10 9 9
15 13 18 18 19 17 16 17 17 18 15 13 11 10 10 10 9 7 7 7 9 11 12 11 11 12 14 15 15 15 17 18 20 21 20 17 20 18 14 10 11 12 11
17 13 16 20 20 17 15 18 19 17 14 13 14 12 11 12 11 9 9 8 7 11 12 12 9 11 12 14 14 15 15 15 18 21 20 20 21 19 17 14 14 13 12
20 18 17 19 20 15 14 16 17 19 17 15 15 15 12 12 11 11 10 11 11 9 10 10 9 11 17 14 13 13 14 15 17 18 19 20 23 21 20 16 17 16 14
23 20 16 18 18 14 11 12 13 16 15 14 14 14 12 10 10 11 11 12 12 13 11 11 11 12 13 13 15 14 12 11 11 13 16 22 24 24 23 20 17 15 14
19 19 15 17 19 16 15 17 16 16 16 14 14 15 15 16 16 14 13 13 14 12 11 10 12 12 12 10 11 9 5 6 5 11 13 15 21 26 25 21 19 17 17
21 22 20 15 19 21 22 15 4 13 18 18 18 20 20 23 21 20 20 17 16 15 12 11 11 11 11 10 8 7 7 7 6 7 10 12 14 20 22 23 22 20 18
27 24 23 17 22 26 28 24 19 22 24 30 24 28 30 26 27 24 21 19 16 16 16 14 11 9 8 8 7 7 8 9 7 6 8 9 9 12 15 16 17 18 17
23 25 28 26 27 30 31 23 18 21 23 36 34 34 38 32 27 26 21 22 18 17 16 14 12 9 7 9 7 5 5 9 10 9 8 8 7 9 13 17 20 20 22
10 17 24 27 30 34 33 31 28 27 30 24 41 39 41 34 30 28 24 22 19 17 17 16 13 11 8 9 8 7 6 4 4 5 5 7 7 8 8 10 14 19 21
15 18 18 19 24 29 33 36 37 36 34 30 35 39 46 36 33 29 25 21 19 17 20 20 17 14 11 10 9 7 7 7 6 6 4 3 5 5 4 6 8 12 16
17 17 14 13 17 25 27 35 38 38 32 33 39 33 33 33 32 27 22 19 18 17 19 19 18 15 13 11 11 10 9 9 8 8 8 6 4 3 2 2 4 5 6
15 17 17 16 16 21 24 28 28 25 26 30 23 28 33 34 30 23 19 18 17 17 18 17 16 15 14 13 11 12 11 11 11 10 9 9 8 8 8 9 10 9 10
16 15 15 14 14 16 17 20 22 18 21 28 23 23 29 27 24 21 20 18 16 17 19 18 16 14 14 14 13 12 10 10 11 12 12 12 13 13 12 12 11 11 15
16 15 14 16 17 16 15 17 8 10 12 16 14 19 14 21 23 19 20 14 15 16 18 18 17 16 14 14 13 14 14 13 14 14 13 13 14 15 15 15 16 17 18
14 15 13 16 13 14 15 11 5 8 6 6 18 16 20 23 21 18 15 12 14 16 18 16 16 16 15 13 12 11 10 14 13 12 11 12 12 12 13 13 14 13 15
19 16 11 10 12 17 15 15 13 12 13 17 25 23 20 19 18 15 17 18 18 19 18 15 14 14 14 11 10 11 10 11 12 13 12 9 9 9 7 9 12 13 14
14 15 14 12 10 10 10 13 16 14 13 16 19 20 17 20 18 17 20 17 18 16 16 14 15 13 11 10 9 8 8 10 11 11 11 10 10 9 9 9 9 10 11
15 16 19 13 12 10 7 10 9 10 11 17 20 20 21 22 22 19 18 17 15 15 15 14 11 9 7 6 5 5 6 7 6 6 6 4 2 1 1 0 1 2 1
8 10 11 13 11 11 4 5 11 12 15 19 22 20 20 18 19 20 17 14 15 16 15 12 9 8 7 6 7 7 5 4 1 0 1 1 1 2 4 3 3 3 4
9 8 10 11 7 9 9 4 8 11 16 16 16 18 18 19 19 20 17 13 12 15 13 8 7 9 9 7 5 5 5 4 4 3 4 4 4 4 4 4 2 4 7
7 6 6 8 7 4 3 3 2 12 15 18 19 18 18 16 15 11 10 11 15 17 13 13 12 8 8 8 7 6 7 6 5 4 3 2 2 4 4 5 4 4 6
5 4 3 3 4 5 8 8 8 5 10 15 18 20 15 13 16 9 11 12 14 14 12 10 7 6 6 6 5 5 4 3 3 3 3 3 3 4 5 6 7 8 9
1 0 1 2 1 1 1 3 9 7 11 10 20 17 13 14 17 17 15 13 12 10 7 6 8 9 8 6 4 3 2 1 2 2 3 4 5 6 7 7 6 8 9
6 4 3 2 1 4 4 5 6 11 15 18 17 17 19 20 20 17 15 12 10 11 11 10 9 9 8 6 4 2 2 2 3 4 5 6 6 7 8 9 10 10 12
8 7 6 5 3 7 6 7 8 11 17 15 17 19 17 14 13 13 14 14 15 13 11 11 10 8 6 4 4 3 3 2 2 3 3 4 6 7 8 10 12 13 15

GFSGL_850_spd_084.txt.gz
Wind_Speed
21 20 21 20 18 17 14 12 11 10 10 9 8 8 8 8 9 10 10 12 13 12 13 13 12 10 8 9 11 12 14 15 17 18 16 14 13 13 15 13 9 7 8
18 17 21 22 19 18 14 11 10 10 11 10 10 10 11 12 12 11 10 10 10 10 10 11 11 11 13 12 11 13 14 15 16 16 14 13 17 17 19 16 10 11 10
17 15 17 22 19 17 14 11 11 11 11 9 10 12 12 14 15 14 13 12 10 9 11 12 12 12 9 9 10 12 13 13 16 18 17 17 20 19 19 13 11 12 13
16 16 17 19 18 16 14 12 11 9 10 10 10 12 13 14 14 14 15 14 15 12 10 10 12 14 11 12 12 10 10 11 14 15 19 19 20 19 22 18 15 15 14
19 16 16 16 18 18 16 16 17 16 13 14 16 15 15 18 17 16 14 13 14 14 14 11 12 13 12 12 9 11 12 11 11 11 15 18 18 22 24 18 15 14 13
14 17 15 12 24 23 22 22 21 15 6 12 19 21 21 21 21 19 17 17 14 15 15 14 11 12 13 12 8 8 9 5 4 4 8 11 11 15 21 20 18 17 16
7 9 24 21 36 25 26 27 26 20 14 19 23 25 24 22 22 20 19 20 19 17 16 15 13 11 13 12 9 5 5 5 6 5 5 6 10 12 16 23 21 17 16
15 13 21 41 39 28 29 32 30 30 27 22 22 27 28 26 25 25 23 23 23 20 18 16 14 13 11 11 9 7 7 8 8 7 7 9 9 9 13 17 17 17 17
4 18 21 27 31 27 29 27 27 29 29 25 25 29 30 30 27 27 26 26 24 22 18 18 17 15 12 10 8 6 7 8 9 8 8 8 8 7 8 11 15 15 18
5 12 17 20 26 28 29 30 31 34 32 27 22 35 32 35 25 29 31 29 27 24 19 19 17 16 13 10 8 6 6 4 5 9 8 7 9 7 7 9 12 15 16
7 7 10 13 15 18 25 30 32 34 33 30 30 33 34 39 43 31 37 32 29 25 21 19 18 18 16 11 11 8 7 6 5 5 5 4 5 6 7 8 8 11 13
11 10 8 9 11 13 20 24 29 30 34 38 41 43 33 34 31 41 37 34 29 25 22 20 21 20 16 13 11 10 9 9 8 7 6 5 4 5 6 6 7 7 7
17 17 16 12 11 12 14 17 20 24 30 32 32 32 29 29 30 29 35 33 27 24 20 19 22 21 17 15 11 10 9 10 9 8 7 7 7 7 7 6 6 7 9
20 18 17 18 15 13 15 16 16 20 26 28 25 23 23 24 21 26 33 28 25 21 21 22 22 20 16 14 13 11 10 10 9 8 9 10 11 11 10 10 10 9 10
20 18 18 18 17 18 18 18 18 18 17 13 13 14 17 20 22 24 26 24 22 20 22 23 23 21 17 15 14 13 13 10 9 10 10 10 11 12 13 14 14 13 14
21 20 17 17 16 14 16 18 21 17 14 13 9 8 13 12 13 18 17 18 15 18 22 23 22 19 16 15 14 13 12 9 9 8 8 9 11 12 13 14 13 13 12
20 21 14 13 13 15 11 14 18 16 17 17 15 12 12 11 15 22 19 18 17 17 20 20 18 16 14 12 10 8 9 9 7 5 5 4 4 9 12 10 6 8 9
14 13 16 16 15 16 11 12 13 15 17 18 18 16 19 17 17 17 22 22 21 19 17 14 12 11 11 10 8 9 8 7 6 6 6 6 7 7 7 7 7 9 8
12 11 15 16 16 15 13 11 10 11 11 13 14 8 16 23 21 22 25 23 20 17 15 13 12 14 11 12 11 9 8 8 8 6 5 4 3 2 3 3 2 2 2
11 10 13 14 14 17 16 14 11 5 4 9 15 20 18 19 17 20 16 18 19 16 15 15 15 14 13 11 11 11 11 10 8 7 6 4 2 0 1 2 2 3 3
12 9 10 12 12 11 14 8 2 5 7 6 2 7 8 10 18 18 10 8 13 19 18 13 12 11 12 12 8 8 8 7 6 4 3 2 1 1 1 1 2 2 2
11 7 7 9 9 6 7 5 5 3 5 5 10 12 11 13 17 15 18 16 15 19 17 12 10 10 9 7 5 5 3 1 1 3 2 3 3 3 4 5 4 3 3
9 5 6 8 9 8 8 8 3 5 8 11 11 11 11 12 10 9 10 11 17 17 15 12 9 8 8 7 6 5 5 4 4 4 3 3 3 2 2 3 4 4 5
9 7 8 9 8 6 5 3 1 2 7 12 8 11 7 11 11 10 13 17 17 18 14 9 8 8 10 9 8 6 5 4 3 3 3 3 3 2 2 2 3 5 6
7 6 9 9 7 6 6 5 4 8 11 18 14 13 9 11 17 17 17 16 14 12 11 11 12 12 11 9 6 5 4 3 3 3 3 2 2 2 3 3 5 6 8
9 9 10 12 9 7 6 6 5 5 5 8 8 11 12 13 14 14 13 12 14 14 13 13 12 10 8 7 6 5 4 3 3 2 1 1 1 2 3 5 6 8 10

GFSGL_850_spd_087.txt.gz
Wind_Speed
26 23 21 20 21 18 18 19 17 15 15 17 16 14 12 11 10 10 10 11 12 14 14 15 16 14 13 11 10 9 9 9 11 12 12 13 12 11 10 12 12 9 7
22 21 20 20 22 21 19 20 19 18 18 19 17 16 15 13 13 12 12 12 13 13 13 15 16 17 16 15 15 13 12 12 13 12 10 12 13 11 9 13 14 11 10
20 18 19 20 21 21 20 20 21 20 21 22 21 20 18 16 16 14 14 13 12 11 10 13 13 14 14 13 12 11 13 13 13 14 15 12 12 13 14 17 15 13 13
22 18 18 17 18 19 18 20 21 23 25 25 24 22 21 19 17 15 15 14 13 13 12 11 12 13 14 13 11 13 12 13 14 15 17 16 17 16 15 20 17 16 16
19 24 25 20 18 18 16 19 23 25 27 26 25 24 21 20 18 17 16 15 14 12 12 12 13 13 13 13 12 11 11 13 15 15 15 15 16 18 19 20 20 18 18
21 28 26 20 16 19 17 17 22 28 28 28 29 28 25 22 19 17 15 16 14 13 12 13 14 14 15 15 13 12 12 11 11 9 11 12 13 14 16 20 18 18 15
7 14 9 4 17 19 18 19 33 32 31 28 29 30 28 23 20 19 18 19 17 15 13 12 13 15 14 14 13 12 10 10 11 9 8 8 8 9 10 17 21 19 15
14 12 12 9 8 22 22 33 37 36 37 36 32 32 30 26 22 21 22 22 22 20 17 16 14 15 14 14 14 13 11 10 9 8 8 7 8 8 10 10 15 19 15
17 16 16 11 12 16 26 24 29 32 36 42 37 35 27 28 22 22 25 26 27 25 22 19 16 16 15 15 13 11 11 12 12 11 10 9 9 8 7 9 14 17 16
14 15 13 13 22 29 32 37 37 34 35 37 38 40 35 29 27 22 27 30 29 30 28 23 19 17 16 16 14 12 10 12 12 12 11 8 10 7 8 9 11 13 14
4 6 9 11 14 17 19 22 25 30 33 34 35 37 37 34 31 27 26 35 36 34 33 26 21 17 18 17 15 13 11 10 9 10 7 6 7 8 9 10 12 14 13
4 6 8 8 9 13 15 16 18 21 28 32 36 37 34 35 41 41 39 36 40 36 35 28 21 18 19 19 15 13 11 12 11 9 8 6 5 7 7 7 8 9 11
9 6 5 5 5 7 10 13 17 21 24 25 29 33 36 38 36 33 32 27 31 32 33 28 20 19 20 20 16 14 12 12 10 11 8 8 8 8 7 7 7 7 8
17 15 11 8 8 9 10 11 14 15 17 19 23 24 23 20 20 21 18 27 32 33 33 25 20 22 23 21 17 16 15 14 12 10 9 9 9 10 9 9 9 9 8
18 20 16 14 9 8 11 14 15 14 15 15 12 12 15 14 14 15 21 21 27 32 28 21 25 26 24 21 20 18 17 15 13 12 12 11 10 10 8 10 11 11 9
16 17 17 16 15 11 11 15 16 15 15 13 11 13 9 12 11 12 14 18 26 25 22 23 28 27 22 20 20 20 18 16 14 12 12 13 13 13 12 12 11 8 7
13 13 13 16 14 17 12 12 12 14 13 13 13 13 13 12 11 7 14 20 24 23 23 25 29 26 23 22 20 18 18 17 14 11 10 10 13 11 10 10 10 10 9
13 12 13 15 15 16 17 14 13 12 12 11 12 12 14 15 11 18 20 23 26 25 22 22 25 21 21 23 20 17 13 10 10 10 10 9 9 8 8 7 7 8 7
16 13 14 14 15 16 16 14 14 12 11 11 11 8 6 18 16 21 15 29 34 30 28 25 18 19 21 18 17 14 12 12 11 11 7 8 7 6 7 7 7 6 6
15 12 11 12 13 12 12 12 10 8 9 15 17 10 6 10 17 19 25 23 22 33 25 27 24 21 18 17 17 15 13 12 11 10 11 10 10 8 7 8 8 7 7
13 11 8 9 10 11 8 9 7 2 2 8 5 13 16 17 22 22 17 15 12 13 16 19 21 21 18 17 17 18 17 16 14 13 11 10 9 8 7 7 8 7 5
14 11 9 9 9 7 6 6 5 2 2 1 5 9 9 12 14 21 19 23 23 22 19 17 17 18 18 15 16 15 14 13 12 11 10 10 10 9 9 9 8 7 6
10 8 8 8 8 6 4 3 3 3 2 6 6 6 9 8 8 12 13 16 23 14 19 18 17 16 15 15 15 13 11 11 10 11 11 10 10 9 9 8 7 6 5
10 9 8 8 8 8 6 4 4 1 8 7 6 9 13 12 13 13 12 16 27 21 21 18 15 12 13 12 12 12 12 10 10 10 9 9 9 8 7 7 6 5 4
10 11 11 9 8 8 8 5 7 10 13 9 9 8 7 10 16 20 22 21 21 19 16 15 15 15 14 13 12 11 10 10 9 9 9 8 8 7 6 6 5 4 3
10 12 12 12 13 12 9 10 7 4 7 6 3 1 6 14 18 19 17 15 16 16 16 16 15 14 12 12 11 10 9 9 9 8 8 8 7 6 6 5 4 3 3

GFSGL_850_spd_090.txt.gz
Wind_Speed
33 33 31 29 28 28 23 21 20 17 15 14 14 14 12 12 12 12 13 12 11 11 11 11 13 13 16 15 15 17 16 13 13 12 15 13 15 14 12 12 12 10 9
32 33 30 27 27 26 23 21 19 18 15 14 14 14 13 13 13 13 12 13 14 14 13 13 14 13 15 15 13 13 13 14 11 11 10 11 14 15 14 11 10 14 12
26 30 30 27 27 25 22 19 18 17 15 14 15 15 12 13 14 14 13 13 13 13 13 13 13 14 16 16 16 17 14 15 14 13 12 11 11 15 16 12 12 15 14
6 6 21 25 25 23 21 19 18 16 15 15 14 16 15 14 15 15 15 15 14 13 14 13 12 12 13 14 15 13 13 13 15 15 13 14 12 15 15 13 17 18 15
11 41 17 17 18 19 20 19 17 16 14 14 14 15 16 14 14 16 16 16 16 15 15 15 15 13 13 12 12 12 12 11 10 12 14 18 18 17 19 18 18 20 19
11 8 12 17 18 18 16 18 18 15 15 15 14 15 17 15 16 21 20 16 17 16 15 15 14 17 16 12 14 13 12 10 11 11 12 12 15 17 18 18 21 23 18
20 23 26 20 18 17 19 22 18 13 11 15 15 14 18 18 20 22 19 21 17 17 17 16 14 13 16 12 13 15 13 13 13 12 12 10 10 11 12 13 17 20 14
12 18 20 20 18 17 20 19 18 20 24 20 22 20 21 20 22 23 19 23 22 20 20 18 16 14 15 13 13 11 12 13 12 11 9 7 8 9 8 8 12 21 19
12 16 14 15 14 20 22 24 24 23 23 14 19 24 23 24 24 21 21 26 25 24 22 21 19 16 16 16 15 14 12 11 13 14 12 12 11 10 8 11 14 17 19
11 10 11 14 15 18 16 17 17 24 21 24 28 31 28 28 27 25 18 25 25 26 25 25 26 21 21 18 18 16 14 13 13 14 14 12 12 9 10 11 12 14 16
7 8 10 14 15 14 16 22 25 31 35 38 34 28 27 29 30 28 28 26 24 24 25 26 25 24 25 21 21 18 15 14 14 13 12 9 9 11 11 10 10 13 15
2 1 5 8 10 11 14 15 16 19 23 25 26 28 30 33 35 34 35 31 31 29 30 28 28 28 24 24 24 21 18 16 13 15 14 13 12 11 12 12 12 14 13
8 5 4 7 11 10 10 12 13 15 16 17 17 20 20 20 22 26 30 35 37 39 33 30 29 29 26 25 28 23 18 16 16 15 14 14 14 12 12 12 11 11 11
12 12 8 7 6 10 13 12 10 12 13 15 16 18 19 20 21 21 23 27 27 31 33 36 33 33 29 27 29 25 19 16 15 15 14 14 13 14 15 14 12 12 10
10 9 9 9 10 11 9 10 14 15 18 19 20 17 15 15 14 20 20 24 24 25 31 35 32 32 31 28 25 25 19 19 17 15 14 13 13 12 10 11 9 10 10
9 9 11 11 12 10 14 13 10 12 13 17 20 22 20 20 16 16 17 20 21 21 28 33 34 36 33 26 27 22 20 19 17 16 15 13 12 11 12 11 11 10 10
11 10 10 10 12 13 13 15 17 16 15 15 16 19 23 22 20 18 18 19 18 21 27 28 36 32 31 30 27 23 22 22 21 19 17 19 15 12 17 11 10 12 13
13 13 10 10 10 13 13 13 13 13 13 14 17 19 21 24 21 18 14 12 16 21 29 32 32 29 29 26 24 23 21 22 19 17 17 14 15 15 16 15 15 13 12
13 11 11 9 8 12 11 11 9 9 9 13 15 12 13 17 19 17 20 18 23 30 30 29 31 30 26 24 23 20 16 17 16 11 11 11 12 13 12 13 13 12 12
12 15 13 8 9 9 9 7 6 5 3 9 12 16 12 4 13 17 21 23 27 24 28 29 26 23 21 20 17 22 17 15 12 10 10 8 9 9 10 11 12 12 11
11 11 12 7 8 9 9 9 5 6 8 8 7 7 12 11 4 4 9 10 21 18 24 30 24 23 22 16 15 15 16 13 14 14 15 17 13 13 13 12 12 10 9
11 10 8 8 10 9 9 9 5 7 5 5 3 4 4 7 10 13 19 20 20 19 17 19 21 18 16 15 14 12 14 15 14 14 13 11 10 10 10 10 11 10 10
11 11 10 9 9 9 7 5 7 5 3 4 2 1 3 3 3 10 18 18 19 22 22 22 22 22 16 10 9 13 17 17 15 14 14 13 13 12 12 12 11 11 11
11 11 9 10 7 5 6 3 3 5 4 3 2 5 1 5 7 9 12 18 14 17 13 13 14 16 18 20 21 20 19 17 16 15 14 12 11 13 11 11 10 11 9
10 9 9 9 9 8 7 2 2 7 5 3 4 5 4 3 7 12 17 20 17 18 17 17 17 16 16 17 17 16 15 16 17 15 13 13 12 12 10 10 9 9 9
7 9 8 8 9 9 5 3 1 4 5 3 3 3 5 9 9 17 22 22 20 19 17 15 15 16 16 15 15 15 15 15 15 16 12 11 12 11 11 10 10 7 7

GFSGL_850_spd_093.txt.gz
Wind_Speed
34 33 32 27 26 28 27 23 20 18 17 15 14 15 12 15 13 12 12 11 10 9 9 10 10 10 11 13 15 16 19 20 22 16 13 14 13 12 12 11 14 15 11
30 32 33 32 28 29 26 22 20 19 19 17 16 16 15 14 14 14 12 11 12 11 11 11 11 10 11 13 13 13 13 13 13 13 13 11 12 12 13 14 14 13 11
24 27 26 8 18 22 23 17 20 19 19 17 17 17 14 14 16 17 15 13 13 13 11 11 12 12 16 15 14 14 15 15 17 16 14 9 10 12 14 15 13 14 11
9 6 18 10 9 11 15 17 19 19 19 18 18 17 15 14 16 18 15 15 14 15 13 12 13 13 15 14 16 16 16 14 12 15 14 13 13 14 13 14 16 14 14
5 1 13 19 19 18 14 23 21 20 18 18 19 18 17 15 16 20 17 14 15 16 15 13 13 14 15 14 12 14 13 12 11 12 11 13 16 16 15 16 17 14 17
4 9 10 13 27 25 29 26 22 21 21 20 19 18 17 14 16 21 17 14 16 19 17 16 15 17 19 19 16 18 16 13 13 14 12 13 12 16 17 19 18 20 21
14 9 8 11 41 40 30 28 25 23 20 18 17 15 17 18 19 23 23 19 18 18 17 15 16 15 19 14 15 17 21 19 16 15 14 13 12 16 13 17 20 20 21
15 14 13 16 19 19 20 22 20 19 18 16 16 17 18 20 22 20 18 19 20 22 19 19 20 20 13 16 17 18 18 18 19 16 13 12 13 14 13 9 12 15 18
4 4 12 17 20 20 19 22 18 18 20 20 19 17 22 23 24 24 23 24 21 24 22 22 21 22 21 21 20 18 16 16 18 18 18 16 14 12 12 13 15 19 25
6 6 7 10 13 15 18 15 15 23 24 16 17 17 19 22 23 23 24 25 21 23 24 26 28 27 23 25 24 21 21 20 16 16 20 18 16 16 17 16 16 20 26
6 4 4 7 8 12 14 16 18 21 19 18 20 25 25 26 24 27 27 25 23 24 27 26 24 27 31 29 26 23 23 21 18 19 12 13 11 15 17 17 16 19 22
7 3 5 8 10 12 16 13 10 12 14 18 23 25 22 25 28 27 27 27 25 27 27 28 31 28 26 29 31 26 26 23 21 19 16 18 15 12 14 15 16 16 17
10 10 8 7 7 8 11 10 10 9 12 13 12 13 13 11 15 19 18 19 22 25 32 29 31 26 31 29 29 29 30 25 19 20 19 20 18 14 14 13 14 14 13
11 12 13 11 11 10 6 9 9 11 11 13 15 16 14 15 16 16 18 23 23 27 30 34 41 34 31 32 31 31 31 24 23 25 19 18 19 19 19 17 16 14 14
10 8 8 9 13 12 14 13 10 10 16 20 21 22 18 17 16 20 21 23 17 16 18 19 25 33 33 35 30 35 34 26 26 22 20 19 20 19 18 19 17 13 11
11 9 10 10 9 9 10 11 15 14 13 16 19 22 25 28 29 26 25 27 31 31 29 28 30 31 35 35 36 34 35 30 25 24 23 18 18 18 17 16 16 14 12
11 12 12 10 10 12 12 12 13 14 14 15 14 18 22 26 27 28 27 26 27 28 31 30 28 32 34 32 34 36 32 31 27 23 18 15 13 14 14 13 10 10 9
13 14 12 12 12 11 12 13 12 13 12 10 12 18 18 22 27 25 24 26 26 24 23 25 25 26 30 35 35 30 28 28 28 25 20 18 18 18 16 15 14 12 12
13 12 13 15 12 12 11 12 11 12 10 10 11 16 22 19 16 18 19 21 20 20 20 21 24 25 30 35 33 32 32 30 24 22 19 15 12 13 13 13 14 12 12
13 14 12 13 12 11 11 8 11 10 9 11 12 14 20 20 16 10 10 16 19 18 18 21 28 29 30 32 31 26 20 17 16 14 12 11 8 11 11 11 10 11 12
11 12 14 11 12 12 13 12 10 9 8 9 9 13 15 15 12 9 7 7 12 14 21 23 28 29 26 26 24 18 16 20 15 16 15 14 14 13 14 14 12 13 12
12 11 14 14 13 14 11 14 12 8 8 6 6 7 9 8 6 8 7 8 2 10 19 24 23 20 18 17 20 23 24 21 18 14 13 15 16 16 14 11 9 10 10
8 11 11 15 13 11 13 9 8 8 5 5 6 7 6 6 6 5 9 9 7 10 14 15 18 17 18 16 14 14 17 17 13 10 15 17 13 12 12 13 13 13 11
8 10 9 11 12 9 9 9 7 7 7 4 7 7 5 1 3 5 4 2 16 15 17 13 7 10 18 12 11 13 12 13 15 16 18 18 16 16 15 14 13 12 11
8 9 9 9 10 12 10 8 9 5 2 2 3 4 5 5 2 4 8 9 10 9 10 12 12 14 15 14 14 15 17 17 17 17 18 16 14 15 14 14 13 12 11
7 9 8 8 10 11 10 9 7 4 4 5 5 7 9 7 4 7 15 13 12 10 7 9 10 9 9 11 12 11 13 16 18 20 15 15 15 14 12 11 12 11 12

GFSGL_850_spd_096.txt.gz
Wind_Speed
38 37 41 36 35 35 32 29 24 19 22 15 18 14 15 15 16 12 10 9 12 12 11 13 11 8 9 10 11 15 18 21 21 18 19 14 14 12 13 15 14 15 14
37 32 29 26 36 28 34 23 26 23 23 21 17 14 17 12 10 11 9 7 12 13 12 12 13 10 10 10 11 13 14 15 19 16 13 11 10 10 11 12 14 13 12
23 26 28 10 6 27 15 16 17 19 21 20 22 20 19 17 16 12 11 11 15 14 13 14 14 12 16 14 13 13 16 16 15 16 15 14 11 12 12 12 14 15 14
10 7 16 16 8 14 25 12 11 21 22 23 20 21 17 17 16 14 14 14 13 16 14 12 13 13 14 15 14 17 19 18 16 16 16 16 14 17 14 14 15 17 17
5 4 8 15 15 18 24 42 25 28 23 21 22 21 19 18 17 19 17 13 15 11 11 13 14 14 15 15 17 15 16 18 18 15 16 15 19 23 21 14 15 16 15
8 5 6 14 19 34 46 35 31 29 23 23 23 23 23 21 19 21 19 16 15 15 13 15 15 18 17 18 19 20 19 16 17 16 19 17 16 19 19 20 19 21 19
4 6 4 13 21 36 32 28 22 25 22 22 23 22 22 22 21 23 23 21 20 19 16 15 17 19 22 22 19 15 17 21 21 19 18 17 14 17 19 17 19 21 22
3 2 4 8 13 28 23 24 16 16 16 18 18 19 17 22 24 26 26 25 25 24 24 21 20 20 19 19 23 20 18 18 19 23 21 20 19 19 20 16 15 16 18
5 2 2 5 5 11 25 17 19 19 17 16 19 17 17 22 26 28 27 24 26 24 22 24 25 24 22 24 20 21 20 18 16 17 18 22 18 17 15 16 15 15 19
2 3 3 4 3 3 7 10 14 14 15 16 16 20 20 22 25 28 27 29 30 30 28 27 26 28 27 25 26 27 28 25 22 21 20 21 21 19 19 18 16 16 20
3 4 2 2 1 2 4 7 11 12 12 20 23 21 23 24 25 26 26 29 30 28 27 25 23 23 27 30 31 29 29 24 25 24 23 20 23 23 20 19 18 17 19
12 9 7 5 7 7 8 8 10 12 17 23 23 24 24 27 29 34 33 29 30 29 27 22 23 27 29 29 26 30 31 26 26 25 25 19 17 18 17 17 19 17 14
10 13 13 11 10 14 10 7 6 4 11 13 15 13 11 11 14 17 13 12 12 16 21 28 32 24 27 29 29 29 28 31 30 30 28 29 25 21 16 13 15 16 13
9 8 10 12 13 11 12 10 6 5 11 17 17 11 14 17 13 18 15 14 17 21 24 23 23 25 36 30 29 30 31 34 36 33 25 26 23 23 21 21 17 16 16
10 10 10 5 7 11 11 15 12 11 12 13 14 17 18 20 19 21 17 16 15 15 21 21 23 21 22 29 40 35 35 37 35 31 28 24 25 26 27 23 21 19 17
10 10 10 10 8 8 9 11 11 10 12 14 15 16 16 20 24 25 28 28 27 27 27 29 30 29 27 28 26 32 36 40 36 36 30 27 26 27 25 25 22 20 18
11 10 11 8 9 11 10 11 5 15 13 15 16 16 19 20 21 26 29 28 26 29 29 29 28 30 30 30 29 30 33 35 33 35 32 25 24 23 23 21 18 18 17
12 12 12 11 13 10 11 11 10 14 11 14 15 18 23 25 26 23 21 23 26 26 27 27 27 27 26 28 26 31 33 37 34 33 31 28 26 24 21 19 18 18 18
12 11 10 13 11 11 11 11 10 12 10 12 12 15 21 26 23 19 16 15 17 19 22 22 22 20 21 22 24 28 30 31 33 31 26 23 26 26 24 22 20 18 17
11 10 12 12 13 11 11 12 12 8 11 11 10 13 20 25 20 19 16 11 12 15 18 17 16 17 20 24 24 24 24 32 30 29 27 25 21 19 17 18 15 14 13
8 12 13 11 17 14 16 10 10 7 11 9 10 13 18 15 15 15 14 14 13 11 12 14 14 16 19 22 21 28 31 29 32 27 26 22 16 15 14 14 12 12 15
10 12 11 12 15 14 15 11 8 10 7 6 7 12 13 13 11 8 10 11 15 15 11 10 11 16 22 26 32 30 31 29 26 24 23 19 18 15 13 11 11 15 15
7 13 12 11 15 13 13 11 9 9 10 9 10 8 10 10 8 2 4 10 7 11 14 9 10 11 13 14 20 23 25 23 20 17 16 16 16 15 13 11 14 16 14
11 9 11 9 15 14 13 12 13 11 8 7 6 5 7 3 2 1 5 6 2 5 8 15 13 10 10 9 9 11 17 19 18 17 15 16 15 14 14 16 15 15 15
13 9 11 8 11 12 10 10 12 10 7 4 7 7 5 5 4 3 2 3 6 6 5 3 6 7 5 5 5 5 7 8 9 13 14 16 16 16 18 16 16 13 15
14 10 8 4 7 7 9 7 7 9 9 9 8 11 10 13 10 6 8 11 8 7 3 3 5 7 8 9 6 7 9 11 13 14 15 15 14 17 16 16 13 14 12

GFSGL_850_spd_099.txt.gz
Wind_Speed
44 37 37 41 34 29 32 27 27 27 25 19 21 21 15 16 17 17 15 12 12 12 8 12 10 6 7 8 11 13 16 19 21 18 15 14 17 14 13 15 17 19 18
39 33 28 25 32 18 6 20 29 26 22 23 20 22 15 14 17 20 17 16 14 14 10 12 12 10 8 7 7 9 12 14 18 18 13 14 12 11 12 13 14 14 15
29 26 5 17 17 27 5 16 28 16 17 18 23 23 20 19 17 15 15 14 16 15 12 10 12 13 10 9 9 9 11 13 15 16 13 13 14 14 13 13 13 14 13
20 20 20 24 31 25 20 21 38 24 29 24 28 28 24 21 21 18 18 15 13 16 19 15 13 14 12 11 10 11 11 14 15 16 15 16 16 15 15 13 14 15 16
14 10 9 17 21 19 21 23 30 30 33 33 30 28 25 24 24 22 20 21 18 18 19 19 16 14 12 12 11 10 11 12 16 17 17 14 16 18 19 16 14 14 14
8 7 3 5 11 15 18 21 44 41 39 33 31 28 25 27 23 21 22 21 20 18 19 16 15 15 18 18 14 12 13 14 14 16 17 17 15 15 17 20 19 18 19
7 4 0 5 6 9 12 21 32 28 22 23 26 26 24 25 24 24 25 25 24 22 21 21 18 16 19 19 16 17 15 14 15 17 18 18 17 18 16 20 20 19 18
11 11 8 7 6 7 8 20 32 19 20 22 22 23 21 19 21 23 26 25 27 27 26 25 22 20 19 18 17 18 19 20 16 14 17 18 18 17 18 17 16 16 15
11 8 8 4 2 2 13 16 20 18 16 16 21 20 18 18 17 18 22 24 25 28 28 28 28 27 22 23 23 23 19 22 18 17 16 17 20 22 21 18 20 20 19
6 6 4 4 4 7 8 18 22 18 11 14 18 17 16 15 18 19 23 28 27 27 29 30 29 28 26 26 28 25 24 24 21 20 18 18 18 18 21 19 16 17 20
14 5 4 3 3 0 4 7 10 15 15 12 12 14 23 19 25 24 20 20 24 23 30 33 32 29 27 28 29 27 27 23 26 24 22 21 22 21 23 23 21 20 21
12 15 13 12 7 2 2 3 6 7 9 12 12 11 10 16 23 25 23 24 27 31 34 29 27 25 28 27 30 28 22 22 25 26 25 26 25 24 23 25 23 21 17
8 11 11 11 13 13 12 6 1 4 3 3 6 10 8 3 9 12 14 18 19 22 22 24 29 32 24 23 31 35 32 29 27 29 30 29 28 24 19 17 16 15 16
9 10 10 7 10 10 11 14 13 7 4 7 11 13 12 10 14 18 18 17 21 24 27 25 23 25 30 31 32 28 34 35 33 32 33 32 27 27 26 22 21 19 20
5 3 5 4 5 7 10 11 10 10 9 11 11 10 10 12 17 22 25 26 23 20 21 23 24 26 30 29 31 31 30 34 37 37 34 34 29 28 31 29 26 23 23
10 7 8 7 6 8 11 11 7 7 10 10 13 14 12 12 14 16 19 25 29 32 33 31 28 27 30 28 29 30 30 29 37 43 41 36 34 31 33 31 30 26 24
11 7 9 7 9 12 9 10 6 9 12 8 13 13 14 16 18 22 23 24 22 27 32 33 35 33 32 32 32 35 35 32 28 34 40 38 36 34 32 28 30 27 25
6 7 10 12 16 13 8 9 9 10 13 11 12 13 15 17 22 24 21 19 16 17 22 27 29 30 29 29 29 31 30 28 27 28 31 35 36 35 30 28 29 29 26
5 10 12 15 15 16 17 13 12 13 12 9 11 11 15 18 20 18 16 12 10 13 12 14 15 20 23 23 20 19 21 25 25 29 31 32 35 33 29 29 29 31 29
3 9 15 13 11 15 13 9 10 7 11 10 10 14 15 19 16 16 15 17 14 13 12 15 17 16 17 16 17 19 20 22 24 26 30 37 37 33 32 31 31 31 28
3 11 11 11 12 12 14 11 6 3 6 11 13 11 17 19 16 15 13 15 19 17 16 12 15 15 16 15 16 18 19 19 23 30 35 28 27 24 33 34 32 25 22
3 7 11 8 12 12 9 10 10 11 11 9 8 12 17 16 15 12 9 12 13 17 19 17 13 12 12 13 12 15 18 20 24 29 26 29 32 34 34 30 26 23 21
7 7 12 11 11 13 11 14 17 15 10 10 11 11 11 12 10 7 7 9 5 11 11 14 14 13 8 6 13 17 24 32 38 35 36 33 31 27 25 24 23 24 24
14 14 18 14 12 15 13 11 16 15 13 11 12 11 10 8 7 7 10 7 1 4 9 9 9 13 14 14 14 16 15 16 18 21 18 15 16 21 24 24 24 22 22
17 15 15 16 14 13 8 13 14 14 11 8 11 12 13 11 11 10 8 2 2 3 5 6 5 10 14 16 19 14 7 8 9 9 15 16 16 18 18 20 22 21 18
18 15 17 18 12 15 15 15 15 13 12 11 11 12 16 16 17 14 10 11 10 8 5 5 3 3 1 2 4 7 7 7 8 10 11 13 16 16 13 14 15 16 19

GFSGL_850_spd_102.txt.gz
Wind_Speed
35 42 42 40 40 40 37 37 36 32 30 28 26 27 28 24 24 24 25 21 19 18 20 20 17 15 13 12 13 14 15 16 18 15 20 14 12 14 14 13 14 17 18
27 31 30 24 29 31 36 44 37 33 33 31 27 28 29 27 24 24 25 23 18 18 19 19 19 17 15 12 12 12 11 11 13 12 10 10 12 11 11 12 11 12 13
25 25 15 10 32 11 9 25 37 39 32 30 25 22 29 27 24 22 22 21 18 19 18 17 16 17 18 15 14 12 11 11 12 13 10 9 11 13 12 13 11 11 12
25 24 14 20 14 32 13 22 25 23 38 39 29 28 29 29 24 20 20 21 18 17 18 17 16 16 17 17 16 13 12 13 14 14 14 13 14 14 15 16 15 13 13
24 23 27 34 31 31 27 29 27 32 25 31 34 30 29 31 27 24 25 22 21 17 16 16 16 17 17 19 18 13 14 13 14 17 18 18 18 18 17 17 17 16 15
11 10 12 15 16 19 23 28 26 36 34 33 42 35 33 31 27 25 27 24 23 20 19 17 17 18 18 21 21 17 16 15 16 17 17 19 18 17 15 14 17 19 19
7 8 6 3 10 12 17 18 23 31 33 35 43 29 29 27 24 28 26 25 22 22 22 17 20 19 17 19 22 22 21 20 18 16 18 18 16 16 16 16 16 20 20
13 9 5 4 1 2 6 11 18 19 21 20 21 23 26 20 21 25 27 26 23 25 25 24 21 20 19 19 20 25 26 26 24 21 18 15 16 15 17 17 15 13 16
12 9 5 4 4 3 3 5 14 19 14 11 14 18 19 21 18 19 20 25 28 31 25 25 22 23 23 22 25 26 26 26 22 23 20 18 17 19 20 19 20 19 21
7 7 6 6 3 4 3 8 9 17 12 11 10 11 18 21 18 16 14 19 21 25 27 25 26 25 25 23 27 29 32 31 26 25 25 22 19 18 20 22 21 22 21
15 7 6 6 4 3 3 1 6 12 14 14 10 9 16 18 22 18 19 19 21 24 27 26 27 28 26 27 30 31 34 32 27 27 26 25 24 23 22 22 21 22 21
11 12 13 14 14 10 5 1 1 3 6 9 15 13 9 14 21 27 32 32 23 25 26 26 22 30 38 32 31 30 28 30 30 28 29 29 28 27 25 23 21 21 21
7 8 8 9 11 12 15 13 8 3 2 3 4 7 11 11 14 17 16 20 24 28 31 32 34 35 34 39 38 33 36 34 33 35 33 32 31 29 25 23 21 21 21
4 6 8 6 7 6 7 9 10 9 6 5 6 7 8 10 10 12 13 16 18 20 22 23 25 30 29 27 29 34 31 30 35 40 38 35 32 31 30 28 26 23 23
4 4 3 3 3 4 6 5 1 3 5 7 7 7 7 5 7 10 14 20 25 28 28 27 25 29 30 30 29 29 30 28 30 34 34 39 37 35 33 31 31 28 29
6 7 9 7 8 8 8 8 3 1 5 5 7 9 8 9 11 13 16 18 20 22 25 31 36 35 34 32 32 30 29 29 27 26 27 33 37 38 36 35 34 34 34
3 6 7 7 10 13 11 7 4 4 6 7 10 13 12 12 15 19 22 20 20 22 22 21 27 33 35 36 36 35 34 33 34 36 38 35 34 39 42 38 38 39 38
3 4 10 11 13 13 13 9 8 11 11 11 12 13 14 14 16 19 20 20 18 18 18 20 20 21 27 30 31 32 32 32 32 33 35 35 34 34 40 42 42 42 42
2 8 11 13 10 11 15 13 10 12 14 13 13 16 16 16 17 18 17 16 18 18 17 19 21 21 21 21 24 27 27 28 27 27 28 29 30 31 36 38 42 44 43
0 5 8 11 9 13 10 12 11 9 6 9 13 13 13 13 18 17 16 15 15 18 19 21 20 21 23 22 21 21 23 24 25 26 28 30 30 31 33 39 43 45 42
3 6 5 5 10 12 12 13 11 11 11 14 14 14 13 16 17 16 15 13 16 16 19 19 19 17 16 18 23 25 25 27 27 29 28 29 30 32 32 38 46 43 40
3 6 9 9 7 10 10 10 11 16 15 13 13 13 15 16 16 14 12 8 9 11 11 13 16 16 15 15 16 18 20 21 21 24 25 26 30 29 30 40 41 41 39
11 12 12 12 15 16 14 13 13 14 13 12 10 12 12 11 11 11 7 9 7 6 11 10 13 13 14 14 11 11 15 20 27 29 23 27 33 36 35 30 31 36 38
14 19 16 15 15 15 12 11 12 12 12 12 13 12 13 12 12 12 12 10 6 5 4 9 10 10 10 7 9 12 14 11 7 11 19 25 28 30 32 35 39 41 35
21 23 19 15 18 18 18 15 14 14 15 11 11 10 10 12 15 15 16 14 9 9 7 7 8 6 5 9 9 8 7 7 8 10 11 11 10 9 12 16 17 21 21
21 19 15 13 17 12 14 19 20 12 16 18 11 12 13 17 17 16 17 13 14 13 12 10 12 9 7 5 4 4 5 6 7 8 6 7 8 8 9 11 15 15 19

GFSGL_850_spd_105.txt.gz
Wind_Speed
47 46 44 37 36 39 39 37 33 36 36 33 31 28 26 24 23 22 24 23 25 26 27 27 27 23 21 19 18 18 17 18 21 24 20 14 13 15 13 13 16 17 18
10 13 17 22 18 6 25 35 32 34 37 34 31 31 29 27 27 26 25 24 25 25 24 24 23 20 19 18 16 16 15 15 16 16 14 13 13 13 13 12 11 13 14
12 13 9 20 9 24 20 14 23 31 35 38 38 35 33 29 27 29 26 25 25 23 21 21 21 19 20 18 16 17 17 14 13 14 13 12 14 13 13 12 12 13 13
26 21 28 12 12 10 3 23 30 32 36 39 30 33 33 30 24 24 23 22 22 21 20 20 20 19 17 17 16 15 15 16 14 14 15 14 15 15 15 16 17 16 13
13 32 13 9 11 19 14 17 18 21 26 30 26 36 34 25 21 22 21 23 21 22 20 21 20 20 17 15 15 14 15 16 15 15 16 18 19 19 19 18 18 16 16
29 16 14 10 7 14 20 17 22 26 31 27 28 31 39 30 23 26 27 26 24 22 21 21 19 19 19 19 19 16 14 16 16 16 17 19 20 21 20 17 17 17 20
8 6 4 3 0 4 5 10 19 29 33 30 25 25 28 31 26 28 29 28 27 25 24 23 21 21 19 18 18 20 19 19 19 18 18 17 18 18 19 19 18 18 18
7 7 5 3 4 5 8 13 18 24 27 26 24 25 29 30 24 29 28 25 25 27 27 23 23 23 22 20 19 20 19 21 21 21 21 19 16 15 18 18 18 18 18
10 9 6 5 2 1 3 4 7 9 12 15 13 18 19 24 26 25 20 20 29 27 24 22 24 25 24 23 23 22 21 22 19 21 22 20 21 20 19 19 21 20 22
6 7 7 9 7 6 5 7 8 6 9 9 12 16 17 20 22 20 22 25 25 25 23 23 25 26 25 26 24 24 24 21 21 22 24 23 21 22 22 22 22 24 25
10 7 7 7 8 8 6 4 4 7 9 8 6 8 13 18 20 23 23 20 17 21 26 27 22 25 25 26 26 26 27 24 23 24 26 25 25 25 24 25 23 24 26
8 11 13 14 13 12 5 5 5 3 5 7 10 12 11 8 13 23 25 27 23 24 22 23 24 27 27 25 31 31 25 24 25 26 29 29 29 30 30 28 26 25 24
8 9 8 9 10 12 11 8 8 6 3 2 3 2 6 12 13 15 17 19 22 25 30 32 30 31 32 33 32 33 37 39 30 29 34 33 33 30 31 29 28 27 26
5 5 5 4 5 5 6 6 10 10 9 9 6 4 4 7 9 10 11 13 15 17 19 21 20 24 32 38 36 37 39 41 41 39 36 38 36 35 35 33 31 30 30
6 8 7 4 4 7 6 4 3 5 6 6 7 7 7 6 4 7 10 13 15 19 22 24 28 31 33 32 33 32 30 31 32 34 32 32 34 33 38 38 35 34 34
6 9 9 7 7 7 5 5 1 3 2 2 4 6 7 6 8 11 13 16 18 19 20 20 22 23 27 34 36 33 29 29 29 29 29 30 32 34 35 33 35 36 39
4 6 8 7 9 9 9 4 1 4 4 5 6 7 8 10 10 12 15 16 16 17 17 16 18 19 21 22 26 34 37 36 33 31 29 30 30 32 32 32 33 37 38
3 7 9 10 9 11 13 9 3 8 9 9 9 9 11 13 14 15 16 17 17 17 16 17 19 19 19 21 22 22 27 32 35 37 38 37 37 39 41 39 38 38 40
3 6 7 7 9 11 12 11 9 6 9 11 10 10 12 14 16 16 19 17 17 16 17 18 19 21 21 21 21 22 22 24 27 28 31 33 35 37 37 36 36 37 43
4 3 4 6 7 9 10 11 14 13 10 9 11 13 15 16 15 16 17 16 15 14 15 16 18 21 20 20 19 19 22 22 24 25 27 28 30 31 34 35 34 35 40
3 3 5 4 4 8 9 9 11 9 15 14 15 17 18 16 17 19 18 14 11 12 12 15 16 16 19 20 16 18 20 23 26 27 29 29 30 33 33 35 35 36 38
6 8 9 8 10 12 14 16 14 12 14 13 13 13 14 16 15 14 15 13 10 11 10 11 14 16 15 16 18 18 17 18 20 22 25 27 30 33 32 33 34 36 36
7 10 14 16 15 16 15 15 16 14 12 13 13 14 14 14 14 15 16 13 14 12 9 8 10 12 13 14 15 14 15 19 19 17 21 24 26 29 29 31 36 36 35
12 15 19 22 20 17 18 19 19 18 18 16 15 13 9 10 14 16 17 17 16 14 11 11 11 10 11 12 13 14 15 13 12 15 17 14 15 23 28 32 35 37 39
16 17 20 20 19 16 16 20 19 21 21 21 20 17 14 13 17 20 19 18 20 16 13 14 15 13 13 12 13 12 15 14 9 7 8 7 6 6 9 4 10 21 28
18 20 22 23 19 16 17 17 16 18 22 21 19 20 18 15 15 18 16 17 17 13 16 18 18 17 15 13 12 13 10 10 9 9 8 4 2 2 3 13 15 15 19

GFSGL_850_spd_108.txt.gz
Wind_Speed
22 29 29 34 31 29 29 28 26 32 39 39 37 35 33 31 28 27 27 27 27 28 27 27 27 25 24 23 24 22 21 20 23 23 23 17 14 11 11 13 13 16 18
24 19 23 31 38 35 30 22 29 29 40 40 40 37 32 30 28 25 25 24 24 25 25 24 24 24 24 23 21 19 16 14 16 18 18 14 12 14 13 12 13 12 13
14 11 15 23 27 23 23 40 38 44 46 46 41 41 34 31 30 27 27 25 24 23 24 24 21 21 22 21 20 18 16 14 14 14 15 14 12 12 12 11 11 11 11
23 19 18 18 15 10 7 3 40 18 50 46 39 39 38 32 31 27 26 25 25 25 24 22 19 19 19 17 18 18 18 16 16 15 14 14 14 14 13 12 12 13 13
29 24 15 23 16 18 23 20 24 50 45 43 33 31 30 27 27 28 24 25 23 23 22 21 19 18 18 17 17 16 17 18 18 16 14 14 13 16 15 13 14 14 14
22 23 24 20 21 24 18 10 20 29 28 25 25 26 34 30 25 32 24 22 23 20 20 21 20 18 19 20 19 18 18 18 21 20 16 15 14 14 14 14 15 14 16
18 13 10 6 12 17 23 25 25 27 24 20 21 17 16 18 19 27 33 24 23 23 21 21 21 20 19 19 18 20 22 21 22 20 21 18 15 12 13 15 15 14 15
6 5 4 4 7 10 10 10 10 12 13 15 21 20 19 15 19 24 18 23 29 27 22 26 24 23 24 23 21 21 20 21 21 23 23 20 18 15 16 16 14 15 17
10 10 9 6 4 4 4 2 4 5 8 12 12 11 15 15 15 21 20 23 22 23 22 25 24 25 26 24 23 24 23 23 20 21 21 20 20 21 21 20 19 20 22
9 10 8 8 7 7 5 7 6 5 8 6 5 6 8 11 12 19 20 19 17 19 25 28 21 21 23 25 26 27 28 26 25 24 24 22 20 21 23 25 24 22 23
12 11 11 9 8 9 7 2 3 5 2 3 2 1 4 7 10 16 18 18 18 20 21 26 31 25 22 23 25 26 24 25 26 25 26 25 24 26 27 25 27 25 25
9 7 11 11 11 9 5 4 3 2 4 5 5 6 5 5 11 15 18 18 22 23 16 16 20 36 39 29 31 26 24 30 32 32 27 29 28 29 30 29 28 27 27
5 3 5 7 7 9 9 7 8 7 5 6 5 4 3 3 5 7 7 12 19 23 28 26 27 29 29 31 30 25 24 30 31 34 38 42 35 29 27 29 28 28 30
4 4 3 3 2 3 5 6 9 9 10 11 10 8 5 3 2 1 1 5 8 10 13 17 17 17 19 25 32 36 40 40 39 40 42 40 37 37 36 32 32 29 31
5 5 4 2 1 2 3 3 2 4 7 8 9 9 9 6 4 4 3 4 6 9 12 15 17 19 21 24 28 31 31 32 32 33 34 33 31 33 36 35 35 34 34
2 4 3 3 4 4 4 3 3 2 3 5 6 6 7 7 7 9 10 11 12 13 13 11 12 15 18 20 21 23 26 31 35 31 30 29 29 30 29 28 29 29 30
3 5 6 5 7 7 5 2 4 5 2 2 3 5 7 9 10 12 14 14 14 12 13 14 14 15 16 17 19 21 22 22 25 31 34 32 29 28 29 29 30 29 30
4 6 7 6 7 8 10 10 3 5 7 8 8 7 7 9 10 13 15 15 16 15 14 15 17 18 18 20 20 21 21 20 21 22 26 30 33 34 34 34 34 35 36
3 3 3 4 6 7 6 8 9 9 7 6 6 6 7 11 13 16 17 17 18 16 14 13 13 15 17 19 20 20 20 20 20 21 22 23 27 28 31 35 36 38 37
2 2 4 6 5 7 9 9 8 6 10 9 9 11 11 12 14 15 16 18 17 16 13 11 10 13 15 16 19 17 17 19 21 22 24 23 24 27 31 32 33 34 35
3 5 7 6 5 7 9 12 12 10 9 10 9 10 11 13 14 16 17 16 14 12 10 9 11 11 13 12 14 18 20 20 18 20 24 25 28 30 29 30 32 32 33
7 8 9 10 12 13 14 14 14 11 10 9 10 11 14 14 12 11 11 13 15 11 11 11 11 10 9 12 13 14 14 18 19 18 16 18 25 26 29 33 32 32 36
8 10 13 16 18 18 18 17 17 16 15 13 14 14 13 12 11 12 14 15 17 17 15 14 14 11 10 10 12 13 16 18 19 21 21 18 17 17 23 25 29 30 33
11 14 16 18 20 22 22 21 20 21 21 19 19 18 18 16 15 15 17 18 18 18 18 18 17 17 15 15 15 15 17 18 18 18 14 16 18 19 17 16 21 26 31
18 20 21 22 23 23 23 21 19 21 24 21 22 24 24 22 21 19 17 19 19 17 20 19 16 18 18 17 17 17 16 16 14 15 17 17 15 12 11 7 13 13 18
19 19 19 19 19 20 20 20 21 22 22 21 21 22 24 24 24 24 20 18 17 17 16 14 16 19 20 20 19 17 17 16 12 11 13 13 15 10 12 13 11 12 17

GFSGL_850_spd_111.txt.gz
Wind_Speed
23 24 27 23 23 28 33 37 37 32 31 31 29 26 29 32 31 32 33 32 33 32 32 30 30 29 29 28 27 26 26 25 26 25 23 19 16 14 12 12 12 12 15
24 28 27 27 31 35 37 36 36 36 38 33 31 31 27 30 29 28 29 31 32 32 32 31 28 27 28 28 26 25 24 22 21 22 19 16 13 12 12 14 12 12 13
22 24 29 32 33 33 38 32 32 33 35 37 32 31 29 33 32 33 29 28 29 30 28 27 25 25 25 25 25 23 21 21 20 19 14 14 12 12 12 13 12 12 12
22 24 24 15 18 20 25 34 40 40 37 39 40 37 30 31 34 34 29 29 31 31 30 27 24 25 25 22 22 21 21 20 20 20 18 16 14 13 14 13 14 13 14
19 22 22 16 17 21 18 16 15 15 25 27 30 30 33 30 33 32 28 27 31 33 31 30 26 25 23 19 19 19 19 20 21 21 17 17 17 14 14 14 14 15 15
10 21 22 24 19 20 18 12 9 13 22 23 21 22 25 23 23 26 27 29 34 35 31 28 24 24 22 21 20 20 19 19 19 20 19 19 17 15 13 13 13 15 15
4 8 14 18 15 24 22 18 19 14 13 14 15 17 20 24 25 23 25 25 33 33 27 23 20 23 22 20 20 20 20 20 22 20 20 20 18 14 12 14 15 15 14
10 6 5 12 14 9 11 17 21 22 24 23 22 15 16 18 18 26 26 33 38 35 30 21 21 21 20 19 20 21 21 21 23 24 24 21 20 17 17 17 17 16 16
13 9 8 4 0 2 6 11 13 14 11 13 20 17 16 19 10 12 18 26 30 29 33 25 20 22 19 22 21 23 23 25 22 22 22 21 21 21 20 20 18 20 20
9 7 7 6 4 3 3 4 4 5 4 5 8 8 11 11 14 12 17 23 18 20 21 27 29 21 19 21 21 19 23 24 22 25 25 24 22 23 23 25 21 20 17
13 12 9 8 7 8 4 3 2 4 5 4 3 4 6 10 13 16 24 24 21 19 22 22 23 27 24 19 15 15 18 23 20 21 26 25 23 23 26 27 28 25 22
9 9 11 13 12 9 7 7 4 2 1 2 4 4 3 4 7 11 14 17 17 19 21 21 22 25 35 36 30 29 25 21 24 23 26 25 28 22 23 27 29 32 31
7 8 10 9 9 10 9 9 9 8 7 6 4 2 3 3 4 7 9 13 13 12 14 18 18 15 19 27 38 42 44 38 28 25 25 29 29 27 27 28 32 32 34
9 9 7 7 7 7 7 9 10 10 10 10 7 5 6 4 4 4 2 3 5 7 8 12 16 19 18 17 24 28 36 39 45 51 49 43 38 39 39 39 38 37 38
10 10 9 8 6 5 5 5 5 7 8 9 10 9 7 6 6 5 4 4 5 4 5 8 11 13 15 17 19 22 25 28 31 33 36 37 36 39 43 43 39 34 40
8 9 8 9 9 8 7 4 3 5 5 5 5 5 5 4 4 5 6 6 7 8 6 6 6 6 7 8 11 14 18 21 22 25 28 29 30 29 29 30 31 30 30
5 6 7 7 9 11 10 7 2 2 1 2 3 3 3 4 5 5 8 10 10 10 9 9 7 6 7 8 10 12 14 14 16 18 19 21 24 30 30 28 30 31 32
5 6 6 7 8 8 8 9 8 3 4 8 9 8 7 7 8 9 11 13 11 11 9 6 6 6 7 10 11 12 13 14 14 14 16 18 19 22 24 29 34 34 33
5 4 4 6 7 7 7 7 6 5 6 6 5 5 7 9 12 12 14 15 13 12 12 10 8 9 11 13 9 9 9 10 13 13 15 19 18 21 23 26 29 32 33
5 6 7 7 6 7 8 9 9 8 7 7 6 5 9 10 11 11 15 16 16 15 14 12 10 10 13 12 9 10 13 13 12 14 14 16 19 22 24 25 27 30 33
4 5 6 8 9 10 11 12 13 12 9 9 8 9 10 12 10 10 11 10 11 12 13 12 12 12 11 10 9 9 9 11 15 16 16 16 17 18 22 25 28 30 33
4 5 8 9 12 12 13 15 14 14 13 12 12 13 13 13 13 11 10 12 13 15 15 15 15 15 14 13 11 9 9 11 15 19 16 16 17 19 19 19 25 26 31
7 9 10 12 15 17 15 15 14 15 16 18 16 16 17 19 18 17 17 15 16 18 19 20 19 18 18 17 15 15 14 14 15 16 17 15 18 22 23 23 22 21 26
9 12 13 13 12 14 13 15 15 14 16 18 20 19 20 20 19 19 22 21 20 20 20 19 19 21 22 22 20 20 18 18 16 14 14 14 14 18 18 19 14 17 21
13 13 14 14 14 13 14 14 14 14 14 15 18 20 17 17 19 21 21 25 26 25 22 20 20 21 21 21 22 21 20 20 18 17 16 15 15 15 16 17 21 18 20
11 12 11 11 11 12 13 14 14 15 15 15 17 17 17 17 16 16 15 17 20 21 23 22 20 17 18 19 22 22 22 22 20 20 17 14 13 11 13 12 14 15 12

GFSGL_850_spd_114.txt.gz
Wind_Speed
15 15 16 21 24 25 36 36 33 32 35 32 32 31 32 33 34 36 35 31 30 30 28 30 29 26 27 26 28 28 26 25 24 19 18 18 19 15 13 13 12 12 12
17 16 18 22 21 23 28 30 31 32 30 35 39 37 33 30 32 33 32 30 31 29 28 26 24 21 22 23 25 26 25 20 19 20 17 16 15 12 13 13 13 13 11
17 17 18 21 21 23 28 27 28 29 27 27 32 32 36 33 27 31 30 30 29 29 27 25 23 22 21 19 20 22 23 20 20 18 16 13 11 12 12 13 14 14 13
17 17 19 21 19 22 22 20 23 27 29 27 28 33 31 29 31 28 27 28 28 27 25 25 24 22 21 18 19 20 19 17 18 17 16 16 17 12 13 12 14 13 12
17 19 18 14 15 11 11 10 12 14 19 28 28 27 25 27 27 27 28 30 29 26 26 27 24 25 22 20 17 18 19 21 20 20 18 16 17 13 14 11 13 12 13
16 18 14 13 11 11 11 9 9 12 13 15 18 21 27 29 31 31 32 34 35 34 33 27 24 25 25 22 22 21 22 23 23 18 17 19 16 14 13 12 13 11 11
8 7 13 11 9 10 10 12 11 12 11 10 15 18 20 20 23 25 26 34 32 29 29 27 25 25 23 22 21 21 26 26 23 20 19 18 16 14 15 14 14 13 10
4 3 8 9 7 9 9 10 14 14 14 16 18 16 17 18 21 23 25 26 29 30 28 25 26 25 23 23 20 23 28 29 26 26 23 20 18 17 17 14 16 17 13
1 2 2 6 7 8 11 9 6 9 11 10 10 14 20 19 18 16 25 29 30 26 24 26 28 30 26 19 18 22 24 23 20 22 21 22 22 21 20 18 16 17 15
12 6 6 5 6 8 6 2 3 3 3 6 7 8 13 15 15 15 17 15 18 19 20 22 25 23 23 22 24 25 27 24 18 17 21 23 23 24 24 24 22 21 18
11 10 8 5 5 2 3 2 6 6 9 8 5 1 6 9 10 11 15 16 16 14 13 13 9 14 28 27 21 22 21 19 18 18 17 20 20 24 23 21 24 24 23
6 6 8 8 6 4 6 5 4 5 7 6 4 2 3 2 4 6 9 15 15 14 12 10 12 15 20 25 27 26 24 22 17 19 18 18 23 23 21 19 19 20 22
5 5 6 8 9 10 9 9 8 9 10 8 8 7 7 7 6 2 4 7 8 9 11 14 13 16 20 23 26 30 34 37 37 37 36 36 24 23 24 26 26 27 28
7 6 5 7 8 6 5 6 8 8 9 6 6 7 7 7 8 9 7 4 2 1 2 5 12 16 18 20 20 20 25 28 31 36 40 42 45 53 53 42 33 34 38
7 6 6 6 5 5 5 5 7 6 8 6 8 7 8 5 7 8 6 5 5 3 2 2 5 8 8 9 9 11 14 16 20 22 27 33 37 37 33 32 42 50 53
6 6 7 8 7 7 6 4 3 5 6 6 7 7 5 4 5 5 6 6 5 4 3 1 2 2 3 5 8 9 8 12 15 19 22 25 28 30 33 34 34 33 36
7 8 8 9 8 8 7 5 1 1 2 2 1 1 2 3 3 5 7 8 8 7 3 3 3 3 4 5 5 7 8 11 13 13 17 19 18 22 25 28 31 35 34
8 8 7 6 6 5 5 4 5 3 3 4 7 6 5 5 5 7 8 10 8 8 5 5 4 5 6 6 9 7 9 11 10 9 12 16 18 18 22 22 25 29 32
6 5 5 5 5 6 6 6 5 4 4 4 5 7 5 7 9 11 12 13 8 9 9 10 7 9 10 9 8 7 7 8 10 11 11 13 15 19 21 21 25 25 26
6 7 8 6 6 6 6 7 7 7 6 5 4 3 6 7 7 9 10 9 10 8 8 8 8 12 10 10 7 7 7 8 7 8 10 11 12 13 16 22 23 27 28
5 6 9 9 9 10 10 10 10 9 9 8 8 7 9 8 8 8 8 8 8 8 9 9 9 11 14 14 10 10 10 10 7 9 10 12 13 15 13 16 18 21 28
5 6 7 8 9 10 11 10 11 12 13 13 12 12 13 12 11 11 11 10 11 11 10 10 10 11 14 17 14 14 15 12 11 11 12 12 12 13 14 16 18 19 19
6 8 10 10 11 12 12 11 12 12 12 13 15 15 16 17 16 15 14 14 14 14 13 13 14 13 13 15 16 17 17 16 15 13 13 13 13 14 15 16 17 18 19
9 11 11 11 11 12 11 12 13 13 13 13 13 14 16 18 19 20 19 19 18 18 18 17 17 18 16 14 16 20 20 21 19 19 16 16 16 16 15 17 18 20 21
9 10 11 11 13 13 14 14 14 14 15 15 15 14 15 15 16 17 18 18 19 21 21 21 22 21 21 21 17 19 21 26 25 24 23 22 19 19 18 16 16 16 19
9 11 12 13 13 14 14 15 16 16 16 16 16 16 15 15 15 14 13 13 14 17 19 20 23 23 25 25 25 23 23 24 27 25 25 23 22 17 17 16 15 13 15

GFSGL_850_spd_117.txt.gz
Wind_Speed
18 19 18 20 19 25 28 35 39 42 38 41 31 35 34 34 36 40 37 32 31 31 31 31 30 29 25 23 22 22 24 26 25 20 18 17 16 20 25 17 17 16 12
21 22 23 23 21 21 24 29 35 36 31 37 36 40 33 32 34 39 37 31 34 31 28 28 29 24 27 27 27 25 24 25 26 23 17 17 16 17 17 17 16 15 13
22 24 23 25 25 24 26 23 24 26 32 28 35 34 31 42 35 34 34 33 32 30 29 27 28 29 27 25 24 24 21 22 22 20 16 15 14 12 12 16 16 15 17
22 26 25 23 22 24 24 24 22 24 24 19 22 21 26 40 40 35 28 31 32 30 28 29 30 30 27 29 27 24 22 20 19 19 16 13 15 14 16 16 16 16 12
21 23 24 24 22 23 21 19 17 17 17 14 17 16 23 27 18 26 28 30 30 32 31 30 31 27 26 24 24 23 22 22 19 21 17 13 14 16 14 14 16 13 16
16 19 20 23 22 18 17 15 11 9 10 10 14 15 19 20 22 25 28 28 30 30 32 34 30 29 30 31 28 25 21 23 22 21 20 17 15 18 16 15 16 16 14
11 15 16 17 19 17 15 12 9 10 11 11 11 14 14 15 23 28 28 31 31 31 33 34 32 26 27 30 30 27 27 26 25 25 23 20 14 17 19 17 18 17 14
9 13 11 10 16 13 10 9 9 12 13 12 11 11 12 14 20 20 22 25 28 32 35 34 36 31 27 28 24 24 28 29 28 27 26 22 16 19 21 19 18 17 17
9 13 12 11 3 8 7 5 7 10 12 13 14 14 14 15 13 14 17 20 20 23 25 31 29 30 32 28 25 23 24 27 26 25 23 24 21 21 24 21 19 17 14
7 16 14 5 5 7 7 3 4 6 8 8 8 10 10 13 16 15 17 14 15 23 24 23 23 26 25 25 26 28 27 26 20 19 21 23 23 24 26 24 22 22 18
15 16 16 14 10 4 3 2 5 6 6 7 6 6 6 6 9 11 13 14 10 12 17 20 14 15 19 22 26 28 23 22 21 23 22 20 20 23 22 22 22 24 25
14 13 14 16 15 14 12 10 5 6 9 6 5 5 5 4 6 7 10 12 11 12 7 8 10 11 13 17 21 25 18 17 20 20 19 20 20 22 20 19 18 19 20
13 12 11 12 12 18 19 14 13 11 10 10 9 8 9 9 8 6 7 7 9 7 9 11 10 11 11 13 14 16 19 20 23 23 25 27 29 28 32 33 28 23 23
12 10 9 10 13 11 10 9 8 9 7 6 7 10 9 10 9 10 10 9 5 3 6 7 9 12 12 12 12 11 14 18 22 23 23 23 24 27 32 35 39 40 41
8 8 8 7 8 7 8 6 10 6 7 9 10 7 9 8 10 9 8 7 6 3 3 2 2 3 4 2 3 4 8 10 13 13 16 18 19 21 24 24 27 30 30
6 6 5 6 7 8 6 7 6 6 7 7 7 7 6 7 8 8 9 9 9 6 3 1 1 1 2 3 3 5 6 8 8 10 13 14 13 14 16 16 20 24 28
5 4 5 7 7 6 7 6 1 4 4 3 3 3 2 3 3 4 5 6 8 5 2 2 2 3 4 4 3 5 5 7 11 10 10 11 12 12 13 15 15 17 20
3 6 6 6 5 7 6 6 7 6 4 3 7 8 5 5 4 6 8 7 6 6 0 3 3 4 4 5 4 6 7 8 7 6 8 9 10 11 11 14 16 18 19
4 4 5 5 6 6 7 6 6 6 5 4 8 5 7 10 7 7 7 10 4 4 6 6 4 5 6 6 7 6 5 5 9 7 7 8 8 9 11 13 15 18 20
5 8 8 5 5 6 6 7 7 7 7 6 6 4 6 12 12 11 8 7 6 7 6 7 7 8 12 12 8 7 7 8 8 8 9 9 9 10 11 13 13 13 15
3 4 7 6 7 7 7 9 7 8 8 8 8 9 8 12 9 7 6 7 7 7 7 7 8 7 10 15 8 10 13 11 10 11 10 11 12 12 11 12 15 15 19
6 6 8 8 8 8 10 9 9 9 9 10 11 12 11 8 11 9 9 11 10 9 9 9 10 10 10 11 12 13 14 15 15 16 15 13 13 14 13 14 15 17 16
8 10 11 10 9 10 10 10 9 10 11 12 12 11 12 13 15 15 15 14 14 12 13 13 12 14 15 13 14 14 15 16 16 18 18 18 16 15 15 17 18 19 18
8 8 11 11 8 11 11 13 13 12 12 13 14 13 12 12 14 16 16 16 13 10 9 15 17 17 19 21 21 20 18 16 16 18 21 21 18 18 18 19 20 22 19
8 10 11 13 13 14 15 15 15 15 15 13 13 15 16 17 18 16 16 15 12 12 16 15 20 23 25 19 22 20 23 25 24 22 22 21 21 23 24 23 22 20 17
9 11 11 12 13 13 14 15 15 16 17 15 17 19 17 16 20 24 24 23 18 20 21 19 19 19 18 20 24 26 26 29 27 27 27 23 22 22 23 24 21 19 17

GFSGL_850_spd_120.txt.gz
Wind_Speed
21 23 25 27 26 27 29 32 38 42 47 47 48 36 39 33 29 29 34 37 36 36 35 34 33 30 29 30 33 33 30 29 30 32 30 24 24 23 21 23 24 27 20
25 30 30 33 31 30 31 31 29 36 42 44 48 57 36 22 15 21 29 36 40 38 36 32 35 32 31 30 31 30 27 26 28 30 27 23 22 18 19 20 18 16 15
31 26 25 28 31 37 33 31 31 32 32 42 38 48 33 36 39 46 37 38 41 41 40 34 32 34 35 33 29 32 33 32 31 30 28 23 20 20 20 18 17 14 13
35 33 29 30 31 34 33 31 31 31 32 25 26 14 29 37 42 32 41 49 43 42 43 40 36 33 33 34 32 31 29 28 27 26 23 20 18 19 19 19 18 16 14
23 24 27 28 29 30 33 30 30 30 26 25 21 17 23 21 38 36 32 29 47 53 43 42 36 32 33 34 32 32 31 30 28 26 23 20 18 20 26 24 19 13 16
18 16 16 20 25 28 30 30 26 25 23 20 18 18 17 20 27 24 37 25 31 54 39 42 38 32 33 36 35 27 26 26 28 27 27 22 20 17 20 20 20 18 16
18 16 16 19 20 21 23 22 19 18 17 17 19 18 18 21 21 22 25 28 30 31 34 37 38 36 35 34 33 30 30 28 27 25 28 29 25 26 21 20 18 18 20
19 18 20 19 14 11 13 17 17 15 16 18 17 16 15 16 22 24 24 25 28 29 27 29 32 34 36 35 34 34 33 34 32 30 30 27 24 22 20 18 18 18 20
18 19 17 16 12 5 18 13 15 16 19 18 16 15 15 14 18 20 23 23 25 27 29 29 31 32 33 35 31 30 28 25 30 30 31 29 26 25 22 20 20 20 21
21 21 19 23 30 16 12 12 15 15 15 13 13 12 12 13 14 14 14 13 12 15 17 17 21 26 29 29 28 26 23 24 25 30 27 27 24 22 21 23 23 21 22
20 19 19 23 26 4 11 10 7 8 10 10 10 10 10 8 12 12 13 13 12 10 11 14 18 16 20 21 19 19 20 23 23 23 23 21 21 24 26 26 22 26 24
17 15 14 16 16 14 20 25 21 15 10 11 9 9 6 4 4 6 8 9 11 6 6 7 10 11 11 13 13 14 16 19 19 24 21 23 23 22 21 22 30 22 17
16 15 14 17 14 21 17 16 15 19 17 13 14 16 18 15 13 10 3 6 5 4 8 6 5 6 8 8 7 9 10 18 16 15 16 19 20 19 19 22 23 25 26
15 15 11 10 11 15 14 14 14 19 21 13 12 15 17 14 13 15 14 13 7 2 4 6 7 7 9 8 7 7 7 8 11 15 18 21 21 21 24 26 27 27 31
12 14 15 7 11 13 15 13 12 10 13 14 17 15 13 12 10 9 6 5 4 2 7 9 5 3 3 4 4 3 1 3 5 6 8 9 11 13 16 17 21 22 22
15 11 14 16 13 11 8 11 13 10 9 9 9 10 10 9 8 8 9 9 8 7 8 4 3 3 2 2 1 3 6 4 6 9 10 12 13 13 10 10 11 16 19
10 12 14 13 14 10 11 8 2 7 8 9 8 7 6 5 4 5 7 7 9 5 5 2 2 1 2 2 3 4 3 5 10 13 10 9 9 10 8 12 13 12 14
10 9 12 10 9 11 12 13 12 10 5 8 9 8 10 7 5 6 8 6 2 4 2 2 4 3 4 4 5 5 4 10 11 6 3 6 7 10 10 10 11 10 14
7 6 5 5 8 9 10 11 12 11 8 5 6 6 11 10 9 5 10 9 7 4 3 1 2 2 6 8 7 8 6 6 7 9 9 8 8 9 10 10 11 10 12
5 11 10 8 9 9 8 10 9 8 8 9 11 2 3 8 12 11 3 6 5 3 4 2 5 9 9 8 10 10 6 6 5 7 8 10 8 11 15 16 9 12 12
13 6 9 15 6 8 6 11 5 6 6 7 8 9 5 11 9 8 9 8 5 8 8 9 8 6 9 8 6 7 8 11 11 13 8 11 9 12 15 13 12 12 15
9 9 10 10 12 10 12 9 13 7 9 11 11 11 11 10 10 13 14 12 12 11 9 10 10 6 9 12 11 16 11 8 12 14 16 17 20 15 16 18 17 16 16
9 10 7 7 8 8 10 14 9 12 12 11 10 8 10 10 8 14 13 10 13 7 4 2 4 6 11 9 12 13 13 14 13 16 20 22 22 20 21 20 18 19 19
10 6 8 13 11 10 12 9 12 11 12 11 10 10 11 13 15 15 17 16 12 6 11 7 11 9 12 17 15 18 15 17 18 19 17 18 19 20 17 20 21 21 22
4 6 8 12 12 13 13 13 14 13 14 15 12 11 11 12 14 12 17 18 17 15 11 11 14 14 20 17 17 13 20 19 20 26 27 21 21 21 22 23 23 26 26
8 9 9 10 11 11 12 13 13 13 14 14 15 16 16 14 16 20 18 15 19 20 14 12 12 11 16 23 23 25 23 24 24 23 24 26 27 26 26 24 24 25 25

GFSGL_850_spd_123.txt.gz
Wind_Speed
32 27 26 28 31 31 32 31 30 31 36 44 49 55 48 41 49 45 41 38 40 41 41 39 37 35 35 35 33 34 32 32 33 34 33 26 26 27 23 25 24 25 25
30 30 30 27 29 33 36 34 35 34 31 31 38 43 50 44 38 31 30 29 35 39 39 36 35 33 34 33 35 36 37 35 35 36 33 29 24 24 27 26 25 23 24
31 33 34 39 34 30 35 36 36 37 36 31 29 32 36 32 27 3 28 24 29 33 36 36 35 34 36 35 36 37 37 37 36 36 32 27 26 23 27 25 22 22 19
27 28 28 29 33 34 36 37 37 34 32 32 28 27 27 31 13 11 18 33 38 48 37 36 33 34 36 35 36 37 36 37 35 34 34 33 28 20 20 25 24 25 22
24 24 23 23 24 26 32 36 36 32 29 29 29 27 28 30 31 23 31 19 44 43 45 41 34 35 35 38 38 39 36 36 35 33 33 30 27 22 23 23 23 23 21
24 24 25 25 25 26 27 28 30 29 28 29 31 29 27 28 28 29 37 44 52 46 42 46 46 41 36 33 39 41 40 34 36 35 35 33 29 22 22 22 20 21 20
25 25 26 26 28 29 29 22 22 25 25 27 28 27 27 25 24 20 30 40 42 39 31 34 50 51 33 32 38 43 41 35 32 28 29 29 28 24 25 22 24 21 21
25 26 24 25 30 25 25 19 15 13 16 20 22 24 24 22 21 22 29 36 41 40 27 31 30 39 49 47 37 42 44 38 34 31 27 27 25 26 24 26 24 22 20
24 26 24 26 31 27 26 17 10 14 16 18 20 21 21 20 20 22 21 27 30 32 31 35 32 28 32 38 41 41 36 34 32 32 32 31 28 26 25 25 25 23 23
23 25 23 26 28 32 7 2 10 12 13 15 15 19 19 17 16 15 16 19 21 22 25 30 32 30 29 31 35 36 36 34 30 29 28 30 30 28 26 25 26 25 25
18 20 18 23 27 24 18 15 15 6 9 9 11 17 16 17 15 18 17 15 17 16 15 18 21 20 23 24 28 31 33 34 30 25 23 25 27 24 23 23 22 24 23
17 15 15 16 21 19 20 30 33 19 14 9 3 9 8 7 7 11 12 13 13 12 9 10 9 8 8 8 11 16 19 20 19 17 16 19 21 21 20 21 20 21 24
16 15 17 13 13 16 17 22 18 18 20 20 23 24 21 18 18 13 8 7 7 7 8 8 8 8 7 7 7 7 8 11 12 11 9 9 14 13 13 15 18 19 17
15 15 19 8 7 11 16 18 20 21 17 20 20 20 20 17 17 17 15 10 7 6 5 5 4 3 3 3 3 3 3 3 5 8 9 9 12 14 16 18 20 21 22
14 17 24 9 4 12 13 15 17 19 19 16 19 18 16 16 16 14 11 9 8 10 13 13 11 9 10 9 8 8 7 4 3 2 2 2 3 3 5 8 10 12 15
9 17 21 20 17 12 10 11 13 16 15 15 15 15 15 13 12 12 10 9 8 9 9 9 10 10 10 9 7 5 4 1 1 3 6 8 10 10 9 6 5 7 11
10 14 16 17 14 20 24 6 9 13 16 15 16 15 11 10 9 9 8 7 8 5 6 8 8 7 7 8 4 4 4 2 5 10 11 10 8 6 3 2 5 10 10
9 5 8 15 14 14 18 19 18 11 10 10 11 18 19 17 13 15 12 3 7 9 6 3 2 2 1 3 5 7 8 7 8 5 5 3 4 4 4 4 3 6 7
11 6 5 11 8 9 11 11 11 9 13 11 7 12 11 16 12 9 14 13 9 9 4 3 2 4 8 5 6 6 5 5 5 7 3 4 3 3 3 8 11 8 8
1 9 11 13 6 6 10 10 7 8 8 9 11 7 5 12 9 8 6 4 5 4 3 2 3 4 5 6 9 7 5 2 1 4 2 4 6 8 9 11 8 8 8
10 6 7 12 13 11 10 10 13 9 3 8 10 8 6 11 13 11 10 7 9 7 8 10 8 11 7 8 6 8 11 10 7 7 9 9 7 11 12 11 12 11 12
8 7 8 8 9 8 8 10 9 12 10 11 7 6 5 6 9 14 14 13 14 14 1 7 7 6 8 10 9 5 4 5 5 9 11 9 12 14 16 18 16 19 17
6 4 5 14 11 10 12 14 16 20 16 11 11 9 9 8 7 8 5 7 9 8 7 4 4 2 4 4 8 10 12 14 14 14 13 14 15 17 19 20 21 22 21
6 7 7 11 10 10 10 13 14 17 15 10 9 8 9 9 10 11 14 15 9 5 5 7 7 10 11 12 10 9 9 13 16 19 18 19 19 19 18 16 16 17 18
7 5 9 10 9 9 7 7 9 14 12 14 14 14 12 13 15 17 20 17 17 13 9 6 9 10 11 14 15 16 17 17 20 19 19 21 21 21 23 25 27 25 22
8 7 6 8 9 9 8 8 10 13 12 11 11 8 6 8 12 14 17 17 17 17 17 15 13 17 19 20 21 21 22 24 25 24 23 22 23 25 24 27 27 27 26

GFSGL_850_spd_126.txt.gz
Wind_Speed
32 31 30 29 32 33 33 36 37 35 33 33 31 32 37 47 53 52 52 45 46 47 47 49 46 40 38 38 37 37 36 34 36 35 33 28 25 26 26 27 23 22 23
27 29 28 28 30 32 37 36 35 38 35 35 33 32 30 32 35 38 51 40 39 44 44 45 45 41 39 38 37 35 37 36 36 36 34 33 29 27 26 24 23 23 23
26 26 24 25 25 27 31 35 39 32 36 36 36 35 32 32 29 27 26 19 42 27 39 34 37 37 38 36 37 34 36 36 36 37 36 33 32 29 25 24 24 25 22
25 25 25 25 24 26 27 28 29 33 35 36 36 34 32 32 28 27 16 25 22 35 35 39 34 34 39 37 37 35 31 34 34 35 35 34 32 30 29 28 26 26 26
23 25 27 28 28 27 27 28 28 31 35 36 36 34 33 34 28 26 26 25 34 35 53 55 39 35 34 35 36 35 33 31 33 33 34 33 32 30 29 25 25 23 22
22 23 27 30 30 28 29 28 27 28 28 31 32 31 31 32 28 28 31 32 34 38 43 43 35 35 38 34 34 36 36 33 33 33 32 33 32 30 26 26 25 22 24
19 23 24 24 26 28 35 33 26 25 23 24 26 29 31 32 31 28 30 34 34 38 39 41 37 28 30 39 43 41 39 37 33 30 30 31 29 28 25 26 25 26 27
17 20 21 25 34 38 33 26 21 18 17 17 21 22 24 27 27 24 25 31 34 38 41 41 36 32 30 26 36 41 35 30 34 33 31 31 27 22 23 23 25 25 24
19 20 21 28 33 36 33 27 13 14 16 12 12 14 17 18 20 22 23 24 25 31 39 39 35 31 28 23 28 49 52 45 33 32 30 31 30 26 25 24 26 24 23
19 20 21 21 30 28 28 34 13 9 10 8 12 13 15 14 16 17 19 21 21 24 26 29 32 38 38 29 33 35 31 41 34 29 26 31 32 32 33 29 26 26 25
20 20 19 19 25 23 21 26 32 9 7 10 7 10 14 16 15 16 15 16 16 17 17 18 20 21 24 27 28 28 27 23 26 26 30 30 29 29 30 29 28 26 25
21 18 22 13 21 19 13 27 30 29 20 13 8 0 6 11 13 18 15 13 10 10 13 13 15 15 17 15 17 21 23 21 24 30 32 27 22 21 21 22 21 20 20
19 24 19 11 12 13 16 18 21 24 29 32 20 23 20 17 12 12 8 8 10 8 7 7 8 6 6 6 6 6 9 13 15 14 12 8 11 12 14 16 18 18 18
17 21 17 11 9 10 13 14 14 20 20 19 22 23 18 19 22 19 14 11 9 9 8 8 7 8 8 8 8 8 8 8 9 10 9 9 7 6 8 10 12 13 15
15 14 18 14 11 12 14 15 17 17 18 17 17 17 17 20 21 18 15 13 15 14 15 15 13 6 6 9 8 8 10 10 7 7 6 5 3 3 4 7 11 12 12
6 12 17 16 23 17 10 10 14 17 16 14 13 12 14 16 15 14 14 13 11 11 11 11 14 13 12 11 10 8 9 7 6 4 1 1 3 4 5 7 6 4 3
7 9 12 14 17 17 16 12 8 13 14 16 20 18 16 17 16 11 9 12 10 10 14 12 14 11 9 9 7 4 5 4 4 6 5 6 8 7 6 3 1 3 6
8 5 9 9 10 11 11 10 12 14 10 11 16 18 16 13 14 16 10 14 13 12 10 8 11 13 11 8 6 5 5 5 4 5 5 4 4 4 4 6 4 2 2
5 10 11 4 7 9 9 7 8 9 10 8 9 8 13 13 13 12 12 12 13 10 10 7 6 7 7 8 10 9 4 1 1 3 5 5 4 5 6 7 8 3 3
4 9 10 12 6 6 9 10 7 5 5 8 6 5 9 10 10 11 10 6 5 5 4 4 4 5 6 7 9 8 10 4 3 3 1 2 2 3 3 4 5 5 6
3 6 6 5 5 9 10 8 11 14 9 7 10 8 7 8 11 12 10 8 5 5 5 5 5 4 4 2 3 3 2 2 1 4 5 5 6 9 7 9 10 13 12
1 4 7 3 4 6 12 12 13 15 16 15 13 11 9 11 12 13 13 11 10 10 10 6 1 6 9 8 9 10 10 9 7 7 8 8 7 9 11 12 14 15 18
4 2 4 9 12 11 10 14 14 13 12 11 10 8 8 9 10 10 11 10 11 11 9 6 4 4 4 5 5 8 11 14 15 15 12 13 13 12 14 15 16 15 14
7 6 6 6 7 7 10 12 11 10 9 10 9 9 8 9 10 12 13 14 14 11 11 11 11 9 10 10 9 8 11 12 15 14 16 18 20 20 20 20 19 18 18
4 3 5 5 4 6 7 7 9 9 7 6 7 7 7 5 7 9 11 14 17 18 15 14 14 14 15 16 17 16 17 18 19 20 21 20 21 21 22 24 25 29 29
4 2 4 4 5 5 5 5 7 7 7 5 6 7 7 8 8 9 11 14 15 17 17 18 18 17 16 18 19 20 21 23 26 29 30 31 30 29 28 28 27 27 28